GFSWCAN_prec_precacc_015.txt.gz
Total_Precipitation_Accumulation
0.22 0.32 0.41 0.21 0.18 0.19 0.17 0.14 0.17 0.17 0.15 0.10 0.08 0.07 0.08 0.05 0.05 0.15 0.13 0.25 0.55 0.16 0.02 0.00 0.00 0.00 0.00 0.00 0.02 0.02 0.04 0.01 0.00 0.00 0.01 0.00 0.00 0.00 0.00 0.00 0.00 0.00 0.00 0.00 0.00 0.00 0.00 0.00 0.00 0.00 0.00 0.00 0.00 0.00
0.34 0.39 0.32 0.20 0.19 0.18 0.14 0.10 0.13 0.11 0.11 0.06 0.04 0.02 0.02 0.02 0.03 0.16 0.18 0.17 0.33 0.36 0.13 0.00 0.00 0.00 0.00 0.00 0.00 0.00 0.00 0.00 0.00 0.00 0.01 0.02 0.00 0.00 0.00 0.00 0.00 0.00 0.00 0.00 0.00 0.00 0.00 0.00 0.00 0.00 0.00 0.00 0.00 0.00
0.32 0.31 0.26 0.18 0.15 0.13 0.11 0.14 0.13 0.09 0.08 0.04 0.02 0.01 0.01 0.01 0.02 0.19 0.24 0.16 0.76 0.50 0.41 0.06 0.00 0.00 0.00 0.00 0.00 0.00 0.00 0.00 0.00 0.00 0.00 0.01 0.01 0.00 0.00 0.00 0.00 0.00 0.00 0.00 0.00 0.00 0.00 0.00 0.00 0.00 0.00 0.00 0.00 0.00
0.28 0.26 0.23 0.15 0.12 0.13 0.16 0.12 0.07 0.08 0.05 0.03 0.02 0.01 0.01 0.01 0.02 0.26 0.26 0.44 1.43 0.51 0.36 0.10 0.01 0.00 0.00 0.00 0.00 0.00 0.00 0.00 0.00 0.00 0.00 0.01 0.01 0.00 0.00 0.00 0.00 0.00 0.00 0.00 0.00 0.00 0.00 0.00 0.00 0.00 0.00 0.00 0.00 0.00
0.25 0.21 0.16 0.14 0.13 0.15 0.13 0.06 0.06 0.06 0.03 0.04 0.04 0.01 0.01 0.01 0.07 0.25 0.29 0.80 1.04 0.61 0.26 0.08 0.02 0.01 0.00 0.00 0.00 0.00 0.01 0.00 0.00 0.00 0.01 0.01 0.00 0.00 0.00 0.00 0.00 0.00 0.00 0.00 0.00 0.00 0.00 0.00 0.00 0.00 0.00 0.00 0.00 0.00
0.24 0.20 0.15 0.11 0.12 0.09 0.05 0.06 0.06 0.05 0.05 0.05 0.06 0.04 0.03 0.03 0.16 0.36 0.63 0.59 0.36 0.26 0.17 0.07 0.03 0.01 0.00 0.00 0.00 0.00 0.00 0.01 0.00 0.00 0.00 0.00 0.00 0.00 0.00 0.00 0.00 0.00 0.00 0.00 0.00 0.00 0.00 0.00 0.00 0.00 0.00 0.00 0.00 0.00
0.33 0.25 0.16 0.09 0.06 0.06 0.06 0.08 0.11 0.11 0.09 0.08 0.07 0.11 0.12 0.10 0.26 0.40 0.28 0.25 0.21 0.09 0.12 0.10 0.05 0.02 0.01 0.01 0.00 0.00 0.00 0.01 0.01 0.00 0.00 0.00 0.00 0.00 0.00 0.00 0.00 0.00 0.00 0.00 0.00 0.00 0.00 0.00 0.00 0.00 0.00 0.00 0.00 0.00
0.27 0.21 0.14 0.09 0.08 0.09 0.09 0.10 0.11 0.10 0.06 0.07 0.06 0.08 0.16 0.21 0.40 0.39 0.07 0.08 0.10 0.04 0.10 0.14 0.04 0.02 0.01 0.03 0.02 0.00 0.01 0.03 0.02 0.00 0.00 0.00 0.00 0.00 0.00 0.00 0.00 0.00 0.00 0.00 0.00 0.00 0.00 0.00 0.00 0.00 0.00 0.00 0.00 0.00
0.11 0.08 0.07 0.06 0.09 0.09 0.07 0.09 0.08 0.06 0.06 0.03 0.03 0.06 0.16 0.27 0.42 0.18 0.04 0.02 0.03 0.05 0.11 0.08 0.04 0.03 0.02 0.02 0.02 0.01 0.01 0.02 0.00 0.00 0.00 0.00 0.00 0.00 0.00 0.00 0.00 0.00 0.00 0.00 0.00 0.00 0.00 0.00 0.00 0.00 0.00 0.00 0.00 0.01
0.04 0.03 0.05 0.06 0.11 0.12 0.10 0.06 0.03 0.04 0.04 0.03 0.04 0.12 0.20 0.09 0.06 0.02 0.03 0.02 0.10 0.06 0.04 0.04 0.06 0.04 0.03 0.03 0.03 0.02 0.01 0.00 0.00 0.00 0.00 0.00 0.00 0.00 0.00 0.00 0.00 0.00 0.00 0.00 0.00 0.00 0.00 0.00 0.00 0.00 0.00 0.01 0.02 0.05
0.03 0.04 0.04 0.04 0.07 0.13 0.09 0.05 0.03 0.02 0.03 0.07 0.07 0.11 0.06 0.03 0.03 0.02 0.05 0.02 0.11 0.10 0.01 0.01 0.02 0.04 0.02 0.05 0.05 0.03 0.01 0.01 0.00 0.00 0.00 0.00 0.00 0.00 0.00 0.00 0.00 0.00 0.00 0.00 0.00 0.00 0.00 0.00 0.00 0.01 0.03 0.04 0.03 0.01
0.11 0.05 0.03 0.02 0.03 0.08 0.09 0.03 0.03 0.04 0.07 0.05 0.02 0.03 0.03 0.04 0.04 0.02 0.04 0.01 0.03 0.04 0.01 0.00 0.00 0.01 0.00 0.02 0.04 0.05 0.03 0.01 0.00 0.00 0.01 0.01 0.00 0.00 0.00 0.00 0.00 0.00 0.00 0.00 0.00 0.00 0.00 0.00 0.01 0.01 0.01 0.00 0.00 0.00
0.13 0.11 0.07 0.03 0.03 0.03 0.07 0.06 0.06 0.04 0.01 0.00 0.01 0.03 0.05 0.07 0.05 0.01 0.00 0.01 0.00 0.00 0.01 0.01 0.01 0.03 0.01 0.00 0.02 0.05 0.09 0.05 0.01 0.01 0.01 0.01 0.01 0.03 0.01 0.00 0.00 0.00 0.00 0.00 0.00 0.00 0.00 0.00 0.00 0.00 0.00 0.00 0.00 0.00
0.01 0.04 0.08 0.09 0.09 0.04 0.02 0.02 0.00 0.00 0.00 0.01 0.02 0.02 0.03 0.03 0.00 0.00 0.00 0.00 0.00 0.00 0.00 0.00 0.00 0.01 0.01 0.01 0.02 0.03 0.07 0.08 0.08 0.04 0.01 0.03 0.06 0.03 0.01 0.00 0.00 0.00 0.00 0.00 0.00 0.00 0.00 0.00 0.00 0.00 0.00 0.00 0.00 0.00
0.00 0.00 0.00 0.03 0.07 0.05 0.04 0.01 0.00 0.00 0.02 0.09 0.06 0.08 0.02 0.01 0.00 0.00 0.00 0.00 0.01 0.00 0.00 0.00 0.01 0.02 0.03 0.07 0.06 0.07 0.06 0.05 0.03 0.01 0.02 0.05 0.05 0.02 0.01 0.00 0.00 0.00 0.00 0.00 0.00 0.00 0.00 0.00 0.00 0.00 0.00 0.00 0.00 0.00
0.00 0.00 0.00 0.00 0.00 0.00 0.02 0.02 0.02 0.06 0.18 0.23 0.20 0.13 0.06 0.02 0.03 0.03 0.02 0.01 0.01 0.01 0.01 0.03 0.04 0.07 0.08 0.08 0.07 0.05 0.05 0.03 0.02 0.02 0.04 0.05 0.04 0.05 0.02 0.01 0.01 0.01 0.00 0.00 0.00 0.00 0.00 0.00 0.00 0.00 0.00 0.00 0.00 0.00
0.00 0.00 0.00 0.00 0.00 0.00 0.00 0.00 0.04 0.16 0.25 0.17 0.27 0.31 0.22 0.15 0.16 0.16 0.12 0.08 0.06 0.06 0.10 0.09 0.09 0.09 0.12 0.11 0.09 0.07 0.08 0.07 0.08 0.08 0.07 0.05 0.06 0.04 0.02 0.01 0.00 0.00 0.00 0.00 0.00 0.00 0.00 0.00 0.00 0.00 0.00 0.00 0.00 0.00
0.00 0.00 0.00 0.00 0.00 0.00 0.00 0.00 0.01 0.01 0.05 0.11 0.12 0.22 0.19 0.22 0.20 0.17 0.13 0.11 0.09 0.09 0.11 0.13 0.12 0.16 0.19 0.17 0.16 0.14 0.12 0.11 0.07 0.06 0.06 0.07 0.02 0.01 0.00 0.00 0.00 0.00 0.00 0.00 0.00 0.00 0.00 0.00 0.00 0.00 0.00 0.00 0.00 0.00
0.00 0.00 0.00 0.00 0.00 0.00 0.00 0.00 0.00 0.03 0.09 0.10 0.11 0.08 0.04 0.04 0.02 0.04 0.03 0.02 0.01 0.01 0.03 0.04 0.07 0.11 0.14 0.12 0.11 0.09 0.05 0.01 0.01 0.01 0.02 0.01 0.00 0.00 0.00 0.01 0.01 0.01 0.00 0.00 0.00 0.00 0.00 0.00 0.00 0.00 0.00 0.00 0.00 0.00
0.00 0.00 0.00 0.00 0.00 0.00 0.00 0.00 0.00 0.01 0.06 0.07 0.06 0.02 0.01 0.01 0.00 0.01 0.00 0.00 0.00 0.00 0.00 0.02 0.06 0.08 0.05 0.05 0.04 0.03 0.03 0.02 0.01 0.01 0.01 0.02 0.02 0.03 0.04 0.02 0.01 0.01 0.00 0.00 0.00 0.00 0.00 0.00 0.00 0.00 0.00 0.00 0.00 0.00
0.00 0.00 0.00 0.00 0.00 0.00 0.00 0.00 0.00 0.00 0.01 0.01 0.00 0.00 0.00 0.00 0.00 0.00 0.00 0.00 0.00 0.02 0.05 0.08 0.07 0.05 0.03 0.03 0.05 0.06 0.07 0.08 0.10 0.04 0.02 0.02 0.02 0.03 0.05 0.06 0.05 0.04 0.04 0.04 0.03 0.01 0.00 0.00 0.00 0.00 0.00 0.00 0.00 0.00
0.00 0.00 0.00 0.00 0.00 0.00 0.00 0.00 0.00 0.00 0.00 0.00 0.00 0.00 0.01 0.01 0.01 0.00 0.00 0.01 0.04 0.08 0.07 0.06 0.05 0.04 0.02 0.02 0.02 0.03 0.06 0.08 0.11 0.15 0.12 0.09 0.09 0.08 0.09 0.09 0.07 0.08 0.07 0.05 0.03 0.01 0.00 0.00 0.00 0.00 0.00 0.00 0.00 0.00
0.00 0.00 0.00 0.00 0.00 0.00 0.00 0.00 0.00 0.00 0.00 0.00 0.01 0.01 0.01 0.01 0.00 0.01 0.02 0.04 0.07 0.10 0.08 0.04 0.04 0.07 0.10 0.14 0.12 0.14 0.16 0.16 0.19 0.24 0.24 0.22 0.21 0.19 0.15 0.12 0.10 0.07 0.03 0.01 0.00 0.00 0.00 0.00 0.00 0.00 0.00 0.00 0.00 0.00
0.00 0.00 0.00 0.00 0.00 0.00 0.00 0.00 0.00 0.00 0.00 0.00 0.00 0.01 0.01 0.00 0.00 0.02 0.03 0.04 0.06 0.04 0.05 0.07 0.09 0.10 0.12 0.15 0.18 0.24 0.29 0.24 0.21 0.20 0.19 0.14 0.12 0.10 0.06 0.04 0.01 0.01 0.00 0.00 0.00 0.00 0.00 0.00 0.00 0.00 0.00 0.00 0.00 0.00
0.00 0.00 0.00 0.00 0.00 0.00 0.00 0.00 0.01 0.00 0.00 0.01 0.01 0.01 0.00 0.01 0.02 0.02 0.03 0.07 0.05 0.06 0.13 0.18 0.16 0.16 0.18 0.21 0.21 0.19 0.16 0.10 0.08 0.07 0.06 0.04 0.03 0.01 0.00 0.00 0.00 0.00 0.00 0.00 0.00 0.00 0.00 0.00 0.00 0.00 0.00 0.00 0.00 0.00
0.00 0.01 0.00 0.00 0.00 0.00 0.00 0.01 0.01 0.01 0.01 0.01 0.01 0.01 0.01 0.03 0.03 0.04 0.05 0.08 0.08 0.10 0.14 0.20 0.23 0.18 0.16 0.13 0.10 0.08 0.05 0.02 0.01 0.00 0.00 0.00 0.00 0.00 0.00 0.00 0.00 0.00 0.00 0.00 0.00 0.00 0.00 0.00 0.00 0.00 0.00 0.00 0.01 0.02
0.01 0.01 0.01 0.00 0.00 0.00 0.01 0.01 0.01 0.02 0.03 0.04 0.04 0.03 0.05 0.09 0.05 0.06 0.06 0.08 0.12 0.14 0.16 0.16 0.13 0.09 0.08 0.06 0.04 0.03 0.01 0.00 0.00 0.00 0.00 0.00 0.00 0.00 0.00 0.00 0.00 0.00 0.00 0.00 0.00 0.00 0.00 0.00 0.00 0.00 0.01 0.01 0.02 0.02
0.01 0.01 0.01 0.01 0.01 0.01 0.02 0.03 0.03 0.05 0.06 0.04 0.05 0.04 0.03 0.05 0.08 0.08 0.09 0.10 0.10 0.09 0.08 0.07 0.05 0.03 0.03 0.03 0.04 0.02 0.01 0.00 0.00 0.00 0.00 0.00 0.00 0.00 0.00 0.00 0.00 0.00 0.00 0.00 0.00 0.00 0.01 0.01 0.01 0.01 0.01 0.01 0.01 0.01
0.02 0.01 0.01 0.00 0.01 0.02 0.04 0.05 0.05 0.04 0.03 0.02 0.04 0.04 0.03 0.04 0.07 0.07 0.07 0.09 0.09 0.09 0.05 0.05 0.06 0.04 0.03 0.01 0.00 0.00 0.00 0.00 0.00 0.00 0.00 0.01 0.01 0.01 0.00 0.00 0.00 0.00 0.00 0.00 0.00 0.00 0.00 0.01 0.02 0.01 0.00 0.01 0.01 0.02
0.01 0.01 0.01 0.00 0.01 0.03 0.04 0.03 0.05 0.04 0.01 0.02 0.02 0.02 0.02 0.05 0.08 0.07 0.07 0.07 0.07 0.08 0.07 0.06 0.06 0.04 0.04 0.02 0.01 0.00 0.00 0.00 0.00 0.00 0.00 0.00 0.00 0.00 0.01 0.01 0.01 0.00 0.01 0.00 0.00 0.00 0.00 0.00 0.00 0.00 0.01 0.01 0.01 0.01
0.00 0.01 0.01 0.01 0.02 0.02 0.02 0.01 0.03 0.06 0.04 0.03 0.03 0.04 0.04 0.05 0.06 0.04 0.04 0.07 0.05 0.06 0.05 0.03 0.01 0.01 0.00 0.00 0.00 0.00 0.01 0.00 0.00 0.00 0.00 0.00 0.00 0.00 0.01 0.01 0.01 0.01 0.01 0.01 0.01 0.00 0.00 0.00 0.01 0.01 0.00 0.01 0.00 0.00
0.00 0.01 0.01 0.01 0.02 0.01 0.00 0.01 0.02 0.07 0.07 0.05 0.04 0.03 0.05 0.05 0.03 0.04 0.03 0.04 0.03 0.02 0.01 0.01 0.01 0.00 0.00 0.00 0.00 0.00 0.00 0.00 0.00 0.00 0.00 0.00 0.00 0.01 0.01 0.01 0.01 0.01 0.01 0.01 0.00 0.00 0.01 0.01 0.01 0.01 0.01 0.00 0.00 0.00
0.01 0.00 0.00 0.01 0.01 0.02 0.02 0.00 0.01 0.02 0.02 0.02 0.03 0.04 0.04 0.04 0.04 0.05 0.04 0.02 0.01 0.01 0.01 0.01 0.01 0.01 0.00 0.00 0.00 0.00 0.00 0.00 0.00 0.00 0.01 0.01 0.00 0.00 0.00 0.01 0.01 0.00 0.00 0.00 0.00 0.00 0.00 0.01 0.01 0.01 0.00 0.00 0.00 0.00

GFSWCAN_prec_precacc_018.txt.gz
Total_Precipitation_Accumulation
0.23 0.33 0.41 0.21 0.19 0.19 0.18 0.15 0.21 0.20 0.20 0.13 0.10 0.09 0.10 0.08 0.09 0.22 0.30 0.37 0.69 0.34 0.06 0.04 0.00 0.00 0.01 0.00 0.04 0.03 0.13 0.09 0.04 0.04 0.02 0.00 0.00 0.00 0.00 0.00 0.00 0.00 0.00 0.00 0.00 0.00 0.00 0.00 0.00 0.00 0.00 0.00 0.00 0.00
0.34 0.39 0.32 0.21 0.19 0.18 0.14 0.11 0.20 0.17 0.18 0.10 0.08 0.05 0.05 0.05 0.06 0.23 0.33 0.25 0.43 0.46 0.18 0.07 0.01 0.00 0.00 0.00 0.01 0.01 0.06 0.02 0.02 0.01 0.01 0.02 0.00 0.00 0.00 0.00 0.00 0.00 0.00 0.00 0.00 0.00 0.00 0.00 0.00 0.00 0.00 0.00 0.00 0.00
0.33 0.32 0.26 0.19 0.15 0.13 0.11 0.15 0.18 0.13 0.12 0.07 0.05 0.03 0.03 0.04 0.03 0.21 0.31 0.26 0.88 0.56 0.46 0.11 0.03 0.00 0.00 0.00 0.01 0.02 0.00 0.01 0.01 0.00 0.01 0.02 0.01 0.00 0.00 0.00 0.00 0.00 0.00 0.00 0.00 0.00 0.00 0.00 0.00 0.00 0.00 0.00 0.00 0.00
0.30 0.27 0.23 0.16 0.12 0.13 0.16 0.13 0.09 0.09 0.06 0.05 0.04 0.03 0.03 0.03 0.03 0.28 0.33 0.52 1.57 0.62 0.77 0.31 0.04 0.02 0.01 0.00 0.00 0.01 0.00 0.00 0.00 0.00 0.00 0.01 0.01 0.00 0.00 0.00 0.00 0.00 0.00 0.00 0.00 0.00 0.00 0.00 0.00 0.00 0.00 0.00 0.00 0.00
0.26 0.21 0.16 0.14 0.13 0.15 0.14 0.06 0.07 0.06 0.04 0.05 0.06 0.02 0.03 0.02 0.08 0.34 0.40 0.85 1.12 0.70 0.62 0.68 0.07 0.04 0.06 0.02 0.00 0.05 0.03 0.00 0.00 0.00 0.01 0.01 0.00 0.00 0.00 0.00 0.00 0.00 0.00 0.00 0.00 0.00 0.00 0.00 0.00 0.00 0.00 0.00 0.00 0.00
0.24 0.20 0.15 0.11 0.12 0.09 0.05 0.06 0.06 0.06 0.05 0.06 0.07 0.06 0.04 0.04 0.22 0.54 0.89 0.77 0.67 0.45 0.52 0.77 0.25 0.05 0.06 0.03 0.02 0.02 0.09 0.08 0.02 0.02 0.00 0.00 0.00 0.00 0.00 0.00 0.00 0.00 0.00 0.00 0.00 0.00 0.00 0.00 0.00 0.00 0.00 0.00 0.00 0.00
0.33 0.25 0.16 0.09 0.06 0.06 0.06 0.09 0.11 0.12 0.10 0.10 0.08 0.13 0.13 0.14 0.33 0.77 0.80 0.69 0.60 0.38 0.37 0.51 0.31 0.10 0.08 0.04 0.04 0.04 0.04 0.06 0.10 0.04 0.01 0.00 0.00 0.00 0.00 0.00 0.00 0.00 0.00 0.00 0.00 0.00 0.00 0.00 0.00 0.00 0.00 0.00 0.00 0.00
0.28 0.21 0.14 0.09 0.08 0.09 0.09 0.11 0.12 0.12 0.08 0.07 0.08 0.10 0.20 0.26 0.55 0.87 0.59 0.60 0.56 0.30 0.25 0.29 0.19 0.16 0.07 0.06 0.04 0.03 0.04 0.08 0.08 0.04 0.02 0.01 0.00 0.00 0.00 0.00 0.00 0.00 0.00 0.00 0.00 0.00 0.00 0.00 0.00 0.00 0.00 0.00 0.00 0.00
0.16 0.10 0.08 0.08 0.11 0.10 0.08 0.10 0.10 0.10 0.07 0.05 0.06 0.15 0.34 0.55 0.88 0.82 0.50 0.45 0.32 0.24 0.19 0.12 0.08 0.06 0.04 0.03 0.03 0.04 0.02 0.03 0.02 0.03 0.01 0.00 0.00 0.00 0.00 0.00 0.00 0.00 0.00 0.00 0.00 0.00 0.00 0.00 0.00 0.00 0.00 0.00 0.00 0.01
0.12 0.08 0.07 0.08 0.12 0.14 0.12 0.10 0.08 0.08 0.07 0.10 0.18 0.37 0.55 0.64 0.63 0.39 0.32 0.18 0.16 0.07 0.04 0.04 0.06 0.04 0.04 0.03 0.03 0.03 0.01 0.00 0.00 0.00 0.00 0.00 0.00 0.00 0.00 0.00 0.00 0.00 0.00 0.00 0.00 0.00 0.00 0.00 0.00 0.00 0.00 0.01 0.02 0.05
0.06 0.06 0.06 0.06 0.09 0.15 0.11 0.07 0.07 0.09 0.14 0.19 0.25 0.45 0.50 0.46 0.42 0.24 0.11 0.04 0.12 0.10 0.01 0.01 0.03 0.08 0.03 0.06 0.06 0.04 0.01 0.01 0.00 0.00 0.00 0.00 0.00 0.00 0.00 0.00 0.00 0.00 0.00 0.00 0.00 0.00 0.00 0.00 0.00 0.01 0.03 0.04 0.03 0.01
0.14 0.08 0.05 0.04 0.04 0.09 0.11 0.06 0.07 0.09 0.14 0.14 0.23 0.30 0.38 0.20 0.09 0.03 0.05 0.01 0.03 0.04 0.01 0.00 0.01 0.06 0.05 0.04 0.05 0.06 0.03 0.01 0.01 0.00 0.01 0.01 0.00 0.00 0.00 0.00 0.00 0.00 0.00 0.00 0.00 0.00 0.00 0.00 0.01 0.01 0.01 0.00 0.00 0.00
0.16 0.14 0.09 0.04 0.03 0.04 0.09 0.09 0.10 0.09 0.06 0.09 0.13 0.11 0.08 0.07 0.06 0.01 0.00 0.01 0.00 0.00 0.01 0.01 0.01 0.07 0.06 0.02 0.05 0.06 0.09 0.05 0.01 0.01 0.01 0.01 0.01 0.03 0.01 0.00 0.00 0.00 0.00 0.00 0.00 0.00 0.00 0.00 0.00 0.00 0.00 0.00 0.00 0.00
0.08 0.09 0.13 0.19 0.21 0.14 0.12 0.07 0.03 0.01 0.01 0.02 0.03 0.03 0.04 0.06 0.01 0.01 0.01 0.01 0.01 0.01 0.01 0.00 0.00 0.05 0.14 0.08 0.05 0.05 0.09 0.08 0.08 0.04 0.01 0.03 0.06 0.03 0.01 0.00 0.00 0.00 0.00 0.00 0.00 0.00 0.00 0.00 0.00 0.00 0.00 0.00 0.00 0.00
0.10 0.12 0.13 0.15 0.13 0.06 0.04 0.02 0.01 0.00 0.02 0.10 0.06 0.08 0.03 0.02 0.01 0.02 0.01 0.01 0.02 0.01 0.00 0.00 0.01 0.02 0.06 0.13 0.08 0.08 0.07 0.06 0.04 0.01 0.02 0.06 0.05 0.02 0.01 0.00 0.00 0.00 0.00 0.00 0.00 0.00 0.00 0.00 0.00 0.00 0.00 0.00 0.00 0.00
0.02 0.03 0.01 0.01 0.01 0.00 0.02 0.02 0.02 0.06 0.18 0.23 0.20 0.14 0.07 0.03 0.04 0.04 0.05 0.03 0.02 0.01 0.01 0.03 0.04 0.07 0.08 0.08 0.07 0.05 0.05 0.04 0.02 0.02 0.04 0.05 0.05 0.05 0.03 0.01 0.01 0.01 0.01 0.00 0.00 0.00 0.00 0.00 0.00 0.00 0.00 0.00 0.00 0.00
0.00 0.00 0.00 0.00 0.00 0.00 0.00 0.00 0.04 0.18 0.28 0.19 0.29 0.34 0.24 0.16 0.18 0.18 0.14 0.09 0.06 0.07 0.10 0.09 0.10 0.10 0.14 0.13 0.10 0.08 0.10 0.09 0.09 0.09 0.08 0.07 0.07 0.05 0.03 0.03 0.02 0.01 0.00 0.00 0.00 0.00 0.00 0.00 0.00 0.00 0.00 0.00 0.00 0.00
0.00 0.00 0.00 0.00 0.00 0.00 0.00 0.00 0.02 0.04 0.10 0.17 0.19 0.32 0.27 0.32 0.29 0.24 0.21 0.17 0.14 0.13 0.16 0.19 0.18 0.24 0.27 0.24 0.22 0.22 0.20 0.17 0.11 0.08 0.08 0.09 0.05 0.02 0.02 0.01 0.02 0.01 0.00 0.00 0.00 0.00 0.00 0.00 0.00 0.00 0.00 0.00 0.00 0.00
0.00 0.00 0.00 0.00 0.00 0.00 0.00 0.00 0.00 0.05 0.16 0.18 0.19 0.15 0.10 0.12 0.11 0.13 0.12 0.12 0.10 0.08 0.08 0.09 0.12 0.17 0.22 0.22 0.24 0.20 0.14 0.05 0.02 0.03 0.04 0.03 0.02 0.01 0.02 0.04 0.05 0.05 0.03 0.01 0.00 0.00 0.00 0.00 0.00 0.00 0.00 0.00 0.00 0.00
0.00 0.00 0.00 0.00 0.00 0.00 0.00 0.00 0.00 0.02 0.11 0.14 0.12 0.05 0.03 0.04 0.02 0.01 0.00 0.00 0.00 0.00 0.01 0.06 0.14 0.16 0.14 0.14 0.12 0.10 0.08 0.05 0.02 0.03 0.05 0.07 0.06 0.06 0.09 0.06 0.05 0.04 0.02 0.02 0.02 0.01 0.02 0.03 0.01 0.00 0.00 0.00 0.00 0.00
0.00 0.00 0.00 0.00 0.00 0.00 0.00 0.00 0.01 0.01 0.02 0.01 0.01 0.00 0.00 0.00 0.00 0.00 0.00 0.00 0.00 0.02 0.08 0.13 0.12 0.11 0.08 0.07 0.09 0.09 0.11 0.13 0.15 0.09 0.06 0.06 0.08 0.06 0.09 0.10 0.08 0.06 0.06 0.08 0.06 0.06 0.05 0.03 0.00 0.00 0.00 0.00 0.00 0.00
0.00 0.00 0.00 0.00 0.00 0.00 0.00 0.00 0.00 0.00 0.00 0.00 0.00 0.00 0.01 0.01 0.01 0.00 0.00 0.01 0.06 0.12 0.10 0.10 0.08 0.05 0.03 0.03 0.03 0.04 0.08 0.10 0.16 0.21 0.20 0.16 0.16 0.15 0.16 0.16 0.10 0.12 0.12 0.11 0.08 0.05 0.01 0.00 0.00 0.00 0.00 0.00 0.00 0.00
0.00 0.00 0.00 0.00 0.00 0.00 0.00 0.00 0.00 0.00 0.00 0.00 0.01 0.01 0.01 0.01 0.01 0.01 0.02 0.04 0.10 0.14 0.12 0.06 0.04 0.07 0.11 0.14 0.12 0.14 0.17 0.16 0.21 0.27 0.29 0.27 0.25 0.24 0.19 0.16 0.14 0.09 0.06 0.04 0.02 0.00 0.00 0.00 0.00 0.00 0.00 0.00 0.00 0.00
0.00 0.00 0.00 0.00 0.00 0.00 0.00 0.00 0.00 0.00 0.00 0.00 0.00 0.01 0.01 0.01 0.00 0.02 0.03 0.06 0.10 0.05 0.06 0.10 0.10 0.10 0.12 0.15 0.18 0.25 0.30 0.25 0.21 0.21 0.20 0.15 0.13 0.11 0.07 0.05 0.03 0.02 0.01 0.00 0.00 0.00 0.00 0.00 0.00 0.00 0.00 0.00 0.00 0.00
0.00 0.00 0.00 0.00 0.00 0.00 0.00 0.01 0.01 0.00 0.00 0.01 0.01 0.01 0.01 0.01 0.02 0.02 0.04 0.09 0.06 0.08 0.14 0.19 0.16 0.16 0.19 0.21 0.22 0.20 0.16 0.10 0.08 0.07 0.07 0.05 0.03 0.02 0.01 0.00 0.00 0.00 0.00 0.00 0.00 0.00 0.00 0.00 0.00 0.00 0.00 0.00 0.00 0.01
0.01 0.01 0.00 0.01 0.01 0.01 0.01 0.01 0.01 0.01 0.01 0.01 0.02 0.01 0.02 0.03 0.03 0.05 0.06 0.10 0.09 0.11 0.16 0.21 0.24 0.19 0.17 0.14 0.10 0.08 0.06 0.03 0.01 0.00 0.00 0.00 0.00 0.00 0.00 0.00 0.00 0.00 0.00 0.00 0.00 0.00 0.00 0.00 0.00 0.00 0.00 0.00 0.01 0.02
0.01 0.01 0.01 0.00 0.01 0.01 0.01 0.01 0.01 0.02 0.03 0.04 0.04 0.03 0.06 0.10 0.06 0.08 0.09 0.09 0.13 0.16 0.17 0.17 0.13 0.10 0.09 0.07 0.05 0.03 0.01 0.00 0.00 0.00 0.00 0.00 0.00 0.00 0.00 0.00 0.00 0.00 0.00 0.00 0.00 0.00 0.00 0.01 0.01 0.00 0.01 0.01 0.02 0.02
0.01 0.01 0.01 0.01 0.01 0.01 0.02 0.03 0.03 0.05 0.06 0.04 0.06 0.04 0.04 0.06 0.10 0.11 0.12 0.14 0.12 0.10 0.08 0.07 0.06 0.03 0.03 0.04 0.04 0.03 0.01 0.01 0.00 0.00 0.00 0.01 0.00 0.00 0.00 0.00 0.00 0.00 0.00 0.00 0.00 0.00 0.01 0.01 0.02 0.02 0.02 0.01 0.01 0.01
0.02 0.01 0.01 0.00 0.01 0.02 0.04 0.06 0.06 0.05 0.04 0.03 0.05 0.05 0.04 0.05 0.10 0.11 0.11 0.12 0.12 0.10 0.06 0.06 0.08 0.05 0.03 0.01 0.00 0.00 0.00 0.00 0.00 0.00 0.00 0.01 0.02 0.01 0.00 0.01 0.00 0.00 0.00 0.00 0.00 0.00 0.00 0.02 0.02 0.01 0.00 0.01 0.01 0.03
0.01 0.01 0.01 0.00 0.01 0.03 0.05 0.04 0.06 0.04 0.01 0.02 0.02 0.03 0.03 0.07 0.11 0.09 0.09 0.08 0.08 0.08 0.08 0.07 0.07 0.05 0.05 0.03 0.01 0.00 0.00 0.00 0.00 0.00 0.00 0.00 0.00 0.01 0.01 0.01 0.01 0.01 0.01 0.01 0.01 0.00 0.00 0.00 0.00 0.00 0.01 0.01 0.02 0.01
0.00 0.01 0.01 0.01 0.02 0.02 0.02 0.02 0.04 0.06 0.04 0.03 0.04 0.04 0.04 0.06 0.07 0.05 0.05 0.08 0.06 0.06 0.05 0.04 0.02 0.01 0.00 0.00 0.00 0.00 0.01 0.00 0.00 0.00 0.00 0.00 0.00 0.00 0.01 0.01 0.01 0.01 0.01 0.01 0.01 0.01 0.01 0.00 0.01 0.01 0.01 0.01 0.01 0.00
0.00 0.01 0.01 0.01 0.03 0.02 0.00 0.01 0.03 0.09 0.08 0.06 0.05 0.04 0.05 0.06 0.04 0.04 0.03 0.04 0.03 0.02 0.02 0.02 0.01 0.01 0.00 0.00 0.00 0.00 0.00 0.00 0.00 0.00 0.00 0.01 0.01 0.01 0.01 0.01 0.01 0.01 0.01 0.01 0.01 0.01 0.01 0.01 0.01 0.01 0.01 0.01 0.00 0.00
0.01 0.00 0.00 0.01 0.02 0.02 0.02 0.01 0.02 0.02 0.03 0.03 0.04 0.04 0.05 0.04 0.04 0.06 0.05 0.03 0.02 0.01 0.01 0.01 0.01 0.02 0.02 0.00 0.00 0.00 0.00 0.00 0.00 0.00 0.01 0.01 0.01 0.01 0.00 0.01 0.01 0.01 0.01 0.00 0.00 0.00 0.01 0.01 0.01 0.01 0.01 0.00 0.00 0.00

GFSWCAN_prec_precacc_024.txt.gz
Total_Precipitation_Accumulation
0.43 0.54 0.63 0.43 0.39 0.35 0.36 0.32 0.33 0.30 0.25 0.14 0.11 0.10 0.11 0.10 0.12 0.26 0.36 0.58 0.96 0.54 0.12 0.14 0.05 0.01 0.01 0.00 0.04 0.03 0.14 0.11 0.09 0.08 0.04 0.02 0.01 0.00 0.00 0.00 0.00 0.00 0.00 0.00 0.00 0.00 0.00 0.00 0.00 0.00 0.00 0.00 0.00 0.00
0.50 0.57 0.50 0.40 0.34 0.32 0.32 0.26 0.29 0.23 0.20 0.11 0.09 0.06 0.07 0.08 0.10 0.27 0.39 0.43 0.72 0.76 0.26 0.13 0.04 0.00 0.00 0.00 0.01 0.01 0.06 0.03 0.04 0.04 0.02 0.04 0.01 0.00 0.00 0.00 0.00 0.00 0.00 0.00 0.00 0.00 0.00 0.00 0.00 0.00 0.00 0.00 0.00 0.00
0.39 0.40 0.37 0.30 0.25 0.25 0.23 0.24 0.23 0.16 0.14 0.09 0.08 0.06 0.07 0.08 0.07 0.27 0.41 0.42 1.13 0.74 0.53 0.15 0.07 0.01 0.00 0.00 0.01 0.03 0.01 0.03 0.05 0.04 0.05 0.04 0.02 0.00 0.00 0.00 0.00 0.00 0.00 0.00 0.00 0.00 0.00 0.00 0.00 0.00 0.00 0.00 0.00 0.00
0.31 0.29 0.25 0.17 0.15 0.17 0.19 0.17 0.13 0.13 0.10 0.08 0.08 0.07 0.08 0.08 0.08 0.35 0.43 0.73 1.77 0.75 0.95 0.44 0.12 0.08 0.04 0.01 0.00 0.02 0.02 0.02 0.05 0.09 0.06 0.04 0.02 0.00 0.00 0.00 0.00 0.00 0.00 0.00 0.00 0.00 0.00 0.00 0.00 0.00 0.00 0.00 0.00 0.00
0.26 0.22 0.17 0.15 0.14 0.15 0.14 0.08 0.09 0.10 0.08 0.09 0.11 0.09 0.10 0.09 0.16 0.44 0.50 1.08 1.31 0.84 0.73 0.78 0.15 0.14 0.12 0.05 0.01 0.05 0.05 0.03 0.08 0.11 0.06 0.03 0.01 0.01 0.00 0.00 0.00 0.00 0.00 0.00 0.00 0.00 0.00 0.00 0.00 0.00 0.00 0.00 0.00 0.00
0.24 0.20 0.15 0.12 0.13 0.10 0.06 0.08 0.10 0.12 0.10 0.12 0.15 0.16 0.15 0.13 0.31 0.69 1.05 0.96 0.86 0.61 0.73 0.90 0.37 0.12 0.16 0.13 0.07 0.04 0.11 0.12 0.08 0.07 0.03 0.02 0.01 0.00 0.00 0.00 0.00 0.00 0.00 0.00 0.00 0.00 0.00 0.00 0.00 0.00 0.00 0.00 0.00 0.00
0.33 0.25 0.16 0.09 0.07 0.08 0.08 0.11 0.16 0.17 0.16 0.19 0.18 0.22 0.22 0.19 0.41 0.89 0.94 0.80 0.63 0.49 0.56 0.68 0.67 0.28 0.20 0.18 0.17 0.34 0.13 0.12 0.16 0.10 0.03 0.00 0.00 0.00 0.00 0.00 0.00 0.00 0.00 0.00 0.00 0.00 0.00 0.00 0.00 0.00 0.00 0.00 0.00 0.00
0.28 0.21 0.14 0.09 0.08 0.10 0.10 0.12 0.16 0.19 0.22 0.17 0.18 0.19 0.28 0.34 0.63 0.92 0.77 0.96 0.62 0.38 0.42 0.40 0.53 0.51 0.28 0.21 0.16 0.33 0.35 0.20 0.16 0.10 0.08 0.03 0.01 0.00 0.00 0.00 0.00 0.00 0.00 0.00 0.00 0.00 0.00 0.00 0.00 0.00 0.00 0.00 0.00 0.00
0.16 0.10 0.08 0.08 0.11 0.11 0.09 0.13 0.16 0.20 0.14 0.16 0.18 0.28 0.51 0.67 0.98 0.89 0.90 1.15 0.77 0.51 0.42 0.16 0.16 0.46 0.43 0.34 0.15 0.14 0.31 0.31 0.21 0.12 0.05 0.07 0.07 0.02 0.00 0.00 0.00 0.00 0.00 0.00 0.00 0.00 0.00 0.00 0.00 0.00 0.00 0.00 0.00 0.01
0.12 0.08 0.07 0.08 0.13 0.16 0.14 0.12 0.12 0.14 0.16 0.25 0.48 0.61 0.72 0.79 0.87 0.79 1.00 1.01 0.80 0.50 0.37 0.17 0.11 0.18 0.33 0.52 0.38 0.13 0.16 0.23 0.28 0.27 0.14 0.05 0.03 0.04 0.01 0.00 0.00 0.00 0.00 0.00 0.00 0.00 0.00 0.00 0.00 0.00 0.00 0.01 0.02 0.05
0.06 0.06 0.06 0.06 0.10 0.16 0.11 0.10 0.10 0.13 0.30 0.45 0.45 0.68 0.75 0.85 0.99 0.96 0.85 0.56 0.46 0.27 0.13 0.20 0.18 0.14 0.16 0.34 0.52 0.24 0.17 0.13 0.10 0.16 0.19 0.20 0.05 0.00 0.00 0.00 0.00 0.01 0.00 0.00 0.00 0.00 0.00 0.00 0.00 0.01 0.03 0.04 0.03 0.01
0.15 0.08 0.06 0.04 0.04 0.09 0.11 0.09 0.11 0.19 0.32 0.41 0.57 0.62 0.85 0.95 0.75 0.59 0.47 0.29 0.15 0.08 0.03 0.07 0.22 0.24 0.11 0.16 0.38 0.39 0.12 0.13 0.06 0.03 0.08 0.10 0.05 0.00 0.00 0.00 0.00 0.00 0.00 0.00 0.00 0.00 0.00 0.00 0.01 0.01 0.01 0.00 0.00 0.00
0.18 0.15 0.10 0.05 0.04 0.05 0.12 0.17 0.27 0.45 0.64 0.60 0.41 0.58 0.54 0.45 0.40 0.31 0.20 0.09 0.03 0.02 0.02 0.02 0.04 0.20 0.13 0.05 0.14 0.20 0.19 0.09 0.05 0.03 0.02 0.01 0.01 0.03 0.01 0.01 0.00 0.00 0.00 0.01 0.02 0.03 0.03 0.03 0.03 0.02 0.01 0.00 0.00 0.00
0.10 0.10 0.15 0.20 0.23 0.22 0.28 0.31 0.51 0.71 0.63 0.40 0.46 0.39 0.30 0.26 0.16 0.15 0.09 0.03 0.01 0.02 0.02 0.01 0.00 0.05 0.16 0.10 0.16 0.12 0.13 0.10 0.10 0.05 0.01 0.03 0.06 0.03 0.01 0.00 0.00 0.01 0.01 0.01 0.01 0.02 0.04 0.05 0.05 0.04 0.01 0.00 0.00 0.00
0.16 0.19 0.22 0.28 0.28 0.24 0.27 0.33 0.52 0.41 0.23 0.33 0.35 0.26 0.13 0.11 0.10 0.10 0.07 0.03 0.04 0.04 0.02 0.02 0.04 0.04 0.09 0.21 0.18 0.18 0.15 0.10 0.06 0.02 0.02 0.06 0.05 0.02 0.01 0.01 0.02 0.04 0.07 0.10 0.11 0.09 0.06 0.04 0.02 0.02 0.01 0.00 0.00 0.00
0.15 0.16 0.17 0.22 0.20 0.20 0.35 0.45 0.39 0.23 0.23 0.28 0.29 0.21 0.11 0.06 0.08 0.07 0.06 0.05 0.04 0.04 0.02 0.05 0.10 0.10 0.15 0.10 0.10 0.11 0.11 0.08 0.07 0.05 0.05 0.06 0.07 0.10 0.10 0.11 0.14 0.13 0.10 0.07 0.07 0.04 0.02 0.01 0.01 0.01 0.00 0.00 0.00 0.00
0.06 0.06 0.15 0.14 0.15 0.17 0.17 0.15 0.12 0.18 0.29 0.23 0.39 0.42 0.28 0.20 0.23 0.23 0.19 0.13 0.09 0.08 0.12 0.11 0.13 0.16 0.18 0.14 0.12 0.13 0.18 0.18 0.20 0.18 0.15 0.14 0.18 0.19 0.19 0.20 0.17 0.10 0.06 0.04 0.03 0.02 0.01 0.00 0.00 0.00 0.00 0.00 0.00 0.00
0.07 0.04 0.05 0.06 0.03 0.01 0.01 0.01 0.02 0.05 0.14 0.26 0.30 0.46 0.35 0.39 0.35 0.32 0.30 0.23 0.17 0.17 0.18 0.24 0.23 0.27 0.31 0.28 0.28 0.33 0.38 0.39 0.33 0.22 0.20 0.22 0.19 0.17 0.18 0.16 0.17 0.11 0.05 0.03 0.01 0.01 0.01 0.00 0.00 0.00 0.00 0.00 0.00 0.00
0.06 0.04 0.04 0.03 0.03 0.06 0.04 0.01 0.00 0.07 0.25 0.29 0.30 0.22 0.15 0.20 0.21 0.23 0.23 0.22 0.16 0.10 0.10 0.13 0.16 0.25 0.33 0.36 0.41 0.40 0.35 0.24 0.14 0.10 0.13 0.17 0.18 0.18 0.20 0.21 0.20 0.16 0.09 0.05 0.02 0.02 0.03 0.04 0.03 0.02 0.01 0.01 0.01 0.00
0.00 0.00 0.00 0.01 0.02 0.04 0.04 0.00 0.00 0.03 0.18 0.26 0.21 0.08 0.04 0.05 0.03 0.01 0.00 0.00 0.00 0.00 0.03 0.13 0.27 0.32 0.32 0.34 0.32 0.29 0.23 0.17 0.13 0.08 0.12 0.16 0.19 0.18 0.22 0.18 0.16 0.14 0.11 0.11 0.11 0.09 0.09 0.09 0.08 0.04 0.02 0.02 0.01 0.00
0.00 0.00 0.00 0.00 0.00 0.00 0.00 0.00 0.02 0.02 0.05 0.07 0.08 0.02 0.01 0.00 0.00 0.00 0.00 0.00 0.01 0.06 0.18 0.30 0.29 0.29 0.25 0.24 0.25 0.25 0.26 0.25 0.27 0.16 0.14 0.14 0.19 0.16 0.19 0.22 0.18 0.16 0.15 0.17 0.15 0.15 0.13 0.10 0.07 0.05 0.03 0.02 0.01 0.01
0.00 0.00 0.00 0.00 0.00 0.00 0.00 0.00 0.01 0.00 0.00 0.00 0.00 0.00 0.01 0.01 0.01 0.00 0.00 0.02 0.09 0.21 0.21 0.21 0.18 0.14 0.10 0.11 0.11 0.11 0.16 0.17 0.23 0.29 0.29 0.25 0.27 0.27 0.30 0.31 0.22 0.23 0.22 0.20 0.17 0.13 0.09 0.06 0.04 0.02 0.01 0.01 0.00 0.00
0.00 0.00 0.00 0.00 0.00 0.00 0.00 0.00 0.00 0.00 0.00 0.00 0.01 0.01 0.01 0.01 0.01 0.01 0.03 0.06 0.16 0.26 0.21 0.09 0.07 0.09 0.12 0.17 0.14 0.15 0.18 0.17 0.23 0.31 0.34 0.32 0.31 0.30 0.24 0.22 0.19 0.14 0.10 0.09 0.06 0.04 0.02 0.01 0.00 0.00 0.00 0.00 0.00 0.00
0.00 0.00 0.00 0.00 0.00 0.00 0.00 0.00 0.00 0.00 0.00 0.00 0.00 0.01 0.03 0.02 0.00 0.02 0.04 0.08 0.17 0.11 0.09 0.13 0.11 0.11 0.12 0.15 0.19 0.26 0.31 0.25 0.22 0.22 0.22 0.16 0.13 0.13 0.08 0.06 0.04 0.03 0.02 0.01 0.00 0.00 0.00 0.00 0.00 0.00 0.00 0.00 0.00 0.00
0.00 0.00 0.00 0.00 0.00 0.00 0.00 0.01 0.01 0.00 0.00 0.01 0.01 0.02 0.02 0.01 0.02 0.03 0.05 0.12 0.09 0.11 0.17 0.21 0.16 0.17 0.19 0.22 0.23 0.21 0.17 0.10 0.08 0.08 0.09 0.06 0.04 0.02 0.01 0.00 0.00 0.00 0.00 0.00 0.00 0.00 0.00 0.00 0.00 0.00 0.00 0.00 0.01 0.01
0.01 0.01 0.01 0.01 0.01 0.01 0.01 0.01 0.01 0.01 0.01 0.02 0.03 0.03 0.02 0.04 0.04 0.06 0.09 0.13 0.11 0.14 0.18 0.23 0.25 0.19 0.17 0.14 0.11 0.09 0.07 0.03 0.01 0.00 0.01 0.01 0.01 0.00 0.00 0.00 0.00 0.00 0.00 0.00 0.00 0.00 0.00 0.00 0.00 0.00 0.00 0.00 0.01 0.02
0.01 0.01 0.01 0.01 0.01 0.01 0.01 0.01 0.01 0.02 0.04 0.05 0.05 0.04 0.07 0.10 0.07 0.11 0.12 0.13 0.15 0.20 0.20 0.19 0.14 0.10 0.10 0.08 0.06 0.04 0.01 0.00 0.00 0.00 0.00 0.00 0.00 0.00 0.00 0.00 0.00 0.01 0.00 0.01 0.01 0.01 0.01 0.01 0.01 0.01 0.01 0.01 0.02 0.02
0.01 0.01 0.01 0.01 0.01 0.01 0.02 0.03 0.03 0.06 0.08 0.06 0.07 0.04 0.04 0.07 0.12 0.15 0.17 0.21 0.16 0.13 0.09 0.08 0.06 0.03 0.03 0.04 0.05 0.04 0.02 0.01 0.00 0.00 0.00 0.01 0.00 0.00 0.00 0.00 0.00 0.00 0.00 0.00 0.00 0.01 0.01 0.02 0.02 0.02 0.02 0.01 0.01 0.01
0.02 0.01 0.01 0.00 0.01 0.02 0.05 0.07 0.07 0.06 0.05 0.03 0.05 0.06 0.05 0.07 0.13 0.15 0.16 0.18 0.15 0.11 0.07 0.06 0.09 0.06 0.03 0.01 0.00 0.00 0.00 0.00 0.00 0.00 0.00 0.01 0.02 0.01 0.00 0.01 0.01 0.00 0.01 0.01 0.00 0.00 0.01 0.03 0.03 0.02 0.01 0.01 0.02 0.03
0.01 0.01 0.01 0.01 0.01 0.04 0.06 0.04 0.06 0.05 0.01 0.02 0.03 0.04 0.04 0.10 0.16 0.14 0.11 0.09 0.08 0.09 0.08 0.08 0.08 0.05 0.05 0.03 0.01 0.00 0.01 0.00 0.00 0.00 0.00 0.00 0.00 0.01 0.01 0.01 0.01 0.01 0.01 0.01 0.01 0.00 0.00 0.00 0.00 0.00 0.01 0.01 0.02 0.02
0.00 0.01 0.01 0.01 0.04 0.05 0.05 0.03 0.04 0.06 0.04 0.03 0.04 0.04 0.05 0.08 0.09 0.06 0.06 0.09 0.06 0.06 0.05 0.04 0.02 0.01 0.00 0.00 0.00 0.00 0.01 0.01 0.01 0.00 0.00 0.00 0.01 0.01 0.01 0.01 0.01 0.01 0.01 0.01 0.01 0.01 0.01 0.00 0.01 0.01 0.01 0.01 0.01 0.01
0.00 0.01 0.01 0.01 0.05 0.05 0.04 0.04 0.05 0.10 0.09 0.06 0.06 0.04 0.06 0.06 0.04 0.05 0.04 0.04 0.03 0.02 0.02 0.02 0.01 0.01 0.01 0.00 0.00 0.00 0.00 0.00 0.00 0.00 0.01 0.01 0.01 0.01 0.01 0.01 0.01 0.02 0.02 0.01 0.01 0.01 0.01 0.01 0.01 0.01 0.01 0.01 0.01 0.00
0.01 0.00 0.00 0.01 0.03 0.04 0.03 0.02 0.04 0.03 0.04 0.04 0.05 0.05 0.05 0.04 0.05 0.07 0.06 0.03 0.02 0.01 0.01 0.01 0.01 0.02 0.02 0.00 0.00 0.00 0.00 0.00 0.00 0.00 0.01 0.01 0.01 0.01 0.00 0.01 0.01 0.01 0.01 0.00 0.00 0.01 0.01 0.01 0.01 0.01 0.01 0.00 0.00 0.00

GFSWCAN_prec_precacc_030.txt.gz
Total_Precipitation_Accumulation
0.45 0.57 0.68 0.47 0.49 0.47 0.47 0.38 0.42 0.40 0.39 0.28 0.24 0.23 0.29 0.21 0.19 0.27 0.36 0.59 1.02 0.65 0.19 0.26 0.13 0.07 0.02 0.00 0.04 0.03 0.14 0.12 0.09 0.08 0.04 0.02 0.01 0.00 0.00 0.00 0.00 0.00 0.00 0.00 0.00 0.00 0.00 0.00 0.00 0.00 0.00 0.00 0.00 0.00
0.57 0.62 0.53 0.42 0.39 0.40 0.39 0.35 0.38 0.32 0.33 0.22 0.19 0.15 0.20 0.24 0.24 0.30 0.39 0.44 0.75 0.93 0.37 0.35 0.14 0.04 0.00 0.00 0.01 0.01 0.06 0.03 0.04 0.04 0.02 0.04 0.01 0.00 0.00 0.00 0.00 0.00 0.00 0.00 0.00 0.00 0.00 0.00 0.00 0.00 0.00 0.00 0.00 0.00
0.49 0.49 0.43 0.34 0.31 0.33 0.34 0.36 0.33 0.28 0.26 0.17 0.17 0.15 0.20 0.28 0.19 0.30 0.41 0.42 1.18 0.89 0.57 0.23 0.22 0.05 0.00 0.00 0.01 0.03 0.01 0.03 0.05 0.04 0.05 0.04 0.02 0.00 0.00 0.00 0.00 0.00 0.00 0.00 0.00 0.00 0.00 0.00 0.00 0.00 0.00 0.00 0.00 0.00
0.37 0.36 0.32 0.27 0.29 0.33 0.38 0.32 0.26 0.27 0.21 0.17 0.18 0.18 0.25 0.28 0.21 0.39 0.43 0.74 1.86 0.88 1.00 0.49 0.31 0.14 0.10 0.02 0.00 0.02 0.02 0.02 0.06 0.09 0.06 0.04 0.02 0.01 0.01 0.00 0.00 0.00 0.00 0.00 0.00 0.00 0.00 0.00 0.00 0.00 0.00 0.00 0.00 0.00
0.29 0.28 0.26 0.25 0.25 0.29 0.28 0.23 0.24 0.25 0.19 0.20 0.23 0.24 0.32 0.33 0.31 0.48 0.50 1.10 1.39 1.03 0.83 0.82 0.22 0.25 0.19 0.15 0.03 0.06 0.05 0.04 0.09 0.11 0.07 0.03 0.01 0.02 0.01 0.00 0.00 0.00 0.00 0.00 0.00 0.00 0.00 0.00 0.00 0.00 0.00 0.00 0.00 0.00
0.25 0.22 0.19 0.17 0.19 0.18 0.17 0.19 0.22 0.23 0.19 0.21 0.25 0.31 0.33 0.28 0.39 0.74 1.12 1.00 0.95 0.72 0.85 1.02 0.43 0.21 0.32 0.28 0.22 0.09 0.12 0.12 0.09 0.09 0.04 0.02 0.01 0.01 0.00 0.00 0.00 0.00 0.01 0.01 0.00 0.00 0.00 0.00 0.00 0.00 0.00 0.00 0.00 0.00
0.33 0.26 0.17 0.11 0.09 0.11 0.11 0.14 0.19 0.21 0.20 0.25 0.25 0.31 0.33 0.28 0.43 0.95 1.00 0.86 0.68 0.60 0.72 0.80 0.73 0.33 0.33 0.45 0.43 0.48 0.17 0.14 0.16 0.12 0.05 0.02 0.01 0.01 0.00 0.00 0.00 0.00 0.00 0.00 0.00 0.00 0.00 0.00 0.00 0.00 0.00 0.00 0.00 0.00
0.28 0.21 0.14 0.10 0.09 0.11 0.11 0.13 0.17 0.21 0.24 0.21 0.22 0.24 0.35 0.37 0.66 1.01 0.84 1.06 0.65 0.51 0.56 0.52 0.64 0.56 0.34 0.49 0.49 0.54 0.53 0.26 0.20 0.12 0.08 0.04 0.02 0.00 0.00 0.00 0.00 0.00 0.00 0.00 0.00 0.00 0.00 0.00 0.00 0.00 0.00 0.00 0.00 0.00
0.16 0.11 0.08 0.08 0.11 0.11 0.10 0.14 0.16 0.20 0.15 0.17 0.21 0.37 0.62 0.75 1.06 1.01 0.99 1.22 0.82 0.63 0.51 0.20 0.25 0.51 0.47 0.47 0.25 0.30 0.59 0.50 0.25 0.13 0.05 0.08 0.08 0.02 0.00 0.00 0.00 0.00 0.00 0.00 0.00 0.00 0.00 0.00 0.00 0.00 0.00 0.00 0.00 0.01
0.12 0.08 0.07 0.08 0.13 0.17 0.16 0.13 0.12 0.15 0.17 0.31 0.58 0.79 0.83 0.82 1.00 0.96 1.14 1.28 1.06 0.63 0.46 0.26 0.14 0.20 0.33 0.57 0.54 0.35 0.32 0.32 0.33 0.28 0.15 0.06 0.04 0.04 0.01 0.00 0.00 0.00 0.00 0.00 0.00 0.00 0.00 0.00 0.00 0.00 0.00 0.01 0.02 0.05
0.07 0.08 0.08 0.08 0.12 0.17 0.11 0.10 0.11 0.16 0.40 0.57 0.61 0.78 0.78 1.05 1.14 1.09 0.98 0.73 0.72 0.40 0.16 0.21 0.22 0.31 0.18 0.34 0.56 0.46 0.47 0.19 0.12 0.17 0.20 0.22 0.07 0.00 0.00 0.01 0.01 0.01 0.01 0.01 0.00 0.00 0.00 0.00 0.00 0.01 0.03 0.04 0.03 0.01
0.18 0.12 0.10 0.07 0.05 0.10 0.11 0.09 0.12 0.24 0.40 0.51 0.67 0.68 0.94 1.06 0.77 0.64 0.55 0.46 0.36 0.15 0.04 0.08 0.23 0.32 0.19 0.19 0.39 0.51 0.31 0.30 0.09 0.03 0.08 0.12 0.08 0.05 0.04 0.03 0.02 0.03 0.05 0.07 0.06 0.04 0.04 0.03 0.02 0.02 0.02 0.01 0.01 0.02
0.20 0.17 0.12 0.06 0.05 0.06 0.13 0.25 0.40 0.63 0.86 0.76 0.48 0.62 0.62 0.55 0.45 0.34 0.30 0.35 0.23 0.05 0.04 0.03 0.04 0.30 0.30 0.19 0.18 0.37 0.45 0.24 0.10 0.10 0.10 0.07 0.03 0.05 0.09 0.13 0.13 0.12 0.10 0.09 0.09 0.09 0.07 0.07 0.06 0.04 0.05 0.08 0.12 0.18
0.11 0.12 0.16 0.21 0.25 0.29 0.52 0.64 0.96 1.15 0.85 0.49 0.50 0.46 0.57 0.45 0.34 0.27 0.30 0.30 0.11 0.05 0.07 0.03 0.01 0.12 0.39 0.34 0.25 0.17 0.27 0.24 0.29 0.25 0.16 0.14 0.16 0.13 0.11 0.10 0.07 0.07 0.05 0.05 0.06 0.08 0.13 0.18 0.24 0.26 0.26 0.25 0.22 0.20
0.16 0.20 0.23 0.32 0.40 0.53 0.71 0.84 1.04 0.67 0.33 0.44 0.57 0.62 0.45 0.42 0.42 0.47 0.38 0.25 0.17 0.15 0.09 0.10 0.11 0.05 0.17 0.50 0.43 0.27 0.23 0.18 0.16 0.16 0.19 0.26 0.26 0.23 0.20 0.17 0.15 0.14 0.15 0.19 0.23 0.24 0.28 0.25 0.20 0.23 0.23 0.20 0.16 0.14
0.15 0.17 0.21 0.29 0.37 0.48 0.66 0.71 0.66 0.44 0.39 0.53 0.64 0.51 0.42 0.39 0.41 0.40 0.30 0.23 0.22 0.19 0.12 0.18 0.20 0.11 0.17 0.15 0.22 0.20 0.19 0.15 0.17 0.21 0.26 0.29 0.32 0.36 0.37 0.40 0.45 0.43 0.41 0.36 0.32 0.24 0.19 0.17 0.13 0.11 0.12 0.10 0.08 0.06
0.07 0.09 0.19 0.23 0.35 0.46 0.50 0.44 0.32 0.29 0.45 0.44 0.63 0.70 0.57 0.44 0.46 0.45 0.37 0.26 0.19 0.13 0.16 0.14 0.15 0.20 0.20 0.15 0.14 0.16 0.27 0.37 0.44 0.42 0.40 0.40 0.46 0.49 0.49 0.47 0.41 0.31 0.24 0.21 0.19 0.17 0.15 0.13 0.08 0.04 0.04 0.04 0.02 0.01
0.13 0.10 0.18 0.22 0.22 0.26 0.20 0.08 0.07 0.13 0.20 0.38 0.41 0.60 0.45 0.49 0.43 0.39 0.37 0.29 0.20 0.18 0.19 0.26 0.26 0.32 0.37 0.34 0.35 0.43 0.49 0.55 0.55 0.42 0.39 0.43 0.41 0.40 0.41 0.36 0.35 0.26 0.18 0.17 0.14 0.14 0.12 0.09 0.05 0.05 0.03 0.02 0.01 0.01
0.34 0.26 0.28 0.23 0.23 0.13 0.08 0.02 0.01 0.10 0.33 0.36 0.35 0.24 0.16 0.20 0.21 0.25 0.23 0.22 0.16 0.10 0.10 0.13 0.17 0.27 0.39 0.45 0.51 0.51 0.49 0.37 0.30 0.25 0.27 0.34 0.36 0.37 0.39 0.37 0.34 0.28 0.19 0.15 0.11 0.11 0.12 0.12 0.12 0.11 0.09 0.07 0.07 0.07
0.35 0.29 0.28 0.24 0.15 0.14 0.15 0.01 0.00 0.05 0.24 0.31 0.22 0.08 0.04 0.05 0.03 0.01 0.00 0.00 0.00 0.00 0.04 0.15 0.33 0.41 0.42 0.45 0.45 0.41 0.36 0.31 0.26 0.18 0.19 0.26 0.33 0.30 0.35 0.30 0.28 0.25 0.19 0.19 0.19 0.17 0.15 0.16 0.16 0.12 0.10 0.08 0.07 0.06
0.16 0.12 0.08 0.04 0.01 0.02 0.04 0.01 0.04 0.04 0.07 0.09 0.09 0.02 0.01 0.00 0.00 0.00 0.00 0.00 0.01 0.07 0.23 0.38 0.38 0.40 0.36 0.36 0.36 0.36 0.37 0.35 0.36 0.22 0.19 0.20 0.28 0.23 0.27 0.31 0.26 0.22 0.20 0.23 0.20 0.21 0.17 0.15 0.13 0.10 0.07 0.06 0.05 0.05
0.02 0.01 0.00 0.00 0.00 0.00 0.00 0.00 0.02 0.01 0.00 0.01 0.00 0.00 0.01 0.01 0.01 0.00 0.00 0.02 0.12 0.29 0.30 0.28 0.26 0.21 0.16 0.18 0.19 0.18 0.26 0.23 0.28 0.33 0.33 0.29 0.30 0.29 0.33 0.37 0.26 0.26 0.26 0.25 0.21 0.16 0.12 0.09 0.06 0.04 0.02 0.01 0.01 0.00
0.00 0.00 0.00 0.00 0.00 0.00 0.00 0.00 0.00 0.00 0.00 0.00 0.01 0.01 0.01 0.01 0.01 0.01 0.03 0.08 0.20 0.33 0.29 0.14 0.12 0.13 0.16 0.23 0.17 0.17 0.20 0.19 0.24 0.33 0.35 0.33 0.32 0.31 0.26 0.23 0.20 0.15 0.11 0.10 0.07 0.04 0.02 0.01 0.00 0.00 0.00 0.00 0.00 0.00
0.00 0.00 0.00 0.00 0.00 0.00 0.00 0.00 0.00 0.00 0.00 0.00 0.00 0.02 0.04 0.02 0.00 0.02 0.04 0.10 0.23 0.16 0.12 0.16 0.14 0.12 0.13 0.15 0.19 0.26 0.32 0.25 0.22 0.22 0.22 0.16 0.13 0.13 0.08 0.06 0.04 0.03 0.02 0.01 0.00 0.00 0.00 0.00 0.00 0.00 0.00 0.00 0.00 0.00
0.00 0.00 0.00 0.00 0.00 0.00 0.00 0.01 0.01 0.00 0.01 0.01 0.02 0.04 0.03 0.01 0.02 0.03 0.05 0.14 0.12 0.13 0.20 0.23 0.17 0.17 0.20 0.23 0.24 0.22 0.17 0.10 0.08 0.08 0.09 0.06 0.04 0.02 0.01 0.00 0.00 0.00 0.00 0.00 0.00 0.00 0.00 0.00 0.00 0.00 0.00 0.00 0.01 0.01
0.01 0.02 0.01 0.01 0.01 0.01 0.01 0.01 0.01 0.02 0.02 0.02 0.04 0.04 0.02 0.04 0.04 0.07 0.10 0.14 0.13 0.16 0.20 0.25 0.26 0.19 0.17 0.15 0.11 0.09 0.07 0.03 0.01 0.00 0.01 0.01 0.01 0.00 0.00 0.00 0.00 0.01 0.01 0.01 0.01 0.00 0.00 0.00 0.00 0.00 0.00 0.00 0.01 0.02
0.01 0.01 0.01 0.02 0.01 0.01 0.01 0.01 0.01 0.02 0.04 0.05 0.06 0.04 0.07 0.10 0.08 0.13 0.14 0.14 0.16 0.21 0.21 0.19 0.14 0.11 0.10 0.08 0.06 0.04 0.01 0.00 0.00 0.00 0.00 0.00 0.00 0.00 0.00 0.00 0.01 0.01 0.01 0.01 0.01 0.01 0.01 0.01 0.01 0.01 0.01 0.02 0.02 0.02
0.02 0.01 0.01 0.01 0.01 0.01 0.02 0.03 0.04 0.07 0.08 0.06 0.07 0.05 0.04 0.07 0.13 0.16 0.19 0.23 0.16 0.13 0.09 0.08 0.06 0.04 0.04 0.04 0.06 0.04 0.02 0.01 0.00 0.00 0.00 0.01 0.00 0.00 0.00 0.01 0.00 0.00 0.00 0.00 0.00 0.01 0.02 0.02 0.03 0.02 0.02 0.02 0.01 0.01
0.02 0.01 0.01 0.00 0.01 0.02 0.05 0.07 0.07 0.07 0.06 0.04 0.05 0.06 0.06 0.08 0.15 0.16 0.19 0.19 0.16 0.11 0.07 0.06 0.09 0.06 0.03 0.01 0.00 0.00 0.00 0.00 0.00 0.00 0.00 0.01 0.02 0.01 0.01 0.01 0.01 0.00 0.01 0.01 0.00 0.00 0.01 0.03 0.03 0.02 0.01 0.01 0.02 0.03
0.01 0.01 0.01 0.01 0.01 0.05 0.07 0.05 0.06 0.05 0.01 0.02 0.03 0.04 0.04 0.11 0.19 0.16 0.13 0.10 0.09 0.09 0.09 0.08 0.08 0.05 0.05 0.03 0.01 0.00 0.01 0.00 0.00 0.00 0.00 0.00 0.01 0.01 0.01 0.02 0.01 0.01 0.01 0.01 0.01 0.00 0.00 0.00 0.00 0.00 0.01 0.01 0.02 0.02
0.00 0.01 0.01 0.01 0.04 0.06 0.05 0.03 0.04 0.06 0.04 0.03 0.04 0.04 0.06 0.09 0.11 0.07 0.07 0.09 0.06 0.06 0.05 0.04 0.02 0.01 0.00 0.00 0.00 0.00 0.01 0.01 0.01 0.01 0.01 0.01 0.01 0.01 0.02 0.01 0.02 0.02 0.02 0.01 0.01 0.01 0.01 0.00 0.01 0.01 0.01 0.01 0.01 0.01
0.00 0.01 0.01 0.01 0.06 0.06 0.05 0.05 0.05 0.10 0.09 0.06 0.06 0.04 0.06 0.06 0.05 0.05 0.04 0.05 0.03 0.02 0.02 0.02 0.02 0.02 0.01 0.00 0.00 0.00 0.00 0.00 0.00 0.00 0.01 0.01 0.01 0.01 0.01 0.01 0.01 0.02 0.02 0.01 0.01 0.01 0.01 0.01 0.01 0.01 0.01 0.01 0.01 0.00
0.01 0.00 0.00 0.01 0.04 0.05 0.04 0.04 0.05 0.04 0.04 0.04 0.05 0.05 0.06 0.04 0.05 0.07 0.06 0.03 0.02 0.01 0.01 0.01 0.02 0.02 0.02 0.00 0.00 0.00 0.00 0.00 0.00 0.00 0.02 0.02 0.01 0.01 0.01 0.01 0.01 0.01 0.01 0.00 0.00 0.01 0.01 0.01 0.01 0.01 0.01 0.00 0.00 0.00

GFSWCAN_prec_precacc_033.txt.gz
Total_Precipitation_Accumulation
0.47 0.58 0.69 0.48 0.52 0.48 0.50 0.47 0.48 0.47 0.43 0.31 0.29 0.25 0.40 0.39 0.45 0.41 0.39 0.60 1.05 0.69 0.25 0.32 0.19 0.12 0.03 0.02 0.07 0.05 0.19 0.15 0.11 0.08 0.04 0.02 0.02 0.00 0.00 0.00 0.04 0.02 0.01 0.02 0.01 0.02 0.00 0.00 0.00 0.00 0.00 0.00 0.00 0.00
0.58 0.63 0.53 0.43 0.41 0.42 0.41 0.38 0.45 0.36 0.37 0.24 0.21 0.16 0.27 0.38 0.56 0.42 0.41 0.45 0.77 1.00 0.44 0.36 0.16 0.09 0.02 0.00 0.01 0.03 0.08 0.03 0.04 0.04 0.02 0.04 0.03 0.02 0.00 0.00 0.00 0.02 0.03 0.03 0.00 0.00 0.00 0.00 0.00 0.00 0.00 0.00 0.00 0.00
0.49 0.49 0.44 0.35 0.31 0.34 0.36 0.40 0.36 0.31 0.28 0.18 0.18 0.16 0.29 0.50 0.49 0.34 0.42 0.43 1.21 0.95 0.61 0.24 0.23 0.06 0.01 0.00 0.01 0.06 0.02 0.03 0.05 0.04 0.05 0.04 0.02 0.01 0.00 0.00 0.00 0.00 0.00 0.00 0.00 0.00 0.00 0.00 0.00 0.00 0.00 0.00 0.00 0.00
0.38 0.36 0.32 0.28 0.30 0.35 0.39 0.33 0.27 0.28 0.22 0.17 0.18 0.22 0.41 0.56 0.37 0.40 0.44 0.75 1.87 0.91 1.03 0.51 0.35 0.15 0.11 0.02 0.00 0.03 0.03 0.02 0.06 0.09 0.07 0.04 0.02 0.01 0.01 0.00 0.00 0.00 0.00 0.00 0.00 0.00 0.00 0.00 0.00 0.00 0.00 0.00 0.00 0.00
0.31 0.28 0.26 0.25 0.25 0.29 0.29 0.24 0.26 0.28 0.20 0.22 0.27 0.34 0.55 0.49 0.37 0.49 0.53 1.11 1.39 1.06 0.85 0.83 0.22 0.26 0.19 0.16 0.04 0.06 0.07 0.05 0.10 0.12 0.07 0.03 0.01 0.02 0.01 0.00 0.00 0.00 0.00 0.00 0.00 0.00 0.00 0.00 0.00 0.00 0.00 0.00 0.00 0.00
0.27 0.24 0.20 0.17 0.20 0.19 0.17 0.21 0.24 0.25 0.22 0.27 0.35 0.48 0.47 0.31 0.40 0.77 1.19 1.02 0.96 0.75 0.87 1.03 0.44 0.22 0.34 0.30 0.23 0.10 0.12 0.14 0.11 0.11 0.05 0.02 0.01 0.01 0.00 0.00 0.00 0.00 0.01 0.01 0.00 0.00 0.00 0.00 0.00 0.00 0.00 0.00 0.00 0.00
0.35 0.28 0.19 0.13 0.11 0.13 0.15 0.19 0.24 0.25 0.27 0.36 0.40 0.42 0.36 0.28 0.44 0.97 1.03 0.87 0.68 0.60 0.72 0.81 0.80 0.37 0.39 0.50 0.48 0.53 0.19 0.15 0.21 0.16 0.07 0.03 0.01 0.01 0.00 0.00 0.00 0.00 0.00 0.00 0.00 0.00 0.00 0.00 0.00 0.00 0.00 0.00 0.00 0.00
0.29 0.22 0.16 0.12 0.12 0.14 0.14 0.16 0.21 0.26 0.31 0.28 0.27 0.27 0.37 0.39 0.68 1.03 0.85 1.06 0.65 0.51 0.56 0.56 0.76 0.68 0.61 0.85 0.62 0.62 0.59 0.31 0.23 0.14 0.09 0.06 0.05 0.02 0.00 0.00 0.00 0.00 0.00 0.00 0.00 0.00 0.00 0.00 0.00 0.00 0.00 0.00 0.00 0.00
0.17 0.11 0.09 0.09 0.12 0.13 0.12 0.16 0.18 0.23 0.17 0.20 0.24 0.41 0.66 0.77 1.08 1.03 1.00 1.22 0.83 0.64 0.53 0.26 0.41 0.74 0.83 0.86 0.58 0.46 0.74 0.58 0.30 0.16 0.06 0.09 0.10 0.06 0.01 0.00 0.00 0.00 0.00 0.00 0.00 0.00 0.00 0.00 0.00 0.00 0.00 0.00 0.00 0.01
0.12 0.09 0.08 0.08 0.13 0.17 0.16 0.13 0.13 0.15 0.18 0.31 0.59 0.80 0.85 0.83 1.01 0.98 1.16 1.30 1.07 0.65 0.49 0.33 0.25 0.42 0.48 0.80 0.78 0.51 0.46 0.45 0.38 0.30 0.17 0.08 0.05 0.05 0.01 0.00 0.00 0.00 0.00 0.00 0.00 0.00 0.00 0.00 0.00 0.00 0.00 0.01 0.02 0.05
0.07 0.08 0.08 0.09 0.12 0.17 0.11 0.10 0.11 0.16 0.40 0.58 0.61 0.80 0.80 1.10 1.33 1.26 1.02 0.75 0.75 0.42 0.17 0.23 0.26 0.39 0.27 0.46 0.65 0.63 0.74 0.29 0.15 0.20 0.23 0.25 0.08 0.01 0.00 0.01 0.01 0.01 0.01 0.01 0.00 0.00 0.00 0.00 0.00 0.01 0.03 0.04 0.03 0.01
0.19 0.13 0.11 0.08 0.06 0.10 0.12 0.09 0.13 0.25 0.43 0.53 0.71 0.75 1.09 1.22 0.94 0.67 0.56 0.48 0.37 0.15 0.06 0.09 0.23 0.33 0.21 0.20 0.40 0.54 0.41 0.42 0.13 0.05 0.13 0.17 0.11 0.05 0.04 0.03 0.02 0.03 0.05 0.07 0.06 0.04 0.04 0.03 0.02 0.02 0.02 0.01 0.01 0.03
0.20 0.17 0.12 0.07 0.05 0.06 0.14 0.26 0.41 0.65 0.86 0.81 0.54 0.68 0.66 0.56 0.46 0.35 0.31 0.36 0.24 0.05 0.04 0.04 0.06 0.30 0.31 0.19 0.18 0.37 0.46 0.26 0.14 0.15 0.18 0.13 0.05 0.06 0.09 0.13 0.14 0.12 0.10 0.09 0.09 0.09 0.08 0.08 0.08 0.06 0.07 0.11 0.16 0.25
0.11 0.12 0.16 0.21 0.25 0.29 0.53 0.65 0.97 1.17 0.86 0.52 0.51 0.46 0.61 0.48 0.37 0.28 0.31 0.31 0.11 0.05 0.07 0.06 0.02 0.13 0.41 0.38 0.29 0.20 0.31 0.27 0.33 0.30 0.21 0.16 0.19 0.16 0.14 0.14 0.12 0.13 0.13 0.14 0.15 0.17 0.22 0.26 0.33 0.41 0.45 0.46 0.41 0.41
0.16 0.20 0.23 0.32 0.40 0.53 0.71 0.85 1.05 0.68 0.39 0.47 0.58 0.65 0.51 0.49 0.47 0.50 0.40 0.26 0.18 0.15 0.12 0.12 0.14 0.14 0.24 0.62 0.51 0.32 0.27 0.20 0.18 0.18 0.22 0.30 0.31 0.28 0.27 0.29 0.31 0.34 0.39 0.45 0.47 0.45 0.47 0.42 0.33 0.38 0.39 0.35 0.28 0.25
0.15 0.18 0.24 0.31 0.42 0.51 0.72 0.74 0.66 0.45 0.46 0.57 0.71 0.59 0.49 0.47 0.48 0.46 0.35 0.26 0.24 0.24 0.18 0.27 0.33 0.16 0.21 0.17 0.29 0.26 0.22 0.17 0.20 0.25 0.31 0.36 0.39 0.44 0.45 0.49 0.55 0.55 0.53 0.49 0.46 0.37 0.31 0.27 0.20 0.18 0.19 0.16 0.15 0.11
0.07 0.12 0.26 0.31 0.42 0.48 0.52 0.44 0.32 0.34 0.55 0.56 0.77 0.85 0.72 0.59 0.63 0.61 0.50 0.38 0.31 0.22 0.27 0.22 0.20 0.21 0.21 0.15 0.15 0.19 0.32 0.43 0.48 0.47 0.47 0.49 0.55 0.58 0.59 0.54 0.48 0.37 0.31 0.29 0.26 0.23 0.21 0.19 0.12 0.07 0.08 0.10 0.07 0.06
0.13 0.11 0.20 0.24 0.23 0.28 0.21 0.09 0.08 0.16 0.29 0.52 0.53 0.76 0.61 0.68 0.63 0.57 0.53 0.42 0.32 0.24 0.23 0.27 0.26 0.32 0.38 0.35 0.37 0.47 0.54 0.61 0.60 0.48 0.46 0.53 0.52 0.50 0.50 0.44 0.43 0.33 0.24 0.23 0.19 0.19 0.18 0.14 0.09 0.10 0.08 0.06 0.03 0.03
0.36 0.30 0.33 0.27 0.26 0.14 0.10 0.06 0.02 0.13 0.40 0.42 0.41 0.31 0.22 0.28 0.27 0.28 0.26 0.24 0.18 0.11 0.10 0.13 0.17 0.28 0.41 0.47 0.54 0.55 0.54 0.43 0.34 0.31 0.34 0.42 0.44 0.45 0.45 0.42 0.37 0.31 0.21 0.18 0.13 0.13 0.15 0.15 0.14 0.13 0.11 0.08 0.08 0.08
0.43 0.38 0.36 0.29 0.18 0.15 0.16 0.07 0.01 0.06 0.26 0.32 0.22 0.08 0.04 0.06 0.03 0.01 0.00 0.00 0.00 0.00 0.04 0.15 0.35 0.44 0.46 0.48 0.48 0.44 0.40 0.36 0.31 0.22 0.23 0.31 0.38 0.34 0.39 0.32 0.31 0.28 0.21 0.20 0.20 0.18 0.16 0.16 0.16 0.13 0.10 0.09 0.08 0.07
0.26 0.16 0.11 0.05 0.05 0.04 0.06 0.04 0.05 0.05 0.08 0.10 0.10 0.02 0.01 0.00 0.00 0.00 0.00 0.00 0.01 0.07 0.25 0.41 0.41 0.43 0.39 0.39 0.39 0.38 0.40 0.37 0.39 0.25 0.22 0.22 0.31 0.24 0.29 0.32 0.28 0.22 0.20 0.23 0.20 0.21 0.17 0.15 0.14 0.10 0.07 0.07 0.06 0.05
0.04 0.01 0.00 0.00 0.00 0.00 0.00 0.00 0.03 0.02 0.00 0.01 0.00 0.00 0.01 0.01 0.01 0.00 0.00 0.02 0.14 0.32 0.33 0.30 0.28 0.23 0.18 0.20 0.21 0.20 0.28 0.23 0.29 0.33 0.34 0.29 0.30 0.30 0.34 0.38 0.27 0.27 0.26 0.25 0.21 0.16 0.12 0.09 0.06 0.04 0.02 0.01 0.01 0.00
0.00 0.00 0.00 0.00 0.00 0.00 0.00 0.00 0.00 0.00 0.00 0.00 0.01 0.01 0.01 0.01 0.01 0.01 0.03 0.09 0.22 0.37 0.31 0.15 0.13 0.13 0.16 0.24 0.17 0.17 0.21 0.19 0.24 0.33 0.35 0.33 0.32 0.31 0.26 0.23 0.20 0.15 0.11 0.10 0.07 0.04 0.02 0.01 0.00 0.00 0.00 0.00 0.00 0.00
0.00 0.00 0.00 0.00 0.00 0.00 0.00 0.00 0.00 0.00 0.00 0.00 0.00 0.02 0.04 0.02 0.00 0.02 0.04 0.11 0.25 0.17 0.13 0.17 0.14 0.12 0.13 0.15 0.19 0.26 0.32 0.25 0.22 0.22 0.22 0.16 0.13 0.13 0.08 0.06 0.04 0.03 0.02 0.01 0.00 0.00 0.00 0.00 0.00 0.00 0.00 0.00 0.00 0.00
0.00 0.00 0.00 0.00 0.00 0.00 0.00 0.01 0.01 0.00 0.01 0.01 0.02 0.04 0.03 0.01 0.02 0.03 0.06 0.15 0.13 0.14 0.21 0.23 0.17 0.18 0.20 0.23 0.24 0.22 0.17 0.10 0.08 0.08 0.09 0.06 0.04 0.02 0.01 0.00 0.00 0.00 0.00 0.00 0.00 0.00 0.00 0.00 0.00 0.00 0.00 0.00 0.01 0.01
0.01 0.02 0.01 0.01 0.01 0.01 0.01 0.01 0.01 0.02 0.02 0.02 0.04 0.04 0.02 0.04 0.04 0.07 0.10 0.15 0.14 0.17 0.21 0.26 0.27 0.20 0.18 0.15 0.11 0.09 0.07 0.03 0.01 0.00 0.01 0.01 0.01 0.00 0.00 0.00 0.00 0.01 0.01 0.01 0.01 0.00 0.00 0.00 0.00 0.00 0.00 0.00 0.01 0.02
0.01 0.02 0.01 0.02 0.01 0.01 0.01 0.01 0.01 0.02 0.04 0.06 0.06 0.04 0.07 0.10 0.08 0.14 0.15 0.15 0.17 0.22 0.22 0.20 0.15 0.11 0.10 0.08 0.06 0.04 0.01 0.00 0.00 0.00 0.00 0.00 0.00 0.00 0.00 0.00 0.01 0.01 0.01 0.01 0.01 0.01 0.01 0.01 0.01 0.01 0.01 0.02 0.02 0.02
0.02 0.01 0.01 0.01 0.01 0.01 0.02 0.03 0.04 0.07 0.09 0.06 0.07 0.05 0.04 0.07 0.13 0.17 0.20 0.23 0.16 0.13 0.09 0.08 0.06 0.04 0.04 0.04 0.06 0.04 0.02 0.01 0.00 0.00 0.00 0.01 0.00 0.00 0.00 0.01 0.00 0.00 0.00 0.00 0.01 0.01 0.02 0.03 0.03 0.03 0.02 0.02 0.01 0.01
0.02 0.01 0.01 0.00 0.01 0.02 0.05 0.08 0.08 0.07 0.06 0.04 0.05 0.06 0.06 0.09 0.16 0.18 0.20 0.20 0.16 0.11 0.08 0.07 0.09 0.06 0.03 0.01 0.00 0.00 0.00 0.00 0.00 0.00 0.00 0.01 0.02 0.01 0.01 0.01 0.01 0.01 0.01 0.01 0.00 0.00 0.02 0.03 0.03 0.02 0.01 0.01 0.02 0.04
0.01 0.01 0.01 0.01 0.01 0.05 0.07 0.05 0.07 0.05 0.02 0.02 0.03 0.04 0.05 0.12 0.20 0.17 0.13 0.11 0.09 0.10 0.09 0.08 0.08 0.05 0.05 0.03 0.01 0.00 0.01 0.00 0.00 0.00 0.00 0.00 0.01 0.01 0.01 0.02 0.02 0.01 0.02 0.01 0.01 0.00 0.00 0.00 0.00 0.00 0.01 0.01 0.02 0.02
0.00 0.01 0.01 0.01 0.04 0.06 0.05 0.03 0.04 0.06 0.04 0.04 0.04 0.04 0.06 0.10 0.11 0.08 0.07 0.10 0.07 0.06 0.06 0.04 0.02 0.01 0.00 0.00 0.00 0.00 0.01 0.01 0.01 0.01 0.01 0.01 0.01 0.01 0.02 0.02 0.02 0.02 0.02 0.01 0.01 0.01 0.01 0.00 0.01 0.01 0.01 0.01 0.01 0.01
0.00 0.01 0.01 0.01 0.06 0.06 0.05 0.06 0.06 0.10 0.09 0.06 0.06 0.05 0.07 0.06 0.05 0.06 0.05 0.05 0.03 0.03 0.02 0.02 0.02 0.02 0.01 0.00 0.00 0.00 0.00 0.00 0.00 0.00 0.01 0.01 0.01 0.02 0.01 0.01 0.02 0.02 0.02 0.01 0.01 0.01 0.01 0.01 0.01 0.01 0.01 0.01 0.01 0.00
0.01 0.00 0.00 0.01 0.04 0.05 0.05 0.04 0.05 0.04 0.04 0.04 0.05 0.06 0.06 0.04 0.05 0.07 0.06 0.03 0.02 0.01 0.01 0.02 0.02 0.02 0.02 0.00 0.00 0.00 0.00 0.00 0.00 0.00 0.02 0.02 0.01 0.01 0.01 0.01 0.01 0.01 0.01 0.00 0.00 0.01 0.01 0.01 0.01 0.01 0.01 0.00 0.00 0.00

GFSWCAN_prec_precacc_036.txt.gz
Total_Precipitation_Accumulation
0.48 0.59 0.69 0.48 0.52 0.48 0.50 0.48 0.50 0.54 0.48 0.35 0.37 0.31 0.47 0.42 0.49 0.55 0.55 0.67 1.12 0.78 0.28 0.34 0.21 0.13 0.04 0.02 0.09 0.06 0.25 0.23 0.24 0.13 0.06 0.03 0.02 0.00 0.00 0.00 0.08 0.13 0.10 0.04 0.05 0.04 0.00 0.00 0.00 0.00 0.00 0.00 0.00 0.00
0.59 0.63 0.53 0.43 0.41 0.42 0.41 0.41 0.47 0.39 0.46 0.28 0.26 0.20 0.34 0.43 0.59 0.57 0.54 0.54 0.83 1.11 0.54 0.37 0.19 0.10 0.02 0.00 0.01 0.03 0.11 0.11 0.15 0.12 0.02 0.04 0.03 0.02 0.01 0.00 0.00 0.04 0.12 0.09 0.02 0.00 0.00 0.00 0.00 0.00 0.00 0.00 0.00 0.00
0.51 0.49 0.44 0.36 0.32 0.34 0.37 0.41 0.37 0.32 0.31 0.21 0.23 0.21 0.37 0.55 0.55 0.48 0.52 0.56 1.35 1.08 0.72 0.27 0.25 0.07 0.01 0.00 0.01 0.12 0.04 0.05 0.07 0.07 0.06 0.05 0.04 0.01 0.01 0.00 0.00 0.00 0.01 0.03 0.04 0.01 0.01 0.00 0.00 0.00 0.00 0.00 0.00 0.00
0.39 0.36 0.33 0.29 0.30 0.35 0.40 0.33 0.28 0.30 0.24 0.22 0.25 0.26 0.45 0.59 0.44 0.50 0.53 0.88 1.92 0.93 1.10 0.59 0.37 0.16 0.11 0.02 0.03 0.08 0.05 0.04 0.10 0.10 0.07 0.07 0.04 0.01 0.01 0.00 0.00 0.00 0.03 0.00 0.00 0.00 0.02 0.01 0.01 0.00 0.00 0.00 0.00 0.00
0.31 0.28 0.26 0.25 0.25 0.30 0.30 0.26 0.28 0.30 0.22 0.25 0.28 0.37 0.59 0.56 0.47 0.61 0.58 1.17 1.40 1.07 0.88 0.87 0.23 0.26 0.19 0.16 0.04 0.11 0.14 0.10 0.24 0.24 0.09 0.04 0.01 0.02 0.01 0.00 0.00 0.00 0.00 0.00 0.00 0.00 0.00 0.00 0.01 0.01 0.01 0.01 0.00 0.00
0.28 0.24 0.20 0.17 0.20 0.20 0.21 0.25 0.28 0.27 0.23 0.28 0.38 0.54 0.55 0.40 0.54 0.85 1.32 1.12 0.97 0.77 0.92 1.07 0.45 0.22 0.34 0.30 0.23 0.12 0.17 0.19 0.18 0.19 0.09 0.02 0.01 0.01 0.00 0.00 0.00 0.00 0.01 0.01 0.00 0.00 0.00 0.00 0.00 0.03 0.01 0.01 0.00 0.00
0.37 0.28 0.19 0.13 0.11 0.14 0.16 0.21 0.25 0.27 0.29 0.40 0.46 0.49 0.41 0.32 0.47 0.99 1.08 0.89 0.68 0.62 0.74 0.82 0.80 0.38 0.39 0.51 0.49 0.55 0.22 0.19 0.29 0.24 0.09 0.04 0.02 0.01 0.00 0.00 0.00 0.00 0.00 0.00 0.00 0.00 0.00 0.00 0.00 0.00 0.00 0.00 0.00 0.00
0.34 0.25 0.17 0.13 0.13 0.16 0.15 0.18 0.25 0.31 0.35 0.32 0.34 0.34 0.44 0.42 0.71 1.04 0.85 1.06 0.65 0.51 0.57 0.56 0.78 0.71 0.62 0.86 0.65 0.64 0.63 0.37 0.27 0.20 0.12 0.07 0.06 0.08 0.03 0.00 0.00 0.00 0.00 0.00 0.00 0.00 0.00 0.00 0.00 0.00 0.00 0.00 0.00 0.00
0.20 0.15 0.12 0.12 0.15 0.16 0.17 0.21 0.22 0.26 0.21 0.23 0.28 0.44 0.69 0.80 1.12 1.04 1.00 1.22 0.85 0.66 0.53 0.27 0.46 0.99 0.98 0.92 0.62 0.51 0.81 0.64 0.31 0.18 0.08 0.12 0.15 0.12 0.03 0.00 0.00 0.00 0.00 0.00 0.00 0.00 0.00 0.00 0.00 0.00 0.00 0.00 0.00 0.01
0.14 0.11 0.10 0.10 0.15 0.20 0.19 0.16 0.14 0.16 0.19 0.32 0.61 0.82 0.89 0.85 1.02 0.98 1.16 1.30 1.07 0.66 0.49 0.34 0.31 0.68 0.90 0.91 0.83 0.57 0.53 0.49 0.40 0.31 0.18 0.10 0.08 0.07 0.01 0.00 0.00 0.00 0.00 0.00 0.00 0.00 0.00 0.00 0.00 0.00 0.00 0.01 0.02 0.05
0.08 0.09 0.11 0.11 0.14 0.19 0.13 0.11 0.12 0.17 0.41 0.59 0.64 0.83 0.82 1.10 1.34 1.28 1.02 0.76 0.76 0.42 0.17 0.24 0.32 0.64 0.80 0.71 0.68 0.71 0.82 0.34 0.19 0.22 0.28 0.26 0.09 0.02 0.00 0.01 0.01 0.01 0.01 0.01 0.00 0.00 0.00 0.00 0.00 0.01 0.03 0.04 0.03 0.01
0.19 0.13 0.11 0.10 0.08 0.13 0.14 0.11 0.14 0.28 0.45 0.55 0.72 0.76 1.10 1.30 1.03 0.71 0.58 0.49 0.38 0.17 0.10 0.16 0.37 0.70 0.71 0.55 0.52 0.73 0.66 0.50 0.22 0.09 0.21 0.31 0.16 0.06 0.05 0.03 0.02 0.03 0.05 0.07 0.06 0.04 0.04 0.03 0.02 0.02 0.02 0.01 0.01 0.03
0.20 0.18 0.13 0.07 0.06 0.06 0.14 0.27 0.41 0.65 0.91 0.87 0.59 0.74 0.78 0.70 0.53 0.40 0.33 0.37 0.25 0.06 0.05 0.09 0.26 0.55 0.56 0.41 0.33 0.46 0.70 0.56 0.27 0.21 0.26 0.19 0.07 0.07 0.10 0.14 0.14 0.12 0.10 0.09 0.09 0.09 0.08 0.08 0.08 0.06 0.07 0.11 0.16 0.27
0.11 0.12 0.16 0.21 0.25 0.30 0.53 0.65 0.97 1.17 0.89 0.58 0.56 0.49 0.65 0.52 0.41 0.32 0.34 0.33 0.12 0.06 0.07 0.08 0.06 0.16 0.43 0.45 0.34 0.23 0.39 0.44 0.47 0.34 0.25 0.19 0.21 0.18 0.16 0.17 0.15 0.17 0.17 0.17 0.18 0.19 0.25 0.30 0.40 0.49 0.54 0.58 0.54 0.57
0.16 0.20 0.23 0.32 0.40 0.53 0.71 0.85 1.05 0.68 0.39 0.47 0.59 0.67 0.52 0.53 0.49 0.51 0.41 0.27 0.18 0.16 0.14 0.18 0.18 0.16 0.25 0.67 0.52 0.34 0.28 0.22 0.20 0.22 0.26 0.35 0.35 0.32 0.31 0.33 0.36 0.41 0.47 0.54 0.59 0.58 0.62 0.58 0.49 0.54 0.55 0.51 0.42 0.38
0.15 0.18 0.24 0.31 0.42 0.51 0.72 0.74 0.66 0.45 0.46 0.57 0.73 0.62 0.50 0.48 0.49 0.46 0.35 0.26 0.25 0.25 0.24 0.32 0.41 0.20 0.23 0.19 0.30 0.28 0.23 0.20 0.25 0.29 0.35 0.41 0.45 0.50 0.51 0.55 0.62 0.62 0.61 0.58 0.55 0.47 0.41 0.37 0.31 0.30 0.30 0.27 0.26 0.20
0.07 0.12 0.26 0.31 0.43 0.49 0.52 0.44 0.33 0.37 0.60 0.61 0.83 0.89 0.75 0.61 0.65 0.62 0.52 0.39 0.32 0.24 0.30 0.26 0.26 0.24 0.23 0.15 0.16 0.21 0.38 0.50 0.55 0.53 0.52 0.54 0.62 0.66 0.66 0.60 0.55 0.43 0.37 0.35 0.32 0.28 0.27 0.26 0.17 0.11 0.13 0.17 0.13 0.11
0.14 0.11 0.20 0.24 0.24 0.28 0.21 0.09 0.11 0.22 0.36 0.60 0.61 0.83 0.67 0.73 0.66 0.60 0.55 0.44 0.33 0.25 0.26 0.32 0.30 0.32 0.39 0.36 0.40 0.52 0.58 0.65 0.65 0.53 0.51 0.59 0.57 0.55 0.55 0.48 0.48 0.38 0.29 0.28 0.24 0.24 0.23 0.18 0.12 0.15 0.13 0.11 0.07 0.07
0.37 0.31 0.34 0.27 0.26 0.14 0.10 0.07 0.02 0.15 0.49 0.51 0.52 0.42 0.32 0.38 0.36 0.36 0.31 0.29 0.21 0.12 0.13 0.15 0.19 0.31 0.44 0.51 0.58 0.59 0.58 0.45 0.38 0.35 0.38 0.47 0.49 0.49 0.50 0.46 0.41 0.35 0.25 0.21 0.16 0.15 0.17 0.17 0.17 0.16 0.13 0.10 0.10 0.10
0.47 0.41 0.38 0.29 0.18 0.15 0.17 0.09 0.01 0.09 0.35 0.39 0.32 0.16 0.12 0.15 0.11 0.05 0.03 0.02 0.02 0.03 0.07 0.19 0.40 0.50 0.50 0.53 0.51 0.48 0.45 0.39 0.33 0.24 0.27 0.35 0.42 0.38 0.42 0.36 0.34 0.30 0.22 0.21 0.21 0.18 0.16 0.16 0.16 0.13 0.11 0.09 0.08 0.07
0.29 0.18 0.11 0.06 0.05 0.04 0.07 0.06 0.06 0.05 0.09 0.11 0.11 0.03 0.02 0.01 0.01 0.01 0.01 0.00 0.02 0.09 0.29 0.46 0.45 0.47 0.42 0.42 0.41 0.40 0.42 0.38 0.41 0.27 0.24 0.25 0.34 0.26 0.30 0.33 0.28 0.23 0.20 0.23 0.20 0.21 0.17 0.15 0.14 0.10 0.08 0.07 0.06 0.05
0.04 0.01 0.00 0.00 0.00 0.00 0.01 0.01 0.03 0.02 0.01 0.01 0.00 0.00 0.01 0.02 0.01 0.00 0.00 0.02 0.16 0.35 0.36 0.32 0.30 0.25 0.19 0.22 0.23 0.21 0.29 0.24 0.30 0.34 0.34 0.30 0.30 0.30 0.34 0.38 0.27 0.27 0.26 0.25 0.21 0.16 0.12 0.09 0.06 0.04 0.02 0.02 0.01 0.00
0.00 0.00 0.00 0.00 0.00 0.00 0.00 0.00 0.00 0.00 0.00 0.00 0.01 0.01 0.01 0.02 0.01 0.01 0.03 0.10 0.26 0.40 0.32 0.16 0.15 0.14 0.17 0.25 0.18 0.17 0.21 0.19 0.24 0.33 0.35 0.33 0.32 0.31 0.26 0.23 0.20 0.15 0.11 0.10 0.07 0.04 0.02 0.01 0.00 0.00 0.00 0.00 0.00 0.00
0.00 0.00 0.00 0.00 0.00 0.00 0.00 0.00 0.00 0.00 0.00 0.00 0.00 0.02 0.04 0.02 0.00 0.02 0.05 0.13 0.28 0.18 0.14 0.19 0.15 0.12 0.13 0.16 0.20 0.27 0.32 0.25 0.22 0.22 0.22 0.16 0.13 0.13 0.08 0.06 0.04 0.03 0.02 0.01 0.00 0.00 0.00 0.00 0.00 0.00 0.00 0.00 0.00 0.00
0.00 0.00 0.00 0.00 0.00 0.00 0.00 0.01 0.01 0.00 0.01 0.01 0.02 0.04 0.03 0.01 0.02 0.03 0.06 0.17 0.14 0.16 0.22 0.24 0.18 0.18 0.20 0.24 0.24 0.22 0.17 0.10 0.08 0.08 0.09 0.06 0.04 0.02 0.01 0.00 0.00 0.00 0.00 0.00 0.00 0.00 0.00 0.00 0.00 0.00 0.00 0.01 0.01 0.01
0.01 0.02 0.01 0.02 0.01 0.01 0.01 0.01 0.01 0.02 0.02 0.03 0.04 0.04 0.03 0.04 0.04 0.08 0.11 0.17 0.15 0.18 0.23 0.28 0.27 0.20 0.18 0.15 0.11 0.09 0.07 0.03 0.01 0.00 0.01 0.01 0.01 0.00 0.00 0.00 0.00 0.01 0.01 0.01 0.01 0.00 0.00 0.00 0.00 0.00 0.01 0.01 0.01 0.03
0.01 0.02 0.02 0.02 0.01 0.01 0.01 0.02 0.01 0.02 0.05 0.06 0.06 0.04 0.07 0.10 0.08 0.14 0.16 0.16 0.17 0.22 0.22 0.21 0.15 0.11 0.10 0.08 0.06 0.04 0.01 0.00 0.00 0.00 0.00 0.00 0.00 0.00 0.00 0.00 0.01 0.01 0.01 0.01 0.01 0.01 0.01 0.02 0.01 0.01 0.01 0.02 0.02 0.02
0.02 0.01 0.01 0.01 0.01 0.01 0.02 0.03 0.04 0.07 0.09 0.07 0.07 0.05 0.04 0.07 0.14 0.19 0.21 0.24 0.17 0.13 0.10 0.09 0.06 0.04 0.04 0.05 0.06 0.04 0.02 0.01 0.00 0.00 0.00 0.01 0.00 0.00 0.01 0.01 0.00 0.00 0.00 0.01 0.01 0.01 0.02 0.03 0.03 0.03 0.02 0.02 0.01 0.01
0.02 0.01 0.01 0.00 0.01 0.02 0.06 0.08 0.08 0.07 0.06 0.04 0.05 0.06 0.06 0.10 0.18 0.19 0.21 0.20 0.17 0.12 0.08 0.07 0.09 0.06 0.03 0.01 0.00 0.00 0.00 0.00 0.00 0.00 0.00 0.01 0.02 0.02 0.01 0.01 0.01 0.01 0.01 0.01 0.00 0.01 0.02 0.03 0.03 0.02 0.01 0.01 0.02 0.04
0.01 0.01 0.01 0.01 0.02 0.05 0.08 0.06 0.07 0.06 0.02 0.02 0.03 0.04 0.05 0.13 0.21 0.18 0.15 0.12 0.10 0.11 0.10 0.08 0.09 0.06 0.05 0.03 0.01 0.00 0.01 0.00 0.00 0.00 0.00 0.00 0.01 0.01 0.02 0.02 0.02 0.02 0.02 0.02 0.01 0.01 0.01 0.00 0.01 0.01 0.01 0.01 0.02 0.02
0.00 0.01 0.01 0.01 0.05 0.07 0.06 0.04 0.05 0.06 0.05 0.04 0.04 0.05 0.07 0.11 0.12 0.08 0.08 0.10 0.07 0.07 0.06 0.05 0.02 0.01 0.00 0.00 0.00 0.00 0.01 0.01 0.01 0.01 0.01 0.01 0.01 0.01 0.02 0.02 0.02 0.02 0.02 0.02 0.02 0.01 0.01 0.00 0.01 0.01 0.01 0.01 0.01 0.01
0.00 0.01 0.01 0.01 0.07 0.07 0.06 0.08 0.06 0.11 0.09 0.06 0.06 0.05 0.07 0.07 0.06 0.06 0.05 0.05 0.04 0.03 0.03 0.03 0.03 0.03 0.01 0.00 0.00 0.00 0.00 0.00 0.00 0.01 0.01 0.01 0.02 0.02 0.02 0.01 0.02 0.02 0.02 0.01 0.01 0.01 0.01 0.01 0.01 0.01 0.01 0.01 0.01 0.00
0.01 0.00 0.00 0.01 0.04 0.06 0.05 0.04 0.05 0.04 0.04 0.04 0.06 0.06 0.06 0.05 0.05 0.08 0.06 0.04 0.03 0.02 0.01 0.02 0.02 0.02 0.02 0.00 0.00 0.00 0.00 0.00 0.00 0.01 0.02 0.02 0.01 0.01 0.01 0.01 0.02 0.01 0.01 0.01 0.01 0.01 0.01 0.01 0.01 0.01 0.01 0.00 0.00 0.00

GFSWCAN_prec_precacc_039.txt.gz
Total_Precipitation_Accumulation
0.48 0.59 0.69 0.49 0.52 0.49 0.51 0.48 0.51 0.54 0.50 0.36 0.39 0.37 0.57 0.50 0.53 0.60 0.57 0.70 1.28 1.04 0.35 0.36 0.23 0.13 0.04 0.02 0.09 0.06 0.26 0.23 0.25 0.15 0.07 0.05 0.04 0.02 0.01 0.01 0.08 0.15 0.19 0.17 0.14 0.05 0.00 0.00 0.00 0.00 0.00 0.00 0.00 0.00
0.60 0.64 0.54 0.44 0.42 0.43 0.42 0.41 0.48 0.40 0.50 0.30 0.29 0.28 0.44 0.59 0.71 0.63 0.59 0.60 0.92 1.23 0.77 0.40 0.19 0.10 0.02 0.00 0.02 0.03 0.12 0.12 0.15 0.14 0.04 0.05 0.03 0.02 0.01 0.00 0.00 0.04 0.12 0.12 0.08 0.02 0.00 0.00 0.00 0.00 0.00 0.00 0.00 0.00
0.54 0.51 0.45 0.37 0.32 0.34 0.37 0.42 0.38 0.34 0.39 0.28 0.26 0.30 0.48 0.75 0.73 0.57 0.55 0.63 1.53 1.23 0.96 0.51 0.27 0.07 0.02 0.00 0.02 0.16 0.05 0.06 0.10 0.10 0.09 0.08 0.05 0.01 0.01 0.00 0.00 0.00 0.01 0.03 0.04 0.02 0.03 0.02 0.02 0.00 0.00 0.00 0.00 0.00
0.42 0.36 0.34 0.29 0.30 0.35 0.40 0.34 0.28 0.31 0.27 0.26 0.28 0.35 0.60 0.77 0.56 0.55 0.55 0.93 2.10 1.06 1.25 0.74 0.40 0.16 0.11 0.03 0.06 0.11 0.07 0.08 0.11 0.14 0.12 0.12 0.05 0.01 0.01 0.00 0.00 0.00 0.03 0.03 0.02 0.01 0.02 0.03 0.12 0.09 0.04 0.02 0.01 0.01
0.32 0.28 0.26 0.25 0.26 0.30 0.31 0.27 0.30 0.32 0.26 0.30 0.32 0.42 0.71 0.66 0.52 0.64 0.63 1.27 1.49 1.13 0.91 0.91 0.25 0.26 0.19 0.16 0.08 0.13 0.16 0.19 0.31 0.27 0.14 0.07 0.03 0.04 0.02 0.01 0.00 0.00 0.00 0.00 0.01 0.00 0.00 0.00 0.02 0.03 0.08 0.09 0.04 0.02
0.29 0.26 0.21 0.18 0.21 0.22 0.22 0.28 0.34 0.33 0.28 0.31 0.41 0.60 0.61 0.45 0.58 0.95 1.58 1.42 1.09 0.87 0.96 1.10 0.46 0.23 0.34 0.30 0.26 0.13 0.21 0.27 0.34 0.32 0.15 0.04 0.02 0.04 0.02 0.00 0.00 0.00 0.01 0.01 0.00 0.00 0.00 0.00 0.00 0.03 0.01 0.01 0.02 0.02
0.39 0.30 0.20 0.14 0.15 0.17 0.19 0.22 0.27 0.30 0.32 0.42 0.48 0.51 0.45 0.40 0.53 1.04 1.19 0.98 0.71 0.64 0.75 0.83 0.81 0.38 0.39 0.51 0.49 0.56 0.25 0.28 0.56 0.45 0.19 0.07 0.04 0.04 0.01 0.00 0.00 0.00 0.00 0.00 0.00 0.00 0.00 0.00 0.00 0.00 0.00 0.00 0.00 0.00
0.34 0.26 0.17 0.13 0.14 0.16 0.15 0.18 0.27 0.33 0.38 0.37 0.41 0.42 0.55 0.52 0.74 1.05 0.85 1.06 0.65 0.52 0.57 0.56 0.78 0.71 0.63 0.87 0.66 0.66 0.67 0.44 0.43 0.53 0.24 0.13 0.12 0.18 0.08 0.01 0.00 0.00 0.00 0.00 0.00 0.00 0.00 0.00 0.00 0.00 0.00 0.00 0.00 0.00
0.22 0.16 0.12 0.12 0.15 0.17 0.19 0.26 0.29 0.34 0.31 0.34 0.36 0.51 0.75 0.86 1.14 1.04 1.00 1.22 0.86 0.67 0.53 0.27 0.46 1.01 1.00 0.95 0.64 0.55 0.84 0.69 0.36 0.27 0.16 0.21 0.23 0.18 0.07 0.00 0.00 0.00 0.00 0.00 0.00 0.00 0.00 0.00 0.00 0.00 0.00 0.00 0.00 0.01
0.15 0.12 0.11 0.11 0.16 0.21 0.21 0.19 0.18 0.20 0.22 0.34 0.62 0.84 0.94 0.87 1.02 0.98 1.17 1.30 1.08 0.67 0.50 0.34 0.31 0.71 0.98 0.95 0.87 0.60 0.55 0.50 0.42 0.32 0.21 0.14 0.15 0.12 0.02 0.01 0.00 0.00 0.00 0.00 0.00 0.00 0.00 0.00 0.00 0.00 0.00 0.01 0.02 0.05
0.10 0.11 0.13 0.13 0.17 0.22 0.16 0.14 0.14 0.18 0.42 0.61 0.66 0.86 0.83 1.10 1.34 1.28 1.03 0.76 0.76 0.42 0.17 0.25 0.33 0.66 0.83 0.80 0.72 0.72 0.83 0.36 0.20 0.24 0.29 0.29 0.13 0.04 0.01 0.02 0.01 0.01 0.01 0.02 0.01 0.00 0.00 0.00 0.00 0.01 0.03 0.04 0.03 0.01
0.21 0.15 0.13 0.13 0.13 0.19 0.23 0.18 0.19 0.31 0.46 0.56 0.72 0.76 1.10 1.30 1.03 0.71 0.58 0.49 0.38 0.18 0.14 0.22 0.42 0.83 0.80 0.68 0.56 0.77 0.76 0.54 0.25 0.14 0.22 0.34 0.21 0.07 0.05 0.03 0.02 0.03 0.05 0.07 0.06 0.04 0.04 0.03 0.02 0.02 0.02 0.01 0.01 0.03
0.21 0.18 0.13 0.08 0.06 0.07 0.15 0.27 0.41 0.65 0.92 0.87 0.60 0.75 0.81 0.72 0.57 0.41 0.34 0.38 0.29 0.11 0.12 0.15 0.44 1.01 0.81 0.66 0.38 0.47 0.84 0.67 0.40 0.34 0.30 0.24 0.09 0.08 0.11 0.15 0.15 0.13 0.11 0.09 0.09 0.09 0.09 0.09 0.08 0.07 0.08 0.12 0.17 0.29
0.12 0.12 0.16 0.21 0.25 0.30 0.53 0.65 0.97 1.17 0.90 0.59 0.57 0.51 0.68 0.54 0.44 0.36 0.36 0.35 0.14 0.07 0.09 0.25 0.42 0.64 0.85 0.75 0.48 0.32 0.64 0.70 0.60 0.45 0.30 0.23 0.24 0.21 0.21 0.21 0.18 0.20 0.21 0.21 0.23 0.24 0.29 0.34 0.44 0.53 0.59 0.63 0.57 0.63
0.16 0.20 0.23 0.32 0.40 0.53 0.71 0.85 1.05 0.68 0.39 0.47 0.59 0.67 0.53 0.57 0.50 0.52 0.43 0.28 0.19 0.18 0.15 0.28 0.43 0.37 0.52 0.83 0.59 0.44 0.44 0.39 0.29 0.27 0.31 0.41 0.40 0.38 0.38 0.40 0.41 0.46 0.51 0.58 0.64 0.63 0.68 0.65 0.55 0.64 0.67 0.61 0.51 0.49
0.15 0.18 0.24 0.31 0.42 0.51 0.72 0.74 0.66 0.45 0.46 0.57 0.73 0.63 0.51 0.49 0.49 0.47 0.36 0.27 0.25 0.26 0.26 0.43 0.49 0.26 0.31 0.22 0.31 0.30 0.24 0.25 0.31 0.35 0.41 0.45 0.49 0.55 0.56 0.59 0.66 0.66 0.63 0.61 0.59 0.50 0.46 0.42 0.36 0.37 0.37 0.34 0.34 0.27
0.07 0.12 0.26 0.31 0.43 0.49 0.52 0.44 0.34 0.39 0.60 0.62 0.85 0.90 0.76 0.62 0.66 0.64 0.53 0.40 0.33 0.24 0.31 0.28 0.30 0.29 0.26 0.18 0.17 0.22 0.41 0.54 0.60 0.58 0.56 0.59 0.67 0.71 0.70 0.64 0.59 0.47 0.40 0.38 0.35 0.31 0.31 0.31 0.20 0.13 0.16 0.22 0.16 0.15
0.14 0.11 0.20 0.24 0.24 0.28 0.21 0.10 0.15 0.25 0.38 0.63 0.64 0.86 0.69 0.75 0.69 0.62 0.57 0.45 0.34 0.25 0.26 0.33 0.31 0.33 0.40 0.38 0.44 0.56 0.61 0.68 0.69 0.60 0.59 0.66 0.63 0.61 0.59 0.52 0.52 0.41 0.31 0.31 0.26 0.26 0.25 0.20 0.14 0.17 0.15 0.14 0.09 0.09
0.37 0.31 0.34 0.27 0.26 0.14 0.11 0.10 0.03 0.16 0.53 0.56 0.55 0.44 0.34 0.41 0.39 0.38 0.32 0.29 0.21 0.12 0.13 0.16 0.20 0.33 0.48 0.57 0.65 0.63 0.62 0.48 0.42 0.40 0.43 0.51 0.54 0.54 0.54 0.49 0.44 0.37 0.27 0.24 0.17 0.17 0.19 0.18 0.19 0.17 0.15 0.10 0.11 0.12
0.49 0.41 0.38 0.29 0.18 0.15 0.18 0.12 0.02 0.10 0.41 0.46 0.40 0.19 0.14 0.19 0.15 0.06 0.03 0.02 0.02 0.03 0.08 0.22 0.45 0.56 0.56 0.59 0.57 0.54 0.50 0.43 0.35 0.26 0.30 0.38 0.46 0.40 0.45 0.38 0.36 0.32 0.23 0.22 0.21 0.19 0.16 0.17 0.16 0.13 0.11 0.09 0.08 0.07
0.31 0.18 0.11 0.06 0.05 0.04 0.09 0.07 0.08 0.08 0.16 0.20 0.17 0.06 0.07 0.02 0.02 0.02 0.02 0.01 0.03 0.12 0.34 0.51 0.49 0.52 0.45 0.45 0.44 0.42 0.44 0.40 0.43 0.28 0.27 0.28 0.36 0.27 0.31 0.34 0.29 0.23 0.20 0.23 0.20 0.21 0.17 0.15 0.14 0.11 0.08 0.07 0.06 0.05
0.04 0.01 0.00 0.00 0.00 0.00 0.01 0.01 0.04 0.04 0.01 0.02 0.01 0.01 0.01 0.02 0.01 0.00 0.00 0.03 0.18 0.39 0.39 0.34 0.33 0.27 0.21 0.24 0.26 0.22 0.30 0.25 0.30 0.34 0.35 0.30 0.31 0.30 0.34 0.38 0.27 0.27 0.26 0.25 0.21 0.16 0.12 0.09 0.06 0.04 0.02 0.02 0.01 0.00
0.00 0.00 0.00 0.00 0.00 0.00 0.00 0.00 0.00 0.01 0.01 0.00 0.01 0.01 0.02 0.02 0.01 0.01 0.03 0.11 0.31 0.45 0.34 0.17 0.16 0.15 0.18 0.26 0.18 0.18 0.21 0.19 0.24 0.33 0.35 0.33 0.32 0.31 0.26 0.23 0.20 0.15 0.11 0.10 0.07 0.04 0.02 0.01 0.00 0.00 0.00 0.00 0.00 0.00
0.00 0.00 0.00 0.00 0.00 0.00 0.00 0.00 0.00 0.00 0.00 0.00 0.00 0.02 0.04 0.03 0.00 0.02 0.06 0.15 0.31 0.21 0.17 0.21 0.15 0.12 0.13 0.16 0.20 0.27 0.32 0.25 0.22 0.22 0.22 0.16 0.13 0.13 0.08 0.06 0.04 0.03 0.02 0.01 0.00 0.00 0.00 0.00 0.00 0.00 0.00 0.00 0.00 0.00
0.00 0.00 0.00 0.00 0.00 0.00 0.00 0.01 0.01 0.00 0.01 0.01 0.02 0.04 0.03 0.01 0.02 0.03 0.07 0.19 0.16 0.17 0.23 0.25 0.18 0.18 0.21 0.24 0.24 0.22 0.17 0.10 0.08 0.08 0.09 0.06 0.04 0.03 0.01 0.00 0.00 0.00 0.00 0.00 0.00 0.00 0.00 0.00 0.00 0.00 0.00 0.01 0.01 0.01
0.01 0.02 0.01 0.02 0.01 0.01 0.01 0.01 0.01 0.02 0.02 0.03 0.05 0.04 0.03 0.04 0.04 0.08 0.13 0.19 0.16 0.19 0.25 0.29 0.28 0.20 0.18 0.15 0.11 0.09 0.07 0.03 0.01 0.00 0.01 0.01 0.01 0.00 0.00 0.00 0.00 0.01 0.01 0.01 0.01 0.01 0.00 0.00 0.00 0.00 0.01 0.01 0.01 0.03
0.01 0.02 0.02 0.02 0.01 0.01 0.01 0.02 0.01 0.02 0.05 0.06 0.06 0.04 0.07 0.10 0.08 0.16 0.18 0.17 0.18 0.23 0.23 0.21 0.15 0.11 0.10 0.08 0.06 0.04 0.01 0.00 0.00 0.00 0.00 0.00 0.00 0.00 0.00 0.00 0.01 0.01 0.01 0.01 0.01 0.01 0.01 0.02 0.01 0.01 0.01 0.02 0.02 0.02
0.02 0.01 0.01 0.01 0.01 0.01 0.02 0.03 0.04 0.07 0.09 0.07 0.07 0.05 0.04 0.08 0.15 0.21 0.22 0.25 0.17 0.13 0.10 0.09 0.06 0.04 0.04 0.05 0.06 0.05 0.02 0.01 0.00 0.00 0.01 0.01 0.00 0.00 0.01 0.01 0.00 0.00 0.00 0.01 0.01 0.01 0.02 0.03 0.03 0.03 0.02 0.02 0.01 0.01
0.02 0.01 0.01 0.00 0.01 0.02 0.06 0.08 0.08 0.07 0.06 0.04 0.05 0.07 0.07 0.11 0.19 0.20 0.21 0.21 0.17 0.12 0.08 0.07 0.09 0.06 0.03 0.01 0.00 0.00 0.00 0.00 0.00 0.00 0.00 0.01 0.03 0.02 0.01 0.01 0.01 0.01 0.01 0.01 0.00 0.01 0.02 0.03 0.03 0.02 0.01 0.01 0.02 0.04
0.01 0.01 0.01 0.01 0.02 0.05 0.09 0.06 0.09 0.07 0.02 0.02 0.03 0.05 0.06 0.14 0.23 0.19 0.16 0.13 0.11 0.11 0.10 0.09 0.09 0.06 0.06 0.04 0.01 0.00 0.01 0.00 0.00 0.00 0.00 0.01 0.01 0.01 0.02 0.02 0.02 0.02 0.02 0.02 0.01 0.01 0.01 0.00 0.01 0.01 0.01 0.01 0.02 0.02
0.00 0.01 0.01 0.01 0.05 0.07 0.06 0.04 0.05 0.07 0.05 0.04 0.04 0.05 0.07 0.11 0.13 0.09 0.09 0.11 0.07 0.07 0.06 0.05 0.03 0.02 0.01 0.00 0.01 0.00 0.02 0.01 0.01 0.01 0.01 0.01 0.01 0.02 0.02 0.02 0.02 0.02 0.02 0.02 0.02 0.01 0.01 0.00 0.01 0.01 0.01 0.01 0.01 0.01
0.00 0.01 0.01 0.01 0.07 0.08 0.08 0.10 0.07 0.11 0.10 0.06 0.07 0.05 0.08 0.07 0.06 0.06 0.05 0.06 0.05 0.04 0.03 0.04 0.03 0.03 0.01 0.00 0.00 0.00 0.00 0.00 0.00 0.01 0.01 0.01 0.02 0.02 0.02 0.01 0.02 0.03 0.02 0.01 0.01 0.01 0.01 0.01 0.01 0.01 0.01 0.01 0.01 0.00
0.01 0.00 0.00 0.01 0.04 0.06 0.06 0.05 0.05 0.04 0.04 0.05 0.06 0.06 0.07 0.05 0.06 0.09 0.06 0.04 0.05 0.03 0.02 0.02 0.02 0.02 0.02 0.00 0.00 0.00 0.00 0.00 0.00 0.01 0.02 0.02 0.01 0.01 0.01 0.01 0.02 0.01 0.01 0.01 0.01 0.01 0.01 0.02 0.02 0.01 0.01 0.00 0.00 0.00

GFSWCAN_prec_precacc_042.txt.gz
Total_Precipitation_Accumulation
0.49 0.60 0.70 0.49 0.53 0.50 0.51 0.49 0.51 0.55 0.51 0.38 0.41 0.39 0.58 0.52 0.56 0.65 0.60 0.74 1.33 1.23 0.46 0.38 0.23 0.13 0.04 0.02 0.09 0.06 0.26 0.23 0.25 0.15 0.07 0.05 0.04 0.02 0.01 0.01 0.08 0.15 0.19 0.19 0.21 0.16 0.05 0.01 0.00 0.00 0.00 0.00 0.00 0.00
0.60 0.65 0.55 0.45 0.43 0.44 0.42 0.42 0.48 0.40 0.51 0.31 0.31 0.30 0.46 0.61 0.75 0.71 0.68 0.63 0.93 1.27 0.82 0.42 0.19 0.10 0.03 0.00 0.02 0.03 0.12 0.12 0.16 0.15 0.04 0.05 0.03 0.02 0.01 0.01 0.01 0.05 0.12 0.13 0.10 0.06 0.02 0.02 0.01 0.00 0.00 0.00 0.01 0.01
0.55 0.54 0.46 0.38 0.34 0.35 0.37 0.42 0.39 0.34 0.40 0.29 0.27 0.32 0.51 0.77 0.77 0.72 0.72 0.68 1.55 1.25 1.02 0.55 0.28 0.08 0.03 0.01 0.02 0.16 0.05 0.07 0.12 0.12 0.11 0.09 0.05 0.01 0.01 0.00 0.01 0.01 0.01 0.03 0.04 0.02 0.03 0.03 0.02 0.01 0.00 0.00 0.01 0.00
0.47 0.37 0.35 0.31 0.31 0.35 0.40 0.34 0.28 0.31 0.29 0.28 0.30 0.37 0.63 0.83 0.66 0.79 0.75 0.95 2.11 1.08 1.34 0.88 0.49 0.17 0.12 0.04 0.07 0.12 0.08 0.10 0.15 0.16 0.14 0.15 0.07 0.02 0.02 0.00 0.01 0.02 0.05 0.04 0.02 0.01 0.02 0.03 0.12 0.09 0.04 0.02 0.01 0.01
0.35 0.31 0.27 0.27 0.26 0.31 0.31 0.27 0.30 0.32 0.28 0.32 0.34 0.47 0.76 0.75 0.71 0.93 0.75 1.28 1.52 1.19 0.94 1.07 0.32 0.29 0.21 0.17 0.10 0.16 0.18 0.22 0.40 0.31 0.15 0.07 0.03 0.05 0.04 0.03 0.00 0.01 0.02 0.02 0.02 0.00 0.00 0.00 0.02 0.03 0.08 0.09 0.04 0.03
0.33 0.29 0.21 0.19 0.22 0.22 0.23 0.29 0.36 0.35 0.29 0.33 0.45 0.65 0.69 0.59 0.82 1.18 1.74 1.49 1.20 1.02 1.04 1.21 0.50 0.25 0.37 0.32 0.30 0.15 0.26 0.34 0.42 0.46 0.19 0.04 0.02 0.06 0.04 0.02 0.04 0.04 0.04 0.02 0.00 0.00 0.00 0.00 0.00 0.03 0.01 0.03 0.04 0.02
0.42 0.32 0.24 0.20 0.16 0.17 0.20 0.24 0.31 0.32 0.34 0.46 0.53 0.57 0.55 0.55 0.64 1.15 1.24 1.00 0.86 1.01 0.88 0.90 0.85 0.40 0.40 0.53 0.54 0.61 0.31 0.44 0.69 0.62 0.27 0.08 0.06 0.10 0.05 0.03 0.02 0.02 0.01 0.00 0.00 0.00 0.00 0.00 0.01 0.00 0.00 0.00 0.00 0.00
0.35 0.27 0.21 0.16 0.14 0.16 0.15 0.19 0.28 0.35 0.40 0.40 0.47 0.55 0.66 0.59 0.92 1.11 0.87 1.08 0.76 0.70 0.59 0.57 0.80 0.73 0.63 0.87 0.67 0.69 0.69 0.48 0.46 0.64 0.36 0.15 0.14 0.24 0.19 0.05 0.00 0.00 0.00 0.00 0.00 0.00 0.00 0.00 0.00 0.00 0.00 0.00 0.00 0.00
0.23 0.16 0.13 0.13 0.16 0.17 0.19 0.26 0.30 0.36 0.37 0.47 0.57 0.67 0.89 0.99 1.29 1.11 1.03 1.27 0.88 0.67 0.53 0.27 0.46 1.02 1.00 0.95 0.64 0.55 0.86 0.70 0.38 0.31 0.32 0.37 0.33 0.34 0.23 0.04 0.00 0.00 0.00 0.00 0.00 0.00 0.00 0.00 0.00 0.00 0.00 0.00 0.00 0.01
0.15 0.12 0.13 0.13 0.17 0.24 0.25 0.22 0.22 0.29 0.37 0.45 0.68 0.90 1.05 0.96 1.09 1.02 1.20 1.31 1.08 0.67 0.50 0.34 0.31 0.71 0.98 0.95 0.88 0.62 0.56 0.51 0.42 0.33 0.36 0.53 0.46 0.20 0.06 0.06 0.05 0.01 0.01 0.01 0.00 0.00 0.00 0.00 0.00 0.00 0.00 0.01 0.02 0.05
0.11 0.12 0.14 0.16 0.20 0.26 0.20 0.16 0.16 0.20 0.43 0.62 0.66 0.87 0.86 1.11 1.35 1.29 1.03 0.76 0.76 0.42 0.17 0.25 0.33 0.66 0.83 0.82 0.75 0.74 0.84 0.36 0.21 0.25 0.34 0.49 0.21 0.08 0.01 0.03 0.03 0.02 0.02 0.04 0.04 0.05 0.06 0.02 0.01 0.01 0.03 0.04 0.03 0.01
0.23 0.16 0.15 0.14 0.15 0.22 0.25 0.20 0.19 0.31 0.46 0.56 0.72 0.76 1.10 1.30 1.03 0.71 0.58 0.49 0.38 0.19 0.14 0.22 0.42 0.83 0.81 0.76 0.61 0.78 0.77 0.55 0.26 0.15 0.24 0.37 0.25 0.09 0.05 0.04 0.03 0.04 0.05 0.07 0.06 0.05 0.05 0.05 0.03 0.02 0.02 0.02 0.01 0.03
0.23 0.19 0.14 0.08 0.07 0.08 0.16 0.27 0.41 0.65 0.92 0.87 0.60 0.75 0.81 0.72 0.57 0.41 0.35 0.39 0.31 0.16 0.18 0.20 0.48 1.06 0.84 0.79 0.42 0.48 0.86 0.68 0.41 0.35 0.31 0.27 0.11 0.09 0.12 0.15 0.16 0.15 0.12 0.11 0.11 0.11 0.10 0.10 0.09 0.08 0.09 0.14 0.18 0.31
0.14 0.14 0.17 0.21 0.25 0.30 0.53 0.65 0.97 1.17 0.90 0.59 0.57 0.51 0.68 0.54 0.45 0.38 0.38 0.37 0.18 0.09 0.11 0.31 0.61 0.82 0.92 0.88 0.55 0.33 0.71 0.79 0.62 0.47 0.32 0.26 0.26 0.24 0.22 0.23 0.21 0.25 0.26 0.26 0.29 0.30 0.35 0.40 0.49 0.59 0.64 0.70 0.61 0.69
0.16 0.20 0.23 0.32 0.40 0.53 0.71 0.85 1.05 0.68 0.39 0.47 0.59 0.68 0.53 0.60 0.52 0.53 0.44 0.32 0.23 0.20 0.17 0.35 0.66 0.57 0.64 0.96 0.63 0.46 0.47 0.44 0.31 0.29 0.34 0.46 0.46 0.43 0.43 0.47 0.50 0.55 0.59 0.66 0.71 0.68 0.74 0.70 0.57 0.68 0.72 0.66 0.54 0.53
0.15 0.18 0.24 0.31 0.42 0.51 0.72 0.74 0.66 0.45 0.46 0.57 0.73 0.64 0.51 0.49 0.49 0.47 0.36 0.30 0.29 0.30 0.33 0.63 0.71 0.46 0.43 0.28 0.32 0.34 0.31 0.35 0.41 0.42 0.49 0.52 0.58 0.68 0.70 0.72 0.77 0.76 0.71 0.67 0.64 0.53 0.48 0.44 0.38 0.40 0.40 0.37 0.37 0.29
0.08 0.13 0.26 0.31 0.43 0.49 0.52 0.44 0.34 0.39 0.60 0.62 0.85 0.91 0.77 0.63 0.67 0.66 0.54 0.42 0.35 0.29 0.45 0.39 0.41 0.45 0.36 0.21 0.20 0.28 0.49 0.66 0.70 0.68 0.66 0.68 0.75 0.80 0.78 0.69 0.64 0.51 0.43 0.41 0.37 0.32 0.33 0.32 0.21 0.13 0.17 0.23 0.17 0.16
0.14 0.13 0.22 0.26 0.25 0.29 0.21 0.11 0.16 0.25 0.38 0.64 0.65 0.88 0.70 0.76 0.70 0.63 0.58 0.45 0.34 0.29 0.32 0.37 0.34 0.37 0.45 0.42 0.47 0.62 0.66 0.72 0.74 0.65 0.66 0.74 0.69 0.66 0.64 0.56 0.56 0.43 0.33 0.32 0.26 0.27 0.26 0.20 0.14 0.18 0.16 0.14 0.09 0.09
0.39 0.35 0.43 0.34 0.29 0.16 0.12 0.10 0.03 0.17 0.55 0.58 0.56 0.44 0.35 0.43 0.41 0.40 0.33 0.29 0.21 0.12 0.13 0.16 0.20 0.35 0.52 0.60 0.67 0.67 0.65 0.51 0.45 0.44 0.47 0.56 0.58 0.57 0.56 0.50 0.45 0.38 0.28 0.25 0.18 0.17 0.19 0.18 0.19 0.17 0.15 0.10 0.12 0.13
0.52 0.45 0.43 0.32 0.19 0.15 0.18 0.12 0.02 0.11 0.43 0.49 0.41 0.19 0.16 0.23 0.17 0.06 0.03 0.02 0.02 0.03 0.09 0.23 0.48 0.60 0.60 0.63 0.58 0.55 0.51 0.44 0.36 0.27 0.32 0.41 0.48 0.41 0.47 0.39 0.36 0.32 0.23 0.22 0.21 0.19 0.16 0.17 0.17 0.13 0.11 0.09 0.08 0.08
0.32 0.18 0.11 0.06 0.05 0.04 0.09 0.08 0.10 0.10 0.19 0.24 0.19 0.07 0.12 0.04 0.02 0.02 0.02 0.01 0.03 0.13 0.38 0.56 0.53 0.56 0.47 0.47 0.45 0.42 0.45 0.40 0.44 0.29 0.28 0.30 0.38 0.28 0.31 0.34 0.29 0.23 0.20 0.23 0.20 0.21 0.17 0.16 0.14 0.11 0.08 0.07 0.06 0.05
0.04 0.01 0.00 0.00 0.00 0.00 0.01 0.01 0.06 0.05 0.02 0.05 0.03 0.01 0.03 0.02 0.01 0.00 0.00 0.03 0.23 0.44 0.42 0.36 0.35 0.29 0.22 0.26 0.28 0.23 0.31 0.25 0.31 0.35 0.35 0.31 0.31 0.30 0.34 0.38 0.27 0.27 0.27 0.25 0.21 0.16 0.12 0.09 0.06 0.04 0.02 0.02 0.01 0.00
0.00 0.00 0.00 0.00 0.00 0.00 0.00 0.00 0.00 0.01 0.01 0.01 0.01 0.01 0.02 0.02 0.02 0.01 0.04 0.15 0.37 0.48 0.35 0.18 0.17 0.16 0.19 0.27 0.19 0.18 0.21 0.19 0.24 0.33 0.35 0.33 0.32 0.31 0.26 0.23 0.20 0.15 0.11 0.10 0.07 0.04 0.02 0.01 0.00 0.00 0.00 0.00 0.00 0.00
0.00 0.00 0.00 0.00 0.00 0.00 0.00 0.00 0.00 0.00 0.00 0.00 0.00 0.03 0.04 0.03 0.00 0.02 0.07 0.19 0.36 0.25 0.18 0.21 0.15 0.12 0.13 0.16 0.20 0.27 0.32 0.25 0.22 0.22 0.22 0.16 0.13 0.13 0.08 0.06 0.04 0.03 0.03 0.01 0.00 0.00 0.00 0.00 0.00 0.00 0.00 0.00 0.00 0.00
0.00 0.00 0.00 0.00 0.00 0.00 0.00 0.01 0.01 0.00 0.01 0.01 0.02 0.04 0.03 0.01 0.02 0.03 0.07 0.21 0.17 0.18 0.24 0.25 0.18 0.18 0.21 0.24 0.24 0.22 0.17 0.10 0.08 0.08 0.10 0.06 0.05 0.03 0.01 0.00 0.00 0.00 0.00 0.00 0.00 0.00 0.00 0.00 0.00 0.00 0.00 0.01 0.01 0.01
0.01 0.02 0.01 0.02 0.01 0.01 0.01 0.01 0.01 0.02 0.02 0.03 0.05 0.04 0.03 0.04 0.04 0.09 0.14 0.20 0.16 0.20 0.26 0.29 0.28 0.20 0.18 0.15 0.11 0.09 0.07 0.03 0.01 0.00 0.01 0.01 0.01 0.00 0.00 0.00 0.00 0.01 0.01 0.01 0.01 0.01 0.00 0.00 0.00 0.00 0.01 0.01 0.01 0.03
0.02 0.02 0.02 0.02 0.01 0.01 0.01 0.02 0.01 0.02 0.05 0.06 0.06 0.04 0.07 0.10 0.09 0.16 0.20 0.17 0.18 0.24 0.23 0.21 0.15 0.11 0.10 0.08 0.06 0.04 0.01 0.00 0.00 0.00 0.00 0.00 0.00 0.00 0.00 0.00 0.01 0.01 0.01 0.01 0.01 0.01 0.02 0.02 0.02 0.01 0.01 0.02 0.02 0.02
0.02 0.01 0.01 0.01 0.01 0.01 0.02 0.03 0.04 0.07 0.09 0.07 0.07 0.05 0.04 0.08 0.16 0.22 0.22 0.25 0.17 0.13 0.10 0.09 0.06 0.04 0.04 0.05 0.07 0.05 0.02 0.02 0.00 0.00 0.01 0.01 0.01 0.00 0.01 0.01 0.01 0.00 0.00 0.01 0.01 0.01 0.02 0.03 0.03 0.03 0.02 0.02 0.01 0.02
0.02 0.01 0.01 0.00 0.01 0.02 0.06 0.08 0.08 0.08 0.07 0.05 0.05 0.07 0.07 0.12 0.19 0.21 0.22 0.21 0.17 0.12 0.08 0.07 0.09 0.06 0.03 0.01 0.00 0.00 0.00 0.00 0.00 0.00 0.00 0.02 0.03 0.02 0.01 0.01 0.01 0.01 0.01 0.01 0.01 0.01 0.02 0.03 0.03 0.02 0.01 0.01 0.02 0.04
0.01 0.01 0.01 0.01 0.02 0.06 0.10 0.06 0.09 0.07 0.02 0.02 0.03 0.05 0.06 0.16 0.26 0.20 0.16 0.14 0.12 0.11 0.10 0.09 0.10 0.07 0.06 0.04 0.01 0.00 0.01 0.00 0.00 0.00 0.00 0.01 0.01 0.02 0.02 0.02 0.02 0.02 0.02 0.02 0.01 0.01 0.01 0.00 0.01 0.01 0.01 0.02 0.02 0.02
0.00 0.01 0.01 0.01 0.05 0.08 0.07 0.04 0.05 0.07 0.05 0.04 0.04 0.05 0.07 0.12 0.14 0.10 0.09 0.11 0.07 0.07 0.06 0.05 0.03 0.02 0.01 0.01 0.01 0.00 0.02 0.01 0.01 0.01 0.01 0.01 0.01 0.02 0.02 0.02 0.02 0.02 0.02 0.02 0.02 0.01 0.01 0.00 0.01 0.01 0.01 0.01 0.01 0.01
0.00 0.01 0.01 0.02 0.08 0.08 0.08 0.11 0.07 0.11 0.10 0.06 0.07 0.05 0.08 0.07 0.06 0.07 0.06 0.06 0.05 0.05 0.03 0.04 0.03 0.03 0.01 0.00 0.00 0.00 0.00 0.00 0.00 0.01 0.01 0.01 0.02 0.02 0.02 0.01 0.02 0.03 0.02 0.01 0.01 0.01 0.01 0.01 0.02 0.01 0.02 0.02 0.01 0.00
0.01 0.00 0.00 0.01 0.05 0.06 0.06 0.05 0.05 0.04 0.05 0.05 0.06 0.07 0.07 0.06 0.06 0.09 0.07 0.04 0.06 0.03 0.02 0.02 0.02 0.02 0.02 0.00 0.00 0.00 0.00 0.00 0.00 0.01 0.02 0.02 0.01 0.01 0.01 0.01 0.02 0.01 0.01 0.01 0.01 0.01 0.01 0.02 0.02 0.01 0.01 0.00 0.00 0.01

GFSWCAN_prec_precacc_045.txt.gz
Total_Precipitation_Accumulation
0.52 0.61 0.71 0.50 0.53 0.50 0.52 0.50 0.52 0.56 0.51 0.39 0.43 0.42 0.61 0.54 0.57 0.70 0.63 0.82 1.43 1.34 0.48 0.39 0.24 0.13 0.04 0.02 0.09 0.06 0.26 0.23 0.25 0.16 0.11 0.06 0.04 0.02 0.01 0.01 0.08 0.15 0.19 0.19 0.21 0.17 0.05 0.02 0.05 0.07 0.04 0.00 0.00 0.00
0.61 0.66 0.56 0.46 0.44 0.45 0.43 0.43 0.49 0.41 0.51 0.32 0.32 0.32 0.49 0.64 0.78 0.77 0.77 0.67 0.98 1.38 0.85 0.42 0.19 0.10 0.03 0.00 0.02 0.03 0.12 0.12 0.16 0.15 0.04 0.05 0.03 0.02 0.01 0.01 0.01 0.05 0.12 0.13 0.10 0.06 0.02 0.02 0.03 0.02 0.01 0.01 0.01 0.01
0.56 0.55 0.48 0.40 0.35 0.36 0.38 0.44 0.41 0.37 0.42 0.30 0.28 0.33 0.55 0.80 0.80 0.81 0.84 0.73 1.59 1.39 1.07 0.56 0.28 0.08 0.03 0.01 0.03 0.16 0.05 0.07 0.12 0.12 0.11 0.10 0.06 0.01 0.01 0.00 0.01 0.01 0.01 0.03 0.04 0.02 0.03 0.03 0.02 0.01 0.00 0.01 0.01 0.00
0.51 0.43 0.37 0.32 0.32 0.36 0.41 0.35 0.29 0.31 0.29 0.29 0.32 0.40 0.65 0.86 0.69 0.87 0.86 1.01 2.13 1.11 1.38 0.88 0.49 0.17 0.12 0.04 0.08 0.12 0.08 0.10 0.16 0.18 0.15 0.15 0.07 0.02 0.02 0.00 0.01 0.02 0.05 0.04 0.02 0.01 0.02 0.03 0.12 0.09 0.04 0.02 0.02 0.01
0.44 0.34 0.29 0.28 0.28 0.31 0.31 0.27 0.30 0.33 0.29 0.33 0.37 0.50 0.78 0.79 0.76 1.07 0.84 1.31 1.52 1.20 0.94 1.07 0.32 0.29 0.21 0.17 0.11 0.21 0.20 0.23 0.42 0.34 0.16 0.07 0.04 0.07 0.05 0.04 0.00 0.02 0.04 0.06 0.03 0.02 0.00 0.00 0.03 0.03 0.08 0.10 0.04 0.03
0.36 0.30 0.21 0.21 0.22 0.23 0.24 0.29 0.36 0.35 0.31 0.36 0.48 0.70 0.73 0.68 1.05 1.51 2.05 1.62 1.20 1.03 1.10 1.25 0.57 0.26 0.37 0.32 0.30 0.17 0.29 0.38 0.46 0.50 0.26 0.06 0.03 0.09 0.06 0.05 0.04 0.04 0.06 0.03 0.01 0.01 0.03 0.01 0.02 0.03 0.01 0.03 0.04 0.02
0.43 0.32 0.26 0.21 0.17 0.19 0.21 0.25 0.31 0.34 0.36 0.50 0.59 0.66 0.61 0.74 0.82 1.28 1.33 1.06 0.87 1.04 1.09 1.08 0.91 0.43 0.43 0.56 0.56 0.63 0.36 0.51 0.77 0.68 0.43 0.20 0.09 0.13 0.06 0.04 0.02 0.03 0.03 0.02 0.01 0.02 0.04 0.02 0.02 0.00 0.01 0.00 0.00 0.00
0.36 0.29 0.23 0.17 0.16 0.17 0.16 0.21 0.31 0.38 0.44 0.44 0.54 0.64 0.78 0.69 0.96 1.13 0.88 1.08 0.81 0.94 0.86 0.77 0.86 0.78 0.70 0.92 0.70 0.76 0.78 0.69 0.66 0.69 0.41 0.36 0.37 0.30 0.21 0.07 0.02 0.00 0.00 0.01 0.01 0.01 0.01 0.01 0.00 0.00 0.00 0.00 0.00 0.00
0.23 0.16 0.14 0.14 0.16 0.17 0.20 0.27 0.32 0.40 0.44 0.58 0.69 0.78 1.01 1.13 1.39 1.14 1.07 1.33 1.04 0.90 0.68 0.32 0.50 1.06 1.05 0.97 0.66 0.60 1.01 0.85 0.58 0.42 0.37 0.44 0.63 0.49 0.30 0.08 0.07 0.04 0.01 0.00 0.00 0.00 0.00 0.00 0.00 0.00 0.00 0.00 0.00 0.01
0.16 0.14 0.14 0.14 0.18 0.24 0.26 0.27 0.29 0.36 0.43 0.52 0.77 1.07 1.35 1.29 1.27 1.21 1.48 1.59 1.33 0.78 0.52 0.35 0.31 0.71 0.98 0.95 0.88 0.63 0.60 0.56 0.46 0.34 0.37 0.59 0.57 0.25 0.06 0.07 0.08 0.06 0.05 0.02 0.01 0.01 0.00 0.00 0.00 0.00 0.00 0.01 0.02 0.05
0.13 0.14 0.16 0.17 0.21 0.27 0.21 0.19 0.18 0.21 0.44 0.63 0.71 1.09 1.13 1.27 1.43 1.38 1.11 0.82 0.80 0.43 0.17 0.25 0.33 0.66 0.83 0.82 0.75 0.75 0.85 0.37 0.21 0.27 0.35 0.58 0.32 0.16 0.03 0.04 0.06 0.10 0.08 0.09 0.10 0.10 0.09 0.07 0.04 0.02 0.05 0.06 0.05 0.03
0.24 0.17 0.15 0.15 0.15 0.22 0.25 0.20 0.19 0.31 0.46 0.56 0.74 0.77 1.11 1.31 1.03 0.71 0.58 0.49 0.38 0.19 0.14 0.22 0.42 0.83 0.81 0.76 0.61 0.78 0.77 0.55 0.26 0.19 0.24 0.38 0.27 0.14 0.10 0.07 0.06 0.09 0.12 0.12 0.08 0.08 0.08 0.08 0.10 0.08 0.05 0.03 0.03 0.05
0.23 0.19 0.14 0.08 0.07 0.08 0.16 0.27 0.41 0.65 0.92 0.87 0.60 0.75 0.81 0.72 0.57 0.41 0.35 0.39 0.33 0.18 0.20 0.21 0.48 1.06 0.84 0.88 0.46 0.49 0.87 0.69 0.41 0.37 0.33 0.28 0.12 0.10 0.12 0.16 0.17 0.16 0.14 0.13 0.13 0.14 0.12 0.13 0.12 0.11 0.12 0.18 0.21 0.34
0.15 0.14 0.17 0.21 0.25 0.30 0.53 0.65 0.97 1.17 0.90 0.59 0.57 0.51 0.68 0.54 0.46 0.39 0.40 0.39 0.20 0.11 0.15 0.36 0.64 0.85 0.96 1.08 0.60 0.36 0.76 0.80 0.63 0.48 0.33 0.28 0.28 0.25 0.23 0.25 0.23 0.27 0.29 0.28 0.32 0.34 0.40 0.45 0.55 0.65 0.71 0.79 0.67 0.76
0.16 0.20 0.23 0.32 0.40 0.53 0.71 0.85 1.05 0.68 0.39 0.47 0.59 0.68 0.54 0.62 0.54 0.55 0.46 0.33 0.25 0.22 0.24 0.42 0.73 0.63 0.68 1.13 0.66 0.47 0.50 0.46 0.32 0.30 0.36 0.49 0.48 0.45 0.46 0.51 0.54 0.61 0.64 0.72 0.78 0.74 0.81 0.77 0.62 0.74 0.79 0.72 0.59 0.58
0.15 0.18 0.24 0.31 0.42 0.51 0.72 0.74 0.66 0.45 0.46 0.57 0.74 0.65 0.52 0.50 0.49 0.48 0.39 0.34 0.32 0.34 0.41 0.71 0.76 0.49 0.45 0.31 0.32 0.34 0.31 0.35 0.43 0.44 0.52 0.55 0.62 0.73 0.77 0.80 0.87 0.87 0.81 0.76 0.72 0.61 0.55 0.49 0.42 0.45 0.43 0.39 0.39 0.31
0.08 0.14 0.27 0.32 0.43 0.49 0.52 0.44 0.34 0.39 0.60 0.62 0.86 0.92 0.78 0.64 0.68 0.69 0.57 0.45 0.40 0.36 0.55 0.47 0.47 0.47 0.38 0.22 0.20 0.29 0.51 0.72 0.76 0.74 0.71 0.72 0.81 0.89 0.87 0.78 0.72 0.57 0.46 0.43 0.39 0.33 0.34 0.33 0.21 0.13 0.18 0.24 0.18 0.16
0.17 0.16 0.23 0.27 0.25 0.29 0.21 0.11 0.16 0.25 0.38 0.65 0.66 0.90 0.70 0.77 0.72 0.65 0.62 0.51 0.45 0.44 0.48 0.48 0.41 0.39 0.47 0.43 0.48 0.66 0.74 0.82 0.79 0.71 0.72 0.80 0.76 0.73 0.69 0.59 0.59 0.45 0.34 0.33 0.27 0.27 0.26 0.20 0.14 0.19 0.17 0.15 0.09 0.09
0.43 0.40 0.47 0.35 0.29 0.16 0.12 0.10 0.03 0.17 0.56 0.59 0.58 0.45 0.35 0.44 0.42 0.41 0.33 0.30 0.22 0.13 0.13 0.16 0.22 0.38 0.56 0.64 0.70 0.72 0.70 0.53 0.47 0.47 0.51 0.60 0.61 0.59 0.58 0.51 0.46 0.39 0.28 0.25 0.18 0.17 0.19 0.18 0.19 0.18 0.15 0.10 0.12 0.14
0.57 0.51 0.47 0.33 0.19 0.15 0.18 0.12 0.02 0.11 0.43 0.50 0.42 0.20 0.17 0.23 0.17 0.06 0.03 0.02 0.02 0.03 0.09 0.24 0.52 0.63 0.62 0.67 0.59 0.56 0.53 0.45 0.36 0.27 0.33 0.42 0.49 0.42 0.47 0.40 0.37 0.32 0.23 0.22 0.21 0.19 0.16 0.17 0.17 0.13 0.11 0.09 0.08 0.08
0.32 0.18 0.11 0.06 0.05 0.04 0.09 0.08 0.11 0.11 0.19 0.25 0.20 0.08 0.12 0.04 0.02 0.02 0.02 0.01 0.03 0.13 0.41 0.60 0.57 0.60 0.48 0.48 0.45 0.42 0.45 0.41 0.44 0.29 0.28 0.30 0.39 0.28 0.31 0.34 0.29 0.23 0.20 0.23 0.20 0.21 0.17 0.16 0.15 0.11 0.08 0.07 0.06 0.05
0.04 0.01 0.00 0.00 0.00 0.00 0.02 0.01 0.07 0.06 0.02 0.07 0.04 0.02 0.03 0.02 0.01 0.00 0.00 0.04 0.24 0.46 0.47 0.39 0.38 0.30 0.23 0.28 0.29 0.24 0.32 0.25 0.31 0.35 0.35 0.31 0.31 0.30 0.34 0.38 0.27 0.27 0.27 0.25 0.21 0.16 0.12 0.09 0.06 0.04 0.02 0.02 0.01 0.00
0.00 0.00 0.00 0.00 0.00 0.00 0.01 0.00 0.01 0.02 0.01 0.01 0.01 0.01 0.02 0.02 0.02 0.01 0.05 0.15 0.41 0.53 0.37 0.19 0.19 0.16 0.20 0.28 0.19 0.18 0.21 0.19 0.24 0.33 0.35 0.33 0.32 0.31 0.26 0.24 0.20 0.15 0.12 0.11 0.07 0.04 0.02 0.01 0.00 0.00 0.00 0.00 0.00 0.00
0.00 0.00 0.00 0.00 0.00 0.00 0.00 0.00 0.00 0.00 0.00 0.00 0.00 0.03 0.04 0.03 0.00 0.02 0.08 0.21 0.40 0.27 0.18 0.21 0.15 0.12 0.13 0.16 0.20 0.27 0.32 0.25 0.22 0.22 0.22 0.16 0.13 0.13 0.08 0.07 0.04 0.03 0.03 0.01 0.00 0.00 0.00 0.00 0.00 0.00 0.00 0.00 0.00 0.00
0.00 0.00 0.00 0.00 0.00 0.00 0.00 0.01 0.01 0.00 0.01 0.01 0.02 0.05 0.03 0.01 0.02 0.03 0.08 0.23 0.19 0.19 0.24 0.25 0.18 0.18 0.21 0.24 0.24 0.22 0.17 0.10 0.08 0.08 0.10 0.06 0.05 0.03 0.01 0.00 0.00 0.01 0.00 0.00 0.00 0.00 0.00 0.00 0.00 0.00 0.00 0.01 0.01 0.01
0.01 0.02 0.01 0.02 0.01 0.01 0.01 0.01 0.01 0.02 0.02 0.03 0.05 0.04 0.03 0.04 0.04 0.09 0.14 0.21 0.16 0.21 0.26 0.29 0.28 0.20 0.18 0.15 0.11 0.09 0.07 0.03 0.01 0.00 0.02 0.01 0.01 0.00 0.00 0.00 0.00 0.01 0.01 0.01 0.01 0.01 0.00 0.00 0.00 0.00 0.01 0.01 0.01 0.03
0.02 0.02 0.02 0.02 0.01 0.01 0.01 0.02 0.01 0.02 0.05 0.06 0.07 0.04 0.07 0.10 0.09 0.17 0.21 0.18 0.18 0.24 0.23 0.21 0.15 0.11 0.10 0.08 0.06 0.04 0.01 0.00 0.00 0.00 0.00 0.00 0.00 0.00 0.00 0.00 0.01 0.01 0.01 0.01 0.01 0.01 0.02 0.02 0.02 0.01 0.01 0.02 0.02 0.02
0.02 0.01 0.01 0.01 0.01 0.01 0.02 0.03 0.04 0.08 0.10 0.07 0.07 0.05 0.04 0.08 0.17 0.23 0.23 0.26 0.17 0.13 0.10 0.09 0.06 0.04 0.04 0.05 0.07 0.05 0.02 0.02 0.00 0.00 0.01 0.01 0.01 0.00 0.01 0.01 0.01 0.00 0.00 0.01 0.01 0.01 0.02 0.03 0.03 0.03 0.02 0.02 0.01 0.02
0.02 0.01 0.01 0.00 0.01 0.02 0.06 0.08 0.08 0.08 0.07 0.05 0.05 0.07 0.08 0.13 0.20 0.21 0.22 0.21 0.17 0.12 0.08 0.07 0.09 0.06 0.03 0.01 0.00 0.00 0.00 0.00 0.00 0.00 0.00 0.02 0.03 0.02 0.01 0.01 0.01 0.01 0.01 0.01 0.01 0.01 0.03 0.04 0.03 0.02 0.01 0.01 0.02 0.05
0.01 0.01 0.01 0.01 0.02 0.06 0.11 0.07 0.09 0.07 0.02 0.02 0.03 0.06 0.07 0.18 0.28 0.20 0.16 0.14 0.12 0.11 0.10 0.09 0.10 0.07 0.06 0.04 0.01 0.00 0.01 0.00 0.00 0.00 0.00 0.01 0.01 0.02 0.02 0.02 0.02 0.02 0.02 0.02 0.01 0.01 0.01 0.00 0.01 0.01 0.01 0.02 0.02 0.02
0.00 0.01 0.01 0.01 0.06 0.08 0.07 0.04 0.05 0.07 0.05 0.04 0.04 0.05 0.08 0.14 0.15 0.12 0.11 0.12 0.07 0.07 0.06 0.05 0.03 0.02 0.01 0.01 0.01 0.00 0.02 0.01 0.01 0.01 0.01 0.01 0.01 0.02 0.02 0.02 0.02 0.02 0.02 0.02 0.02 0.01 0.01 0.00 0.01 0.01 0.01 0.01 0.01 0.01
0.00 0.01 0.01 0.02 0.08 0.09 0.09 0.11 0.07 0.11 0.10 0.06 0.07 0.05 0.08 0.07 0.06 0.07 0.07 0.07 0.06 0.05 0.03 0.04 0.03 0.03 0.01 0.00 0.00 0.00 0.00 0.00 0.00 0.01 0.01 0.01 0.02 0.02 0.02 0.01 0.02 0.03 0.02 0.01 0.01 0.01 0.01 0.01 0.02 0.01 0.02 0.02 0.01 0.00
0.01 0.00 0.00 0.01 0.05 0.07 0.06 0.05 0.05 0.04 0.05 0.05 0.07 0.07 0.08 0.06 0.06 0.10 0.07 0.05 0.06 0.03 0.02 0.02 0.02 0.02 0.02 0.00 0.00 0.00 0.00 0.00 0.00 0.01 0.02 0.02 0.01 0.01 0.01 0.01 0.02 0.01 0.01 0.01 0.01 0.01 0.01 0.02 0.02 0.01 0.01 0.00 0.00 0.01

GFSWCAN_prec_precacc_048.txt.gz
Total_Precipitation_Accumulation
0.54 0.63 0.73 0.52 0.56 0.54 0.55 0.52 0.54 0.58 0.54 0.42 0.46 0.46 0.65 0.58 0.64 0.84 0.81 0.95 1.56 1.47 0.54 0.41 0.25 0.14 0.05 0.03 0.11 0.07 0.29 0.26 0.28 0.20 0.12 0.07 0.04 0.02 0.01 0.01 0.08 0.15 0.19 0.19 0.21 0.18 0.05 0.02 0.05 0.08 0.04 0.00 0.00 0.00
0.63 0.67 0.58 0.48 0.47 0.48 0.46 0.46 0.52 0.43 0.52 0.33 0.33 0.34 0.51 0.67 0.81 0.83 0.84 0.72 1.10 1.55 0.93 0.43 0.21 0.11 0.03 0.01 0.02 0.03 0.12 0.12 0.16 0.15 0.04 0.05 0.03 0.02 0.01 0.01 0.01 0.05 0.12 0.13 0.10 0.06 0.02 0.02 0.03 0.02 0.01 0.01 0.01 0.01
0.57 0.57 0.50 0.42 0.37 0.38 0.41 0.47 0.44 0.39 0.44 0.32 0.30 0.34 0.56 0.83 0.85 0.87 0.88 0.75 1.67 1.58 1.17 0.60 0.28 0.08 0.03 0.02 0.03 0.16 0.05 0.07 0.12 0.12 0.11 0.10 0.06 0.01 0.01 0.00 0.01 0.01 0.01 0.03 0.04 0.02 0.03 0.03 0.02 0.01 0.00 0.01 0.01 0.00
0.57 0.50 0.44 0.35 0.34 0.38 0.43 0.38 0.32 0.34 0.31 0.32 0.37 0.43 0.67 0.89 0.74 0.98 0.98 1.05 2.14 1.16 1.42 0.91 0.49 0.17 0.12 0.04 0.08 0.12 0.08 0.11 0.16 0.19 0.15 0.16 0.07 0.02 0.02 0.00 0.01 0.02 0.05 0.04 0.02 0.01 0.02 0.03 0.12 0.09 0.04 0.02 0.02 0.02
0.52 0.37 0.32 0.31 0.31 0.35 0.33 0.29 0.31 0.34 0.30 0.34 0.39 0.55 0.83 0.83 0.81 1.19 1.04 1.38 1.52 1.20 0.95 1.07 0.32 0.29 0.21 0.17 0.11 0.21 0.21 0.24 0.43 0.36 0.19 0.07 0.04 0.07 0.05 0.04 0.00 0.02 0.04 0.06 0.03 0.02 0.00 0.00 0.03 0.03 0.08 0.10 0.04 0.04
0.39 0.31 0.22 0.23 0.24 0.24 0.26 0.30 0.36 0.36 0.32 0.37 0.49 0.73 0.77 0.74 1.10 1.70 2.46 1.80 1.21 1.03 1.11 1.26 0.57 0.26 0.37 0.32 0.30 0.17 0.31 0.41 0.48 0.52 0.27 0.06 0.03 0.10 0.08 0.07 0.06 0.04 0.06 0.03 0.01 0.01 0.03 0.02 0.03 0.05 0.02 0.05 0.06 0.04
0.44 0.34 0.28 0.23 0.19 0.21 0.22 0.25 0.32 0.35 0.39 0.52 0.60 0.67 0.64 0.78 0.91 1.44 1.41 1.10 0.88 1.05 1.12 1.11 0.92 0.43 0.43 0.56 0.56 0.64 0.37 0.56 0.91 0.76 0.46 0.20 0.09 0.16 0.09 0.10 0.07 0.07 0.07 0.04 0.02 0.02 0.05 0.03 0.03 0.02 0.02 0.02 0.01 0.01
0.37 0.29 0.23 0.19 0.18 0.21 0.22 0.24 0.34 0.41 0.46 0.52 0.66 0.70 0.83 0.81 1.14 1.22 0.90 1.08 0.82 0.97 0.94 0.95 0.95 0.79 0.73 0.96 0.72 0.78 0.81 0.73 0.73 0.88 0.47 0.36 0.39 0.36 0.31 0.13 0.03 0.00 0.01 0.04 0.02 0.01 0.01 0.02 0.02 0.01 0.01 0.01 0.01 0.00
0.24 0.17 0.16 0.21 0.26 0.26 0.27 0.32 0.36 0.47 0.57 0.74 0.83 0.96 1.30 1.35 1.55 1.21 1.08 1.33 1.04 0.93 0.74 0.46 0.67 1.14 1.14 1.06 0.70 0.62 1.04 0.93 0.67 0.48 0.42 0.48 0.71 0.76 0.45 0.13 0.08 0.04 0.01 0.00 0.00 0.00 0.00 0.00 0.00 0.00 0.00 0.00 0.00 0.01
0.17 0.15 0.15 0.16 0.21 0.29 0.34 0.36 0.37 0.47 0.51 0.60 0.87 1.24 1.57 1.40 1.33 1.25 1.55 1.66 1.39 0.87 0.62 0.45 0.38 0.76 1.15 1.08 0.94 0.66 0.61 0.66 0.62 0.48 0.53 0.78 0.64 0.31 0.14 0.14 0.12 0.08 0.07 0.04 0.01 0.01 0.01 0.00 0.00 0.00 0.00 0.01 0.03 0.06
0.15 0.14 0.16 0.18 0.22 0.28 0.24 0.23 0.22 0.25 0.49 0.69 0.78 1.21 1.25 1.32 1.48 1.50 1.27 0.98 0.92 0.54 0.24 0.35 0.37 0.68 0.91 0.88 0.75 0.75 0.85 0.40 0.29 0.35 0.42 0.63 0.35 0.16 0.04 0.04 0.06 0.10 0.09 0.11 0.14 0.14 0.12 0.09 0.05 0.04 0.06 0.08 0.07 0.06
0.27 0.20 0.16 0.15 0.15 0.22 0.25 0.20 0.21 0.34 0.49 0.58 0.79 0.91 1.23 1.41 1.14 0.79 0.64 0.55 0.41 0.22 0.16 0.24 0.43 0.83 0.82 0.77 0.62 0.78 0.78 0.56 0.28 0.25 0.28 0.39 0.29 0.14 0.11 0.10 0.08 0.12 0.16 0.19 0.17 0.15 0.17 0.15 0.14 0.11 0.09 0.08 0.07 0.09
0.23 0.20 0.14 0.08 0.07 0.08 0.16 0.28 0.42 0.66 0.92 0.87 0.60 0.76 0.82 0.73 0.57 0.42 0.35 0.40 0.34 0.19 0.20 0.21 0.48 1.06 0.84 0.88 0.46 0.50 0.88 0.71 0.42 0.40 0.36 0.30 0.13 0.10 0.13 0.17 0.20 0.20 0.17 0.16 0.18 0.19 0.16 0.16 0.15 0.13 0.15 0.21 0.24 0.37
0.15 0.14 0.17 0.21 0.25 0.30 0.53 0.65 0.97 1.17 0.90 0.59 0.57 0.51 0.68 0.55 0.47 0.41 0.42 0.40 0.22 0.13 0.16 0.37 0.65 0.85 0.98 1.15 0.66 0.39 0.79 0.81 0.63 0.49 0.34 0.30 0.29 0.27 0.25 0.26 0.23 0.29 0.31 0.31 0.36 0.37 0.43 0.47 0.58 0.69 0.76 0.84 0.71 0.81
0.16 0.20 0.23 0.32 0.40 0.53 0.71 0.85 1.05 0.68 0.39 0.47 0.59 0.69 0.54 0.64 0.56 0.58 0.48 0.35 0.27 0.25 0.29 0.48 0.76 0.63 0.72 1.27 0.68 0.47 0.51 0.46 0.32 0.30 0.37 0.51 0.50 0.47 0.48 0.52 0.56 0.63 0.68 0.76 0.82 0.78 0.85 0.81 0.66 0.79 0.86 0.79 0.64 0.63
0.15 0.18 0.24 0.31 0.42 0.51 0.72 0.74 0.66 0.45 0.46 0.57 0.75 0.66 0.52 0.51 0.50 0.48 0.40 0.35 0.34 0.39 0.47 0.76 0.78 0.49 0.47 0.36 0.33 0.35 0.31 0.36 0.44 0.45 0.54 0.57 0.64 0.76 0.80 0.83 0.90 0.90 0.85 0.82 0.79 0.67 0.62 0.56 0.48 0.51 0.49 0.44 0.44 0.35
0.08 0.14 0.27 0.32 0.43 0.49 0.52 0.44 0.34 0.39 0.60 0.62 0.87 0.94 0.79 0.65 0.69 0.71 0.61 0.48 0.44 0.40 0.58 0.48 0.47 0.48 0.38 0.22 0.21 0.29 0.52 0.73 0.77 0.77 0.74 0.76 0.84 0.92 0.91 0.83 0.79 0.63 0.52 0.49 0.44 0.38 0.37 0.36 0.22 0.14 0.18 0.25 0.18 0.16
0.20 0.18 0.24 0.27 0.25 0.29 0.21 0.11 0.16 0.25 0.38 0.65 0.67 0.91 0.71 0.80 0.76 0.70 0.69 0.60 0.53 0.51 0.53 0.50 0.41 0.39 0.47 0.43 0.49 0.68 0.75 0.86 0.86 0.77 0.76 0.85 0.79 0.76 0.73 0.63 0.63 0.49 0.37 0.35 0.28 0.28 0.26 0.20 0.14 0.19 0.17 0.15 0.09 0.09
0.46 0.42 0.47 0.36 0.29 0.16 0.12 0.10 0.03 0.17 0.56 0.60 0.58 0.46 0.38 0.48 0.47 0.47 0.38 0.34 0.25 0.16 0.14 0.16 0.22 0.38 0.58 0.66 0.72 0.75 0.72 0.56 0.51 0.51 0.54 0.64 0.65 0.62 0.61 0.54 0.47 0.41 0.29 0.25 0.18 0.18 0.19 0.18 0.19 0.18 0.15 0.10 0.12 0.14
0.62 0.53 0.48 0.33 0.19 0.15 0.18 0.12 0.02 0.11 0.43 0.50 0.43 0.21 0.18 0.25 0.17 0.06 0.03 0.02 0.02 0.03 0.09 0.25 0.56 0.68 0.66 0.72 0.61 0.58 0.55 0.48 0.37 0.29 0.35 0.45 0.51 0.43 0.48 0.40 0.37 0.33 0.24 0.22 0.21 0.19 0.16 0.17 0.17 0.13 0.11 0.09 0.08 0.08
0.33 0.19 0.11 0.06 0.05 0.04 0.09 0.08 0.12 0.11 0.19 0.25 0.20 0.08 0.12 0.04 0.02 0.02 0.02 0.01 0.04 0.14 0.44 0.65 0.61 0.65 0.50 0.50 0.46 0.43 0.46 0.41 0.44 0.29 0.28 0.31 0.39 0.28 0.32 0.34 0.29 0.23 0.20 0.23 0.20 0.21 0.18 0.16 0.15 0.11 0.08 0.07 0.06 0.05
0.04 0.01 0.00 0.00 0.00 0.00 0.02 0.01 0.07 0.06 0.02 0.07 0.04 0.02 0.03 0.02 0.01 0.00 0.00 0.04 0.26 0.48 0.50 0.42 0.40 0.31 0.24 0.29 0.31 0.24 0.32 0.26 0.31 0.35 0.35 0.31 0.31 0.31 0.35 0.38 0.27 0.27 0.27 0.25 0.21 0.16 0.12 0.09 0.06 0.04 0.02 0.02 0.01 0.00
0.00 0.00 0.00 0.00 0.00 0.00 0.03 0.00 0.01 0.03 0.01 0.02 0.01 0.01 0.02 0.02 0.02 0.01 0.05 0.16 0.44 0.57 0.39 0.20 0.20 0.16 0.21 0.29 0.19 0.19 0.21 0.19 0.25 0.33 0.35 0.33 0.32 0.32 0.26 0.24 0.20 0.15 0.12 0.11 0.07 0.04 0.02 0.01 0.00 0.00 0.00 0.00 0.00 0.00
0.00 0.00 0.00 0.00 0.00 0.00 0.00 0.00 0.00 0.00 0.00 0.00 0.00 0.03 0.04 0.03 0.00 0.02 0.08 0.22 0.43 0.29 0.19 0.22 0.16 0.12 0.13 0.16 0.20 0.27 0.32 0.25 0.22 0.22 0.22 0.16 0.13 0.13 0.08 0.07 0.04 0.03 0.03 0.01 0.00 0.00 0.00 0.00 0.00 0.00 0.00 0.00 0.00 0.01
0.00 0.00 0.00 0.00 0.00 0.00 0.00 0.01 0.01 0.00 0.01 0.01 0.02 0.05 0.03 0.01 0.02 0.03 0.08 0.24 0.20 0.20 0.25 0.25 0.18 0.18 0.21 0.24 0.25 0.22 0.17 0.10 0.08 0.08 0.10 0.06 0.05 0.03 0.01 0.01 0.00 0.01 0.00 0.00 0.00 0.00 0.00 0.00 0.00 0.00 0.00 0.01 0.01 0.01
0.01 0.03 0.01 0.02 0.01 0.01 0.01 0.01 0.01 0.02 0.02 0.03 0.05 0.05 0.03 0.04 0.04 0.09 0.14 0.21 0.17 0.21 0.26 0.29 0.28 0.20 0.18 0.15 0.11 0.09 0.07 0.03 0.01 0.00 0.02 0.01 0.01 0.00 0.00 0.00 0.00 0.01 0.01 0.01 0.01 0.01 0.00 0.00 0.00 0.00 0.01 0.01 0.01 0.03
0.02 0.02 0.02 0.02 0.01 0.01 0.01 0.02 0.01 0.02 0.05 0.07 0.07 0.04 0.07 0.10 0.09 0.17 0.21 0.18 0.19 0.24 0.23 0.21 0.15 0.11 0.10 0.08 0.06 0.04 0.01 0.00 0.00 0.00 0.00 0.00 0.00 0.00 0.00 0.00 0.01 0.02 0.01 0.01 0.01 0.01 0.02 0.02 0.02 0.01 0.01 0.02 0.03 0.03
0.02 0.01 0.01 0.01 0.01 0.01 0.02 0.03 0.04 0.08 0.10 0.08 0.07 0.05 0.05 0.08 0.17 0.23 0.23 0.26 0.17 0.13 0.10 0.09 0.06 0.04 0.04 0.05 0.07 0.05 0.02 0.02 0.00 0.00 0.01 0.01 0.01 0.00 0.01 0.01 0.01 0.00 0.01 0.01 0.01 0.01 0.02 0.03 0.03 0.03 0.02 0.02 0.01 0.02
0.02 0.01 0.01 0.00 0.01 0.02 0.07 0.08 0.09 0.08 0.08 0.05 0.05 0.07 0.08 0.14 0.21 0.22 0.23 0.21 0.17 0.12 0.08 0.07 0.09 0.06 0.03 0.01 0.00 0.00 0.00 0.00 0.00 0.00 0.00 0.02 0.03 0.02 0.01 0.02 0.01 0.01 0.01 0.01 0.01 0.01 0.03 0.04 0.04 0.02 0.01 0.01 0.02 0.05
0.01 0.01 0.01 0.01 0.02 0.07 0.12 0.07 0.09 0.07 0.02 0.02 0.03 0.06 0.08 0.20 0.31 0.21 0.16 0.14 0.12 0.11 0.10 0.09 0.10 0.07 0.06 0.04 0.01 0.00 0.01 0.00 0.00 0.00 0.01 0.01 0.01 0.02 0.02 0.02 0.02 0.02 0.02 0.02 0.01 0.01 0.01 0.01 0.01 0.01 0.01 0.02 0.02 0.02
0.00 0.01 0.01 0.01 0.06 0.09 0.07 0.04 0.05 0.07 0.05 0.04 0.04 0.05 0.08 0.15 0.16 0.13 0.11 0.12 0.07 0.07 0.06 0.05 0.03 0.02 0.01 0.01 0.01 0.00 0.02 0.01 0.01 0.01 0.01 0.01 0.02 0.02 0.02 0.02 0.02 0.02 0.03 0.02 0.02 0.01 0.01 0.00 0.01 0.01 0.01 0.01 0.01 0.01
0.00 0.01 0.01 0.02 0.09 0.09 0.09 0.11 0.07 0.11 0.10 0.06 0.07 0.05 0.08 0.07 0.06 0.08 0.08 0.07 0.06 0.05 0.03 0.04 0.03 0.03 0.01 0.00 0.00 0.00 0.00 0.00 0.00 0.01 0.01 0.01 0.02 0.02 0.02 0.01 0.02 0.03 0.02 0.01 0.01 0.01 0.01 0.01 0.02 0.01 0.02 0.02 0.01 0.00
0.01 0.00 0.00 0.01 0.05 0.07 0.06 0.06 0.05 0.05 0.05 0.05 0.07 0.07 0.08 0.06 0.06 0.10 0.08 0.05 0.06 0.04 0.02 0.02 0.02 0.02 0.02 0.00 0.00 0.00 0.00 0.00 0.00 0.01 0.02 0.02 0.01 0.01 0.01 0.01 0.02 0.01 0.01 0.01 0.01 0.01 0.01 0.02 0.02 0.01 0.01 0.00 0.00 0.01

GFSWCAN_prec_precacc_051.txt.gz
Total_Precipitation_Accumulation
0.61 0.68 0.75 0.54 0.58 0.55 0.58 0.56 0.59 0.63 0.60 0.47 0.49 0.49 0.68 0.62 0.69 0.94 1.01 1.06 1.67 1.66 0.59 0.43 0.26 0.16 0.11 0.12 0.15 0.09 0.37 0.32 0.32 0.25 0.14 0.07 0.04 0.02 0.01 0.01 0.08 0.15 0.20 0.20 0.22 0.18 0.05 0.02 0.05 0.08 0.04 0.00 0.00 0.00
0.69 0.71 0.60 0.50 0.49 0.51 0.50 0.51 0.58 0.48 0.57 0.38 0.39 0.39 0.56 0.72 0.86 0.94 1.10 0.90 1.21 1.73 1.00 0.44 0.23 0.13 0.05 0.01 0.02 0.05 0.13 0.12 0.16 0.15 0.04 0.05 0.03 0.02 0.01 0.01 0.01 0.05 0.12 0.13 0.10 0.06 0.02 0.02 0.03 0.02 0.01 0.01 0.01 0.01
0.61 0.59 0.51 0.44 0.39 0.40 0.44 0.51 0.49 0.47 0.53 0.38 0.33 0.38 0.60 0.86 0.88 0.97 1.06 0.84 1.94 1.92 1.31 0.63 0.30 0.09 0.04 0.02 0.03 0.17 0.05 0.07 0.12 0.12 0.11 0.10 0.06 0.01 0.01 0.00 0.01 0.01 0.01 0.03 0.04 0.02 0.03 0.03 0.02 0.01 0.00 0.01 0.01 0.00
0.66 0.59 0.49 0.40 0.38 0.42 0.45 0.39 0.33 0.38 0.38 0.38 0.43 0.46 0.69 0.91 0.77 1.06 1.09 1.12 2.29 1.35 1.52 0.99 0.50 0.18 0.13 0.04 0.09 0.13 0.08 0.11 0.17 0.21 0.17 0.16 0.07 0.02 0.02 0.00 0.01 0.02 0.05 0.04 0.02 0.01 0.02 0.03 0.12 0.09 0.04 0.02 0.02 0.02
0.56 0.39 0.32 0.31 0.33 0.37 0.35 0.31 0.33 0.36 0.33 0.39 0.42 0.59 0.86 0.86 0.85 1.26 1.18 1.42 1.55 1.24 0.98 1.07 0.32 0.29 0.21 0.17 0.11 0.21 0.21 0.24 0.44 0.39 0.27 0.10 0.04 0.07 0.05 0.04 0.00 0.02 0.04 0.06 0.03 0.02 0.00 0.00 0.03 0.03 0.08 0.10 0.04 0.04
0.43 0.31 0.22 0.24 0.25 0.26 0.27 0.31 0.37 0.36 0.33 0.39 0.52 0.77 0.81 0.78 1.18 1.92 2.98 2.03 1.22 1.05 1.17 1.28 0.57 0.26 0.37 0.32 0.30 0.17 0.32 0.43 0.50 0.58 0.31 0.06 0.03 0.11 0.08 0.07 0.06 0.04 0.06 0.03 0.01 0.01 0.03 0.02 0.03 0.05 0.02 0.05 0.06 0.05
0.45 0.35 0.29 0.24 0.20 0.22 0.22 0.25 0.32 0.35 0.40 0.53 0.62 0.72 0.70 0.84 0.99 1.68 1.59 1.19 0.91 1.08 1.21 1.12 0.92 0.43 0.43 0.56 0.56 0.65 0.40 0.73 1.09 0.90 0.50 0.22 0.10 0.18 0.10 0.10 0.07 0.07 0.07 0.04 0.02 0.02 0.05 0.03 0.03 0.03 0.03 0.02 0.01 0.01
0.37 0.31 0.30 0.29 0.26 0.30 0.25 0.26 0.36 0.42 0.47 0.54 0.67 0.75 0.89 0.88 1.28 1.34 0.95 1.08 0.82 1.03 1.02 0.96 0.95 0.81 0.74 0.96 0.72 0.79 0.86 0.81 0.88 1.00 0.65 0.40 0.41 0.40 0.33 0.14 0.03 0.00 0.01 0.05 0.06 0.07 0.08 0.06 0.03 0.02 0.01 0.01 0.01 0.00
0.26 0.24 0.26 0.34 0.37 0.35 0.30 0.33 0.38 0.51 0.61 0.78 0.89 1.09 1.56 1.56 1.80 1.33 1.11 1.35 1.04 0.94 0.75 0.46 0.68 1.21 1.19 1.08 0.72 0.64 1.07 0.98 0.69 0.50 0.48 0.64 0.85 0.80 0.47 0.13 0.08 0.04 0.01 0.01 0.00 0.00 0.01 0.02 0.01 0.00 0.00 0.00 0.00 0.01
0.19 0.20 0.22 0.25 0.29 0.39 0.49 0.50 0.53 0.59 0.62 0.70 1.04 1.54 1.90 1.55 1.44 1.30 1.62 1.69 1.41 0.88 0.62 0.45 0.38 0.84 1.27 1.19 1.00 0.68 0.64 0.69 0.66 0.53 0.58 0.81 0.67 0.33 0.14 0.14 0.12 0.09 0.08 0.05 0.02 0.01 0.01 0.01 0.01 0.01 0.01 0.01 0.03 0.06
0.17 0.17 0.20 0.24 0.27 0.33 0.29 0.28 0.30 0.33 0.55 0.78 0.93 1.40 1.40 1.40 1.52 1.54 1.32 1.02 0.94 0.54 0.24 0.37 0.40 0.77 0.97 1.11 0.84 0.76 0.86 0.41 0.30 0.42 0.49 0.67 0.39 0.18 0.04 0.04 0.06 0.11 0.10 0.12 0.15 0.16 0.16 0.15 0.10 0.06 0.08 0.10 0.09 0.08
0.29 0.20 0.17 0.17 0.18 0.24 0.29 0.24 0.24 0.35 0.50 0.59 0.84 0.98 1.32 1.47 1.19 0.85 0.66 0.59 0.45 0.23 0.20 0.32 0.54 1.02 0.91 1.07 0.75 0.79 0.79 0.56 0.30 0.26 0.29 0.40 0.30 0.15 0.12 0.10 0.09 0.13 0.18 0.21 0.19 0.18 0.20 0.20 0.20 0.17 0.14 0.12 0.11 0.13
0.24 0.20 0.14 0.09 0.09 0.12 0.20 0.31 0.43 0.66 0.92 0.87 0.60 0.77 0.83 0.73 0.58 0.43 0.37 0.42 0.36 0.21 0.23 0.28 0.62 1.21 0.90 0.98 0.51 0.50 0.88 0.72 0.43 0.41 0.37 0.30 0.14 0.11 0.14 0.17 0.21 0.23 0.22 0.23 0.25 0.26 0.22 0.22 0.19 0.17 0.18 0.25 0.28 0.41
0.15 0.14 0.17 0.21 0.25 0.30 0.53 0.65 0.97 1.17 0.90 0.59 0.57 0.51 0.68 0.55 0.48 0.42 0.43 0.41 0.24 0.15 0.18 0.40 0.67 0.87 1.00 1.16 0.67 0.40 0.80 0.81 0.63 0.49 0.34 0.30 0.30 0.27 0.25 0.27 0.25 0.31 0.34 0.34 0.40 0.40 0.47 0.51 0.62 0.72 0.79 0.88 0.73 0.84
0.16 0.20 0.23 0.32 0.40 0.53 0.71 0.85 1.05 0.68 0.39 0.47 0.59 0.69 0.55 0.66 0.58 0.59 0.50 0.37 0.28 0.27 0.31 0.49 0.76 0.64 0.73 1.28 0.69 0.48 0.51 0.47 0.33 0.30 0.38 0.52 0.51 0.47 0.49 0.54 0.58 0.66 0.71 0.79 0.86 0.81 0.89 0.85 0.69 0.83 0.90 0.83 0.67 0.67
0.15 0.18 0.24 0.31 0.42 0.51 0.72 0.74 0.66 0.45 0.46 0.57 0.75 0.67 0.53 0.52 0.52 0.49 0.41 0.36 0.36 0.42 0.49 0.77 0.78 0.50 0.47 0.38 0.33 0.35 0.31 0.36 0.44 0.46 0.55 0.58 0.65 0.77 0.82 0.86 0.94 0.94 0.90 0.86 0.84 0.73 0.67 0.61 0.52 0.56 0.55 0.49 0.49 0.39
0.08 0.14 0.28 0.32 0.43 0.49 0.52 0.44 0.34 0.39 0.60 0.62 0.87 0.94 0.80 0.66 0.71 0.72 0.62 0.50 0.46 0.43 0.60 0.49 0.47 0.48 0.38 0.22 0.21 0.30 0.52 0.73 0.78 0.79 0.77 0.78 0.86 0.95 0.94 0.86 0.84 0.69 0.59 0.55 0.49 0.42 0.40 0.39 0.25 0.16 0.20 0.27 0.19 0.17
0.20 0.18 0.24 0.27 0.25 0.29 0.21 0.11 0.16 0.25 0.38 0.66 0.68 0.92 0.72 0.81 0.79 0.73 0.73 0.66 0.57 0.54 0.56 0.51 0.41 0.39 0.47 0.43 0.49 0.69 0.77 0.89 0.89 0.80 0.80 0.89 0.82 0.79 0.76 0.67 0.67 0.52 0.40 0.37 0.30 0.29 0.26 0.20 0.15 0.19 0.17 0.15 0.09 0.09
0.46 0.42 0.47 0.36 0.29 0.16 0.12 0.10 0.03 0.17 0.56 0.60 0.60 0.48 0.41 0.53 0.53 0.51 0.42 0.38 0.28 0.17 0.15 0.16 0.23 0.39 0.59 0.67 0.73 0.79 0.78 0.59 0.54 0.54 0.58 0.68 0.69 0.66 0.64 0.57 0.50 0.42 0.30 0.26 0.18 0.18 0.19 0.18 0.19 0.18 0.15 0.10 0.12 0.14
0.62 0.53 0.48 0.33 0.19 0.15 0.18 0.12 0.02 0.11 0.43 0.50 0.46 0.24 0.21 0.29 0.20 0.09 0.04 0.02 0.02 0.03 0.10 0.26 0.59 0.72 0.69 0.77 0.64 0.61 0.58 0.50 0.38 0.30 0.37 0.47 0.53 0.45 0.49 0.41 0.38 0.33 0.24 0.22 0.21 0.19 0.16 0.17 0.17 0.13 0.11 0.09 0.08 0.08
0.33 0.19 0.11 0.06 0.05 0.04 0.09 0.08 0.12 0.11 0.19 0.26 0.21 0.08 0.13 0.04 0.03 0.02 0.02 0.01 0.04 0.14 0.46 0.69 0.66 0.71 0.54 0.54 0.48 0.43 0.47 0.42 0.45 0.29 0.28 0.32 0.40 0.28 0.32 0.34 0.29 0.23 0.20 0.23 0.20 0.21 0.18 0.16 0.15 0.11 0.08 0.07 0.06 0.05
0.04 0.01 0.00 0.00 0.00 0.00 0.02 0.01 0.07 0.06 0.02 0.07 0.04 0.02 0.03 0.02 0.01 0.00 0.00 0.04 0.27 0.50 0.53 0.44 0.42 0.33 0.25 0.30 0.32 0.25 0.33 0.26 0.31 0.35 0.36 0.31 0.31 0.31 0.35 0.38 0.27 0.27 0.27 0.25 0.21 0.16 0.12 0.09 0.06 0.04 0.02 0.02 0.01 0.00
0.00 0.00 0.00 0.00 0.00 0.00 0.04 0.01 0.01 0.03 0.01 0.02 0.01 0.01 0.02 0.02 0.02 0.01 0.05 0.17 0.47 0.61 0.42 0.21 0.21 0.17 0.21 0.30 0.19 0.19 0.21 0.19 0.25 0.33 0.35 0.33 0.32 0.32 0.26 0.24 0.20 0.15 0.12 0.11 0.07 0.04 0.02 0.01 0.01 0.00 0.00 0.00 0.00 0.00
0.00 0.00 0.00 0.00 0.00 0.00 0.00 0.00 0.00 0.00 0.00 0.00 0.00 0.03 0.04 0.03 0.00 0.02 0.09 0.22 0.45 0.32 0.21 0.24 0.16 0.13 0.13 0.16 0.20 0.27 0.32 0.25 0.22 0.22 0.22 0.16 0.13 0.13 0.08 0.07 0.04 0.03 0.03 0.01 0.00 0.00 0.00 0.00 0.00 0.00 0.00 0.00 0.00 0.01
0.00 0.00 0.00 0.00 0.00 0.00 0.00 0.01 0.01 0.00 0.01 0.01 0.02 0.05 0.03 0.01 0.02 0.03 0.08 0.24 0.21 0.21 0.25 0.25 0.18 0.18 0.21 0.24 0.25 0.22 0.17 0.10 0.08 0.08 0.10 0.06 0.05 0.03 0.01 0.01 0.00 0.01 0.00 0.00 0.00 0.00 0.00 0.00 0.00 0.00 0.00 0.01 0.01 0.01
0.02 0.03 0.01 0.02 0.01 0.01 0.01 0.01 0.01 0.02 0.02 0.03 0.05 0.05 0.03 0.04 0.04 0.09 0.14 0.21 0.17 0.21 0.26 0.29 0.28 0.20 0.18 0.15 0.11 0.09 0.07 0.03 0.01 0.00 0.02 0.01 0.01 0.00 0.00 0.00 0.00 0.01 0.01 0.01 0.01 0.01 0.00 0.00 0.00 0.00 0.01 0.01 0.01 0.03
0.02 0.02 0.02 0.02 0.01 0.01 0.01 0.02 0.01 0.02 0.05 0.07 0.07 0.04 0.07 0.10 0.09 0.17 0.22 0.19 0.19 0.24 0.23 0.21 0.15 0.11 0.10 0.08 0.06 0.04 0.01 0.00 0.00 0.00 0.00 0.00 0.00 0.00 0.00 0.00 0.01 0.02 0.01 0.01 0.01 0.01 0.02 0.02 0.02 0.01 0.01 0.02 0.03 0.03
0.02 0.01 0.01 0.01 0.01 0.01 0.02 0.03 0.04 0.08 0.10 0.08 0.07 0.05 0.05 0.08 0.17 0.24 0.24 0.27 0.18 0.13 0.10 0.09 0.06 0.04 0.04 0.05 0.07 0.05 0.02 0.02 0.00 0.00 0.01 0.01 0.01 0.00 0.01 0.01 0.01 0.00 0.01 0.01 0.01 0.01 0.02 0.03 0.03 0.03 0.02 0.02 0.01 0.02
0.02 0.01 0.01 0.00 0.01 0.02 0.07 0.09 0.09 0.09 0.08 0.05 0.05 0.08 0.09 0.15 0.22 0.23 0.25 0.22 0.17 0.12 0.08 0.07 0.09 0.06 0.03 0.01 0.00 0.00 0.00 0.00 0.00 0.00 0.00 0.02 0.03 0.02 0.01 0.02 0.01 0.01 0.01 0.01 0.01 0.01 0.03 0.04 0.04 0.02 0.01 0.01 0.02 0.05
0.01 0.01 0.01 0.01 0.02 0.07 0.12 0.08 0.10 0.07 0.02 0.03 0.04 0.07 0.09 0.22 0.34 0.23 0.17 0.15 0.12 0.11 0.10 0.09 0.10 0.07 0.06 0.04 0.01 0.00 0.01 0.00 0.00 0.00 0.01 0.01 0.01 0.02 0.02 0.02 0.02 0.02 0.02 0.02 0.01 0.01 0.01 0.01 0.01 0.01 0.01 0.02 0.02 0.02
0.00 0.01 0.01 0.01 0.06 0.09 0.08 0.05 0.05 0.07 0.05 0.04 0.04 0.05 0.09 0.16 0.17 0.14 0.12 0.12 0.07 0.07 0.06 0.05 0.03 0.02 0.01 0.01 0.01 0.00 0.02 0.01 0.01 0.01 0.01 0.01 0.02 0.02 0.02 0.02 0.02 0.02 0.03 0.02 0.02 0.01 0.01 0.00 0.01 0.01 0.01 0.01 0.01 0.01
0.00 0.01 0.01 0.02 0.09 0.10 0.09 0.11 0.07 0.11 0.10 0.06 0.07 0.05 0.08 0.07 0.06 0.08 0.08 0.08 0.06 0.05 0.03 0.04 0.03 0.03 0.01 0.00 0.00 0.00 0.00 0.00 0.00 0.01 0.01 0.01 0.02 0.02 0.02 0.01 0.02 0.03 0.02 0.01 0.01 0.01 0.01 0.01 0.02 0.01 0.02 0.02 0.01 0.00
0.01 0.00 0.00 0.01 0.05 0.07 0.07 0.06 0.05 0.05 0.05 0.05 0.07 0.08 0.08 0.06 0.07 0.10 0.08 0.06 0.07 0.04 0.02 0.02 0.02 0.02 0.02 0.00 0.00 0.00 0.00 0.00 0.00 0.01 0.02 0.02 0.01 0.01 0.01 0.01 0.02 0.01 0.01 0.01 0.01 0.01 0.01 0.02 0.02 0.01 0.01 0.00 0.00 0.01

GFSWCAN_prec_precacc_054.txt.gz
Total_Precipitation_Accumulation
0.67 0.78 0.88 0.64 0.66 0.62 0.60 0.56 0.59 0.64 0.61 0.48 0.52 0.51 0.71 0.64 0.71 0.99 1.04 1.11 1.74 1.76 0.65 0.45 0.26 0.17 0.12 0.16 0.25 0.15 0.48 0.44 0.43 0.31 0.16 0.08 0.05 0.02 0.01 0.02 0.09 0.16 0.20 0.21 0.23 0.19 0.05 0.02 0.06 0.08 0.04 0.00 0.00 0.00
0.78 0.80 0.68 0.55 0.52 0.53 0.52 0.53 0.59 0.50 0.59 0.41 0.43 0.44 0.60 0.76 0.89 0.99 1.16 0.94 1.29 1.89 1.09 0.45 0.24 0.15 0.05 0.02 0.07 0.16 0.16 0.13 0.17 0.17 0.05 0.06 0.04 0.02 0.01 0.01 0.02 0.06 0.12 0.13 0.10 0.06 0.02 0.02 0.04 0.03 0.01 0.01 0.01 0.01
0.67 0.66 0.59 0.50 0.42 0.41 0.45 0.52 0.50 0.49 0.56 0.43 0.37 0.43 0.66 0.92 0.93 1.04 1.17 0.91 2.06 2.19 1.45 0.65 0.31 0.10 0.04 0.03 0.06 0.23 0.08 0.08 0.13 0.13 0.14 0.12 0.07 0.01 0.01 0.01 0.01 0.01 0.01 0.03 0.04 0.02 0.03 0.03 0.02 0.01 0.00 0.01 0.01 0.00
0.70 0.63 0.54 0.44 0.41 0.44 0.46 0.40 0.34 0.39 0.40 0.43 0.48 0.52 0.74 0.97 0.83 1.17 1.25 1.22 2.42 1.50 1.58 1.01 0.50 0.18 0.13 0.06 0.12 0.15 0.10 0.13 0.19 0.24 0.21 0.18 0.09 0.02 0.02 0.00 0.01 0.02 0.05 0.04 0.02 0.01 0.02 0.03 0.12 0.09 0.04 0.02 0.02 0.02
0.59 0.40 0.33 0.32 0.33 0.38 0.36 0.32 0.34 0.37 0.35 0.43 0.48 0.64 0.90 0.93 0.95 1.44 1.31 1.53 1.61 1.29 1.05 1.08 0.32 0.29 0.21 0.17 0.13 0.26 0.27 0.27 0.48 0.45 0.33 0.16 0.06 0.08 0.06 0.04 0.00 0.02 0.04 0.06 0.03 0.02 0.00 0.00 0.03 0.03 0.08 0.10 0.04 0.04
0.45 0.33 0.24 0.25 0.26 0.27 0.28 0.32 0.38 0.37 0.33 0.41 0.59 0.82 0.87 0.87 1.37 2.21 3.31 2.28 1.29 1.11 1.22 1.29 0.57 0.26 0.37 0.32 0.31 0.19 0.36 0.48 0.57 0.65 0.34 0.08 0.04 0.13 0.10 0.08 0.06 0.04 0.06 0.03 0.01 0.01 0.03 0.02 0.03 0.05 0.02 0.05 0.06 0.05
0.46 0.38 0.32 0.25 0.22 0.24 0.24 0.26 0.33 0.37 0.41 0.56 0.67 0.76 0.76 0.98 1.22 1.81 1.67 1.25 0.94 1.14 1.26 1.13 0.92 0.43 0.43 0.56 0.57 0.68 0.43 0.78 1.16 0.96 0.54 0.25 0.13 0.22 0.14 0.12 0.08 0.07 0.07 0.04 0.02 0.02 0.05 0.03 0.03 0.03 0.03 0.02 0.01 0.01
0.39 0.36 0.35 0.30 0.30 0.36 0.26 0.28 0.36 0.43 0.49 0.57 0.70 0.79 0.99 1.07 1.48 1.41 0.99 1.09 0.84 1.09 1.06 0.97 0.96 0.82 0.74 0.96 0.73 0.80 0.91 0.89 1.06 1.15 0.73 0.44 0.45 0.44 0.37 0.14 0.03 0.00 0.01 0.05 0.06 0.07 0.08 0.06 0.03 0.02 0.01 0.01 0.01 0.00
0.32 0.28 0.30 0.38 0.41 0.37 0.30 0.33 0.39 0.53 0.64 0.82 0.93 1.21 1.95 1.76 1.96 1.43 1.25 1.42 1.09 1.00 0.79 0.47 0.69 1.22 1.20 1.09 0.73 0.66 1.10 1.15 0.85 0.67 0.57 0.66 0.92 0.85 0.48 0.13 0.08 0.04 0.01 0.01 0.00 0.00 0.01 0.02 0.02 0.01 0.00 0.00 0.00 0.01
0.25 0.27 0.28 0.30 0.36 0.49 0.55 0.55 0.58 0.63 0.68 0.75 1.15 1.80 2.19 1.61 1.45 1.40 1.90 1.88 1.56 0.93 0.62 0.45 0.38 0.84 1.33 1.24 1.03 0.71 0.67 0.72 0.72 0.59 0.62 0.84 0.68 0.34 0.14 0.15 0.12 0.09 0.08 0.05 0.02 0.02 0.02 0.02 0.01 0.01 0.02 0.02 0.04 0.07
0.20 0.23 0.26 0.27 0.31 0.40 0.41 0.41 0.43 0.44 0.58 0.85 1.10 1.59 1.48 1.50 1.59 1.64 1.47 1.07 0.95 0.55 0.24 0.37 0.40 0.77 0.99 1.20 0.87 0.78 0.88 0.43 0.34 0.46 0.51 0.68 0.39 0.19 0.04 0.04 0.06 0.11 0.10 0.12 0.15 0.17 0.17 0.16 0.12 0.08 0.11 0.13 0.12 0.11
0.29 0.22 0.22 0.21 0.22 0.28 0.34 0.32 0.28 0.36 0.53 0.62 0.90 1.07 1.51 1.60 1.25 0.88 0.67 0.60 0.45 0.24 0.20 0.32 0.54 1.02 0.91 1.15 0.86 0.81 0.80 0.57 0.33 0.27 0.29 0.40 0.31 0.15 0.12 0.10 0.09 0.14 0.18 0.22 0.20 0.19 0.22 0.22 0.23 0.20 0.17 0.16 0.15 0.17
0.24 0.20 0.16 0.12 0.13 0.14 0.21 0.33 0.44 0.66 0.92 0.87 0.60 0.78 0.85 0.74 0.58 0.44 0.38 0.44 0.38 0.23 0.25 0.30 0.66 1.32 1.00 1.23 0.93 0.57 0.92 0.74 0.44 0.42 0.38 0.31 0.14 0.11 0.14 0.18 0.21 0.23 0.23 0.25 0.27 0.29 0.25 0.25 0.23 0.21 0.21 0.29 0.31 0.44
0.15 0.14 0.17 0.21 0.26 0.30 0.53 0.65 0.97 1.17 0.90 0.59 0.57 0.51 0.68 0.55 0.48 0.42 0.43 0.41 0.24 0.15 0.19 0.46 0.80 1.04 1.10 1.27 0.86 0.43 0.81 0.82 0.64 0.50 0.35 0.31 0.30 0.28 0.26 0.28 0.25 0.33 0.36 0.36 0.43 0.44 0.50 0.54 0.65 0.76 0.83 0.93 0.77 0.87
0.16 0.20 0.23 0.32 0.40 0.53 0.71 0.85 1.05 0.68 0.39 0.47 0.59 0.69 0.55 0.66 0.58 0.60 0.50 0.37 0.29 0.28 0.33 0.54 0.82 0.68 0.74 1.28 0.70 0.49 0.51 0.47 0.33 0.31 0.39 0.53 0.52 0.49 0.51 0.56 0.60 0.68 0.74 0.82 0.89 0.84 0.92 0.88 0.71 0.86 0.95 0.88 0.72 0.71
0.15 0.18 0.24 0.31 0.42 0.51 0.72 0.74 0.66 0.45 0.46 0.57 0.75 0.67 0.53 0.52 0.52 0.50 0.42 0.37 0.37 0.43 0.50 0.77 0.79 0.50 0.48 0.39 0.34 0.35 0.31 0.36 0.45 0.47 0.56 0.59 0.66 0.79 0.84 0.88 0.96 0.97 0.92 0.89 0.87 0.76 0.71 0.65 0.57 0.60 0.59 0.53 0.53 0.43
0.08 0.14 0.28 0.32 0.43 0.49 0.52 0.44 0.34 0.39 0.60 0.62 0.87 0.95 0.80 0.67 0.72 0.73 0.63 0.51 0.47 0.44 0.60 0.49 0.47 0.48 0.38 0.22 0.21 0.30 0.52 0.74 0.79 0.81 0.79 0.80 0.88 0.97 0.97 0.88 0.85 0.71 0.61 0.58 0.52 0.46 0.44 0.42 0.28 0.17 0.21 0.28 0.20 0.17
0.20 0.18 0.24 0.27 0.25 0.29 0.21 0.11 0.16 0.25 0.38 0.66 0.68 0.93 0.73 0.82 0.80 0.74 0.75 0.67 0.59 0.55 0.56 0.52 0.41 0.39 0.47 0.44 0.49 0.70 0.79 0.92 0.91 0.82 0.83 0.93 0.86 0.82 0.79 0.69 0.69 0.54 0.42 0.40 0.32 0.31 0.28 0.21 0.15 0.19 0.17 0.15 0.09 0.09
0.46 0.42 0.47 0.36 0.29 0.16 0.12 0.10 0.03 0.17 0.56 0.61 0.61 0.49 0.42 0.55 0.55 0.54 0.45 0.41 0.28 0.18 0.15 0.17 0.24 0.40 0.60 0.69 0.75 0.82 0.81 0.62 0.57 0.57 0.60 0.71 0.72 0.69 0.67 0.59 0.52 0.44 0.31 0.27 0.18 0.18 0.20 0.18 0.20 0.18 0.15 0.10 0.12 0.14
0.62 0.53 0.48 0.33 0.19 0.15 0.18 0.12 0.02 0.11 0.44 0.52 0.48 0.26 0.23 0.32 0.23 0.12 0.06 0.03 0.02 0.03 0.10 0.27 0.62 0.75 0.72 0.81 0.66 0.63 0.60 0.52 0.39 0.31 0.38 0.49 0.55 0.46 0.50 0.42 0.38 0.33 0.24 0.22 0.21 0.19 0.16 0.17 0.17 0.13 0.11 0.09 0.08 0.08
0.33 0.19 0.11 0.06 0.05 0.04 0.09 0.08 0.12 0.11 0.21 0.30 0.25 0.11 0.17 0.06 0.05 0.04 0.03 0.01 0.04 0.15 0.49 0.73 0.70 0.76 0.57 0.57 0.50 0.44 0.48 0.43 0.46 0.30 0.29 0.32 0.41 0.29 0.32 0.34 0.29 0.23 0.20 0.23 0.20 0.21 0.18 0.16 0.15 0.11 0.08 0.07 0.06 0.06
0.04 0.01 0.00 0.00 0.00 0.00 0.02 0.01 0.07 0.06 0.03 0.07 0.05 0.02 0.03 0.02 0.02 0.01 0.00 0.04 0.30 0.54 0.56 0.47 0.44 0.34 0.25 0.31 0.33 0.26 0.33 0.26 0.31 0.35 0.36 0.31 0.31 0.31 0.35 0.38 0.27 0.27 0.27 0.25 0.21 0.17 0.12 0.09 0.06 0.04 0.02 0.02 0.01 0.00
0.00 0.00 0.00 0.00 0.00 0.00 0.04 0.01 0.01 0.03 0.01 0.02 0.01 0.01 0.02 0.02 0.02 0.01 0.05 0.17 0.49 0.64 0.45 0.22 0.22 0.17 0.22 0.31 0.20 0.19 0.22 0.19 0.25 0.33 0.35 0.33 0.32 0.32 0.26 0.24 0.20 0.15 0.12 0.11 0.07 0.04 0.02 0.01 0.01 0.00 0.00 0.00 0.00 0.00
0.00 0.00 0.00 0.00 0.00 0.00 0.00 0.00 0.00 0.00 0.00 0.00 0.00 0.03 0.04 0.03 0.00 0.02 0.09 0.23 0.47 0.34 0.22 0.25 0.17 0.13 0.14 0.16 0.20 0.27 0.32 0.25 0.22 0.22 0.22 0.16 0.13 0.13 0.08 0.07 0.04 0.03 0.03 0.01 0.00 0.00 0.00 0.00 0.00 0.00 0.00 0.00 0.01 0.01
0.00 0.00 0.00 0.00 0.00 0.00 0.00 0.01 0.01 0.00 0.01 0.01 0.02 0.05 0.03 0.01 0.02 0.03 0.08 0.24 0.22 0.22 0.26 0.25 0.19 0.18 0.21 0.25 0.25 0.22 0.17 0.10 0.08 0.08 0.10 0.06 0.05 0.03 0.01 0.01 0.00 0.01 0.00 0.00 0.00 0.00 0.00 0.00 0.00 0.00 0.00 0.01 0.01 0.01
0.02 0.03 0.01 0.02 0.01 0.01 0.01 0.01 0.01 0.02 0.02 0.03 0.05 0.05 0.03 0.04 0.04 0.09 0.15 0.21 0.17 0.21 0.26 0.29 0.28 0.20 0.18 0.15 0.11 0.09 0.07 0.03 0.01 0.00 0.02 0.01 0.01 0.00 0.00 0.00 0.00 0.01 0.01 0.01 0.01 0.01 0.01 0.00 0.00 0.00 0.01 0.01 0.01 0.03
0.02 0.02 0.02 0.03 0.01 0.01 0.01 0.02 0.01 0.02 0.05 0.07 0.07 0.04 0.07 0.10 0.09 0.18 0.23 0.19 0.19 0.24 0.23 0.21 0.15 0.11 0.10 0.08 0.06 0.04 0.01 0.00 0.00 0.00 0.00 0.00 0.00 0.00 0.00 0.00 0.01 0.02 0.01 0.01 0.01 0.01 0.02 0.02 0.02 0.01 0.01 0.02 0.03 0.03
0.02 0.01 0.01 0.01 0.01 0.01 0.02 0.03 0.04 0.08 0.11 0.08 0.07 0.05 0.05 0.08 0.18 0.25 0.25 0.28 0.18 0.13 0.10 0.09 0.06 0.04 0.04 0.05 0.07 0.05 0.02 0.02 0.00 0.00 0.01 0.01 0.01 0.00 0.01 0.01 0.01 0.01 0.01 0.01 0.01 0.01 0.02 0.03 0.03 0.03 0.03 0.02 0.01 0.02
0.02 0.01 0.01 0.00 0.01 0.02 0.07 0.09 0.09 0.09 0.08 0.05 0.05 0.08 0.09 0.15 0.23 0.24 0.26 0.22 0.17 0.12 0.08 0.07 0.09 0.06 0.03 0.01 0.00 0.00 0.00 0.00 0.00 0.00 0.00 0.02 0.03 0.02 0.01 0.02 0.01 0.01 0.01 0.01 0.01 0.01 0.03 0.04 0.04 0.02 0.01 0.02 0.03 0.05
0.01 0.01 0.01 0.01 0.02 0.07 0.13 0.09 0.10 0.08 0.02 0.03 0.04 0.07 0.09 0.24 0.36 0.24 0.18 0.15 0.12 0.11 0.10 0.09 0.10 0.07 0.06 0.04 0.01 0.01 0.01 0.00 0.00 0.00 0.01 0.01 0.01 0.02 0.02 0.03 0.02 0.02 0.02 0.02 0.01 0.01 0.01 0.01 0.01 0.01 0.02 0.02 0.03 0.02
0.00 0.01 0.01 0.01 0.07 0.10 0.09 0.05 0.05 0.07 0.05 0.04 0.04 0.05 0.09 0.17 0.19 0.15 0.12 0.12 0.07 0.07 0.06 0.05 0.03 0.02 0.01 0.01 0.01 0.00 0.02 0.01 0.01 0.01 0.01 0.01 0.02 0.02 0.02 0.02 0.02 0.03 0.03 0.02 0.02 0.01 0.01 0.00 0.01 0.01 0.01 0.01 0.01 0.01
0.00 0.01 0.01 0.02 0.10 0.10 0.10 0.11 0.07 0.11 0.10 0.06 0.07 0.05 0.08 0.07 0.07 0.08 0.09 0.08 0.06 0.05 0.04 0.04 0.04 0.03 0.01 0.00 0.00 0.00 0.00 0.00 0.00 0.01 0.01 0.01 0.02 0.02 0.02 0.01 0.02 0.03 0.02 0.01 0.01 0.01 0.01 0.01 0.02 0.01 0.02 0.02 0.01 0.00
0.01 0.00 0.00 0.01 0.05 0.07 0.07 0.06 0.05 0.05 0.05 0.05 0.07 0.08 0.08 0.06 0.07 0.11 0.09 0.06 0.07 0.04 0.02 0.02 0.02 0.02 0.02 0.00 0.00 0.00 0.00 0.00 0.00 0.01 0.02 0.02 0.01 0.01 0.01 0.01 0.02 0.01 0.01 0.01 0.01 0.01 0.01 0.02 0.02 0.01 0.01 0.00 0.00 0.01

GFSWCAN_prec_precacc_057.txt.gz
Total_Precipitation_Accumulation
0.69 0.80 0.90 0.69 0.74 0.72 0.73 0.67 0.67 0.69 0.61 0.48 0.52 0.52 0.73 0.66 0.73 1.04 1.07 1.16 1.81 1.80 0.65 0.46 0.28 0.18 0.15 0.20 0.30 0.20 0.60 0.53 0.51 0.37 0.20 0.12 0.07 0.03 0.03 0.08 0.12 0.16 0.21 0.22 0.24 0.22 0.06 0.02 0.06 0.09 0.08 0.01 0.00 0.00
0.78 0.81 0.71 0.61 0.60 0.62 0.60 0.60 0.65 0.55 0.61 0.41 0.43 0.44 0.61 0.77 0.91 1.04 1.20 0.97 1.37 1.95 1.11 0.46 0.25 0.15 0.06 0.03 0.09 0.22 0.26 0.17 0.19 0.21 0.09 0.10 0.07 0.04 0.02 0.03 0.05 0.08 0.12 0.13 0.10 0.06 0.02 0.02 0.06 0.04 0.01 0.01 0.01 0.01
0.68 0.67 0.61 0.54 0.48 0.48 0.50 0.55 0.52 0.50 0.57 0.43 0.37 0.43 0.67 0.94 0.95 1.09 1.20 0.95 2.14 2.25 1.51 0.68 0.32 0.10 0.04 0.04 0.08 0.30 0.12 0.19 0.18 0.17 0.21 0.17 0.11 0.03 0.03 0.02 0.03 0.02 0.02 0.05 0.08 0.02 0.03 0.03 0.02 0.01 0.00 0.01 0.01 0.00
0.75 0.66 0.55 0.44 0.42 0.46 0.48 0.42 0.35 0.40 0.41 0.43 0.49 0.53 0.77 1.00 0.88 1.23 1.30 1.27 2.48 1.57 1.64 1.02 0.50 0.18 0.13 0.08 0.15 0.17 0.12 0.17 0.24 0.29 0.28 0.25 0.13 0.04 0.04 0.01 0.01 0.02 0.06 0.05 0.03 0.01 0.02 0.03 0.12 0.09 0.04 0.02 0.02 0.02
0.64 0.41 0.33 0.32 0.33 0.38 0.37 0.32 0.35 0.37 0.35 0.44 0.49 0.69 0.95 0.98 1.01 1.52 1.36 1.57 1.65 1.34 1.15 1.13 0.33 0.29 0.21 0.18 0.15 0.30 0.31 0.34 0.59 0.51 0.38 0.18 0.08 0.10 0.08 0.07 0.01 0.02 0.04 0.08 0.05 0.04 0.01 0.02 0.03 0.03 0.08 0.10 0.04 0.04
0.47 0.34 0.24 0.26 0.27 0.27 0.29 0.32 0.38 0.38 0.34 0.42 0.62 0.89 0.95 0.96 1.47 2.40 3.59 2.40 1.34 1.16 1.32 1.37 0.60 0.26 0.37 0.33 0.34 0.23 0.43 0.62 0.72 0.76 0.38 0.10 0.05 0.17 0.15 0.11 0.07 0.06 0.06 0.03 0.02 0.01 0.03 0.02 0.03 0.05 0.02 0.05 0.06 0.05
0.47 0.39 0.34 0.26 0.23 0.26 0.25 0.27 0.34 0.38 0.42 0.58 0.75 0.88 0.85 1.11 1.37 1.93 1.78 1.32 1.03 1.25 1.44 1.23 0.96 0.43 0.43 0.57 0.61 0.73 0.50 0.88 1.33 1.11 0.62 0.28 0.16 0.28 0.18 0.14 0.09 0.07 0.07 0.04 0.02 0.02 0.05 0.03 0.03 0.03 0.03 0.02 0.01 0.01
0.41 0.37 0.36 0.33 0.30 0.37 0.27 0.28 0.37 0.44 0.50 0.62 0.80 0.90 1.08 1.20 1.56 1.47 1.01 1.10 0.87 1.22 1.17 1.04 1.00 0.84 0.74 0.97 0.75 0.83 0.96 0.95 1.10 1.18 0.74 0.45 0.48 0.50 0.44 0.15 0.03 0.00 0.01 0.05 0.06 0.07 0.08 0.06 0.03 0.02 0.01 0.01 0.01 0.00
0.39 0.33 0.36 0.45 0.42 0.39 0.30 0.33 0.39 0.55 0.67 0.89 1.05 1.41 2.28 1.97 2.10 1.50 1.28 1.43 1.11 1.06 0.83 0.48 0.70 1.24 1.21 1.09 0.74 0.68 1.13 1.19 0.88 0.68 0.61 0.71 0.95 0.89 0.51 0.14 0.08 0.04 0.01 0.01 0.00 0.00 0.01 0.02 0.02 0.01 0.00 0.01 0.00 0.01
0.34 0.30 0.31 0.31 0.37 0.49 0.55 0.56 0.59 0.65 0.75 0.93 1.44 2.20 2.47 1.69 1.51 1.63 2.16 2.08 1.74 1.01 0.66 0.46 0.40 0.87 1.34 1.26 1.05 0.74 0.70 0.74 0.76 0.64 0.69 0.89 0.74 0.35 0.14 0.15 0.12 0.09 0.08 0.05 0.02 0.02 0.02 0.02 0.02 0.01 0.02 0.03 0.04 0.08
0.29 0.27 0.30 0.33 0.36 0.43 0.42 0.43 0.46 0.49 0.69 1.04 1.33 1.84 1.56 1.59 1.72 1.81 1.60 1.19 1.05 0.59 0.25 0.38 0.43 0.78 1.00 1.26 0.90 0.81 0.91 0.46 0.36 0.48 0.55 0.73 0.41 0.20 0.04 0.04 0.06 0.11 0.10 0.12 0.16 0.17 0.18 0.17 0.13 0.09 0.11 0.14 0.13 0.12
0.35 0.26 0.24 0.25 0.28 0.36 0.41 0.37 0.31 0.38 0.59 0.68 1.06 1.13 1.56 1.69 1.32 0.92 0.71 0.62 0.45 0.25 0.21 0.33 0.55 1.04 0.92 1.18 0.91 0.85 0.84 0.59 0.37 0.28 0.31 0.43 0.32 0.15 0.12 0.11 0.09 0.14 0.18 0.22 0.20 0.20 0.23 0.23 0.23 0.20 0.18 0.17 0.17 0.20
0.25 0.21 0.17 0.16 0.17 0.20 0.29 0.37 0.44 0.66 0.93 0.88 0.61 0.82 0.87 0.76 0.59 0.45 0.39 0.45 0.39 0.24 0.26 0.31 0.67 1.32 1.00 1.23 0.97 0.62 0.96 0.77 0.44 0.44 0.40 0.33 0.15 0.11 0.14 0.18 0.21 0.24 0.23 0.25 0.28 0.30 0.27 0.27 0.25 0.23 0.23 0.32 0.34 0.47
0.15 0.14 0.17 0.21 0.27 0.33 0.54 0.66 0.98 1.17 0.91 0.59 0.57 0.52 0.68 0.55 0.49 0.43 0.44 0.42 0.24 0.16 0.20 0.47 0.83 1.07 1.15 1.36 1.02 0.55 0.83 0.82 0.65 0.51 0.36 0.32 0.31 0.28 0.27 0.28 0.26 0.33 0.36 0.37 0.43 0.45 0.51 0.55 0.67 0.78 0.85 0.96 0.80 0.89
0.16 0.20 0.23 0.32 0.40 0.54 0.71 0.85 1.05 0.68 0.39 0.47 0.59 0.69 0.56 0.67 0.59 0.61 0.51 0.38 0.29 0.29 0.34 0.57 0.89 0.79 0.80 1.37 0.77 0.53 0.52 0.48 0.34 0.32 0.41 0.55 0.53 0.49 0.51 0.57 0.60 0.69 0.75 0.83 0.91 0.86 0.94 0.91 0.73 0.88 0.98 0.91 0.74 0.74
0.15 0.18 0.24 0.31 0.42 0.51 0.72 0.74 0.66 0.45 0.46 0.57 0.75 0.68 0.54 0.54 0.54 0.51 0.43 0.39 0.38 0.45 0.52 0.84 0.88 0.61 0.53 0.40 0.34 0.36 0.32 0.37 0.46 0.48 0.58 0.60 0.67 0.80 0.86 0.90 0.97 0.98 0.94 0.92 0.90 0.79 0.73 0.68 0.59 0.62 0.61 0.55 0.55 0.44
0.08 0.14 0.28 0.32 0.43 0.49 0.52 0.44 0.34 0.39 0.60 0.63 0.88 0.96 0.81 0.68 0.73 0.75 0.64 0.52 0.48 0.46 0.62 0.50 0.48 0.49 0.39 0.22 0.21 0.30 0.54 0.76 0.81 0.83 0.81 0.82 0.89 0.99 0.98 0.90 0.87 0.73 0.62 0.60 0.54 0.47 0.45 0.44 0.29 0.18 0.22 0.29 0.20 0.17
0.20 0.18 0.24 0.27 0.25 0.29 0.21 0.11 0.16 0.25 0.39 0.67 0.69 0.95 0.74 0.84 0.81 0.75 0.76 0.68 0.60 0.55 0.56 0.52 0.41 0.39 0.47 0.44 0.50 0.71 0.81 0.94 0.94 0.85 0.86 0.96 0.88 0.85 0.82 0.71 0.71 0.56 0.44 0.41 0.33 0.31 0.28 0.21 0.15 0.19 0.17 0.15 0.09 0.09
0.46 0.42 0.47 0.36 0.29 0.16 0.12 0.10 0.03 0.17 0.57 0.62 0.62 0.50 0.43 0.56 0.56 0.56 0.46 0.41 0.28 0.18 0.15 0.17 0.24 0.41 0.61 0.71 0.76 0.84 0.84 0.64 0.59 0.60 0.62 0.74 0.74 0.71 0.69 0.61 0.54 0.46 0.32 0.27 0.18 0.18 0.20 0.18 0.20 0.18 0.15 0.10 0.12 0.14
0.62 0.53 0.48 0.33 0.19 0.15 0.18 0.12 0.02 0.11 0.45 0.53 0.49 0.27 0.24 0.33 0.24 0.13 0.07 0.03 0.02 0.03 0.10 0.27 0.63 0.78 0.75 0.84 0.69 0.65 0.62 0.53 0.40 0.32 0.40 0.50 0.57 0.47 0.52 0.43 0.39 0.34 0.24 0.22 0.21 0.19 0.16 0.17 0.17 0.13 0.11 0.09 0.08 0.08
0.33 0.19 0.11 0.06 0.05 0.04 0.09 0.08 0.12 0.13 0.24 0.32 0.27 0.12 0.18 0.07 0.06 0.04 0.03 0.01 0.04 0.16 0.51 0.77 0.74 0.81 0.61 0.61 0.53 0.46 0.50 0.45 0.47 0.31 0.29 0.33 0.41 0.29 0.32 0.34 0.29 0.23 0.20 0.23 0.20 0.21 0.18 0.16 0.15 0.11 0.08 0.07 0.06 0.06
0.04 0.01 0.00 0.00 0.00 0.00 0.02 0.01 0.07 0.07 0.03 0.08 0.05 0.02 0.04 0.04 0.03 0.01 0.01 0.05 0.32 0.58 0.60 0.51 0.47 0.36 0.26 0.32 0.34 0.26 0.34 0.26 0.31 0.35 0.36 0.31 0.31 0.31 0.35 0.38 0.27 0.27 0.27 0.25 0.21 0.17 0.12 0.09 0.06 0.04 0.02 0.03 0.01 0.01
0.00 0.00 0.00 0.00 0.00 0.00 0.04 0.02 0.02 0.04 0.02 0.02 0.01 0.01 0.02 0.02 0.02 0.01 0.05 0.18 0.52 0.68 0.46 0.23 0.23 0.17 0.22 0.31 0.20 0.19 0.22 0.19 0.25 0.33 0.35 0.33 0.32 0.32 0.26 0.24 0.20 0.15 0.12 0.11 0.07 0.04 0.02 0.01 0.01 0.00 0.00 0.00 0.00 0.01
0.00 0.00 0.00 0.00 0.00 0.01 0.00 0.00 0.00 0.00 0.00 0.00 0.00 0.03 0.04 0.03 0.00 0.02 0.09 0.24 0.48 0.36 0.23 0.26 0.18 0.13 0.14 0.16 0.20 0.27 0.32 0.25 0.22 0.22 0.22 0.16 0.13 0.13 0.08 0.07 0.04 0.03 0.03 0.01 0.00 0.00 0.00 0.01 0.00 0.01 0.01 0.01 0.01 0.01
0.00 0.00 0.00 0.00 0.00 0.00 0.00 0.01 0.01 0.00 0.01 0.01 0.02 0.05 0.03 0.01 0.02 0.03 0.08 0.25 0.23 0.23 0.27 0.26 0.19 0.19 0.21 0.25 0.25 0.22 0.17 0.10 0.08 0.08 0.10 0.06 0.05 0.03 0.01 0.01 0.00 0.01 0.00 0.00 0.01 0.00 0.00 0.00 0.01 0.00 0.00 0.01 0.01 0.01
0.02 0.03 0.01 0.02 0.01 0.01 0.01 0.01 0.01 0.02 0.02 0.03 0.05 0.05 0.03 0.04 0.04 0.10 0.15 0.22 0.18 0.22 0.27 0.30 0.28 0.20 0.18 0.15 0.11 0.09 0.07 0.03 0.01 0.00 0.02 0.01 0.01 0.00 0.00 0.00 0.00 0.01 0.01 0.01 0.01 0.01 0.01 0.00 0.00 0.00 0.01 0.01 0.01 0.03
0.02 0.02 0.02 0.03 0.01 0.01 0.01 0.02 0.01 0.02 0.05 0.07 0.07 0.04 0.07 0.10 0.09 0.19 0.24 0.20 0.19 0.25 0.23 0.21 0.15 0.11 0.10 0.08 0.06 0.04 0.01 0.00 0.00 0.00 0.00 0.00 0.00 0.00 0.00 0.00 0.01 0.02 0.01 0.01 0.01 0.01 0.02 0.02 0.02 0.01 0.01 0.02 0.03 0.03
0.02 0.01 0.01 0.01 0.01 0.01 0.02 0.03 0.04 0.08 0.11 0.08 0.07 0.05 0.05 0.08 0.19 0.26 0.26 0.29 0.18 0.14 0.10 0.09 0.06 0.04 0.04 0.05 0.07 0.05 0.02 0.02 0.00 0.00 0.01 0.01 0.01 0.00 0.01 0.01 0.01 0.01 0.01 0.01 0.01 0.02 0.03 0.03 0.03 0.03 0.03 0.02 0.02 0.02
0.02 0.01 0.01 0.00 0.01 0.02 0.07 0.09 0.09 0.09 0.09 0.05 0.05 0.08 0.09 0.16 0.25 0.25 0.27 0.22 0.17 0.12 0.08 0.07 0.09 0.06 0.03 0.01 0.00 0.00 0.00 0.00 0.00 0.00 0.00 0.02 0.03 0.03 0.01 0.02 0.02 0.01 0.02 0.02 0.01 0.02 0.04 0.05 0.04 0.02 0.01 0.02 0.03 0.05
0.01 0.01 0.01 0.01 0.02 0.08 0.14 0.09 0.11 0.09 0.03 0.03 0.04 0.07 0.09 0.25 0.38 0.26 0.19 0.15 0.12 0.11 0.10 0.09 0.10 0.07 0.06 0.04 0.01 0.01 0.01 0.00 0.00 0.00 0.01 0.01 0.01 0.02 0.03 0.03 0.02 0.02 0.02 0.02 0.01 0.01 0.01 0.01 0.01 0.01 0.02 0.02 0.03 0.02
0.00 0.01 0.01 0.01 0.07 0.11 0.10 0.06 0.06 0.07 0.05 0.04 0.04 0.05 0.10 0.19 0.20 0.16 0.13 0.13 0.08 0.07 0.06 0.05 0.03 0.02 0.01 0.01 0.01 0.00 0.02 0.01 0.01 0.01 0.01 0.01 0.02 0.02 0.02 0.02 0.02 0.03 0.03 0.02 0.02 0.01 0.01 0.00 0.01 0.01 0.01 0.01 0.01 0.01
0.00 0.01 0.01 0.02 0.11 0.10 0.11 0.12 0.07 0.12 0.10 0.07 0.07 0.05 0.08 0.07 0.07 0.09 0.09 0.08 0.07 0.06 0.04 0.04 0.04 0.03 0.01 0.00 0.00 0.00 0.00 0.00 0.00 0.01 0.01 0.01 0.02 0.02 0.02 0.01 0.02 0.03 0.02 0.01 0.01 0.01 0.01 0.01 0.02 0.01 0.02 0.02 0.01 0.00
0.01 0.00 0.00 0.01 0.06 0.07 0.07 0.06 0.05 0.05 0.05 0.05 0.07 0.08 0.08 0.06 0.07 0.11 0.09 0.06 0.08 0.05 0.02 0.03 0.03 0.02 0.02 0.00 0.00 0.00 0.00 0.00 0.00 0.01 0.02 0.02 0.01 0.01 0.01 0.02 0.02 0.01 0.01 0.01 0.01 0.01 0.01 0.02 0.02 0.01 0.01 0.00 0.00 0.01

GFSWCAN_prec_precacc_060.txt.gz
Total_Precipitation_Accumulation
0.69 0.80 0.91 0.70 0.74 0.73 0.76 0.76 0.82 0.87 0.78 0.56 0.55 0.52 0.73 0.67 0.75 1.09 1.11 1.21 1.89 1.87 0.66 0.46 0.28 0.19 0.16 0.26 0.39 0.29 0.63 0.56 0.53 0.39 0.22 0.15 0.13 0.09 0.07 0.15 0.16 0.17 0.22 0.22 0.24 0.23 0.07 0.02 0.06 0.11 0.13 0.02 0.00 0.00
0.79 0.82 0.71 0.61 0.60 0.63 0.63 0.66 0.75 0.68 0.77 0.53 0.50 0.45 0.62 0.78 0.92 1.07 1.24 1.02 1.42 2.01 1.12 0.47 0.25 0.15 0.07 0.05 0.17 0.31 0.30 0.29 0.25 0.24 0.12 0.16 0.13 0.08 0.04 0.09 0.13 0.15 0.13 0.14 0.10 0.07 0.02 0.03 0.07 0.06 0.01 0.02 0.01 0.01
0.69 0.69 0.64 0.56 0.50 0.50 0.55 0.63 0.62 0.60 0.65 0.49 0.43 0.44 0.68 0.94 0.96 1.11 1.21 0.98 2.22 2.32 1.54 0.68 0.32 0.10 0.04 0.04 0.09 0.35 0.15 0.22 0.27 0.29 0.35 0.25 0.17 0.05 0.03 0.02 0.09 0.12 0.04 0.08 0.12 0.04 0.04 0.05 0.04 0.01 0.00 0.01 0.01 0.00
0.77 0.68 0.58 0.47 0.45 0.47 0.49 0.45 0.42 0.47 0.45 0.46 0.51 0.54 0.77 1.00 0.89 1.25 1.34 1.32 2.55 1.63 1.67 1.03 0.50 0.18 0.13 0.08 0.15 0.18 0.14 0.23 0.39 0.47 0.44 0.33 0.17 0.07 0.07 0.02 0.03 0.10 0.18 0.09 0.09 0.06 0.09 0.20 0.19 0.09 0.04 0.02 0.02 0.02
0.68 0.47 0.37 0.34 0.34 0.39 0.38 0.34 0.36 0.37 0.36 0.45 0.50 0.69 0.95 0.98 1.02 1.56 1.41 1.63 1.71 1.36 1.20 1.18 0.33 0.29 0.21 0.18 0.15 0.31 0.34 0.37 0.63 0.58 0.44 0.20 0.12 0.14 0.09 0.08 0.02 0.03 0.11 0.13 0.12 0.11 0.08 0.22 0.06 0.03 0.08 0.10 0.04 0.04
0.49 0.36 0.27 0.27 0.28 0.28 0.30 0.33 0.38 0.38 0.34 0.42 0.63 0.89 0.96 0.97 1.50 2.54 3.79 2.46 1.39 1.22 1.38 1.41 0.64 0.29 0.39 0.33 0.35 0.25 0.47 0.69 0.78 0.89 0.44 0.12 0.06 0.19 0.17 0.14 0.12 0.09 0.06 0.03 0.04 0.01 0.03 0.02 0.03 0.05 0.02 0.05 0.06 0.05
0.49 0.41 0.34 0.27 0.24 0.26 0.25 0.27 0.34 0.38 0.42 0.58 0.75 0.89 0.89 1.17 1.47 2.19 1.98 1.36 1.04 1.30 1.53 1.29 0.98 0.46 0.44 0.59 0.66 0.76 0.57 0.99 1.40 1.19 0.65 0.30 0.20 0.32 0.20 0.16 0.17 0.08 0.07 0.04 0.02 0.02 0.05 0.03 0.03 0.03 0.03 0.02 0.01 0.01
0.44 0.40 0.38 0.36 0.32 0.37 0.27 0.28 0.37 0.44 0.50 0.62 0.81 0.94 1.19 1.35 1.72 1.60 1.06 1.10 0.87 1.25 1.24 1.14 1.13 0.88 0.75 0.99 0.82 0.88 1.02 1.02 1.20 1.25 0.79 0.48 0.52 0.56 0.47 0.16 0.04 0.00 0.01 0.05 0.06 0.07 0.08 0.06 0.03 0.02 0.01 0.01 0.01 0.00
0.49 0.41 0.38 0.45 0.42 0.39 0.31 0.34 0.40 0.55 0.68 0.92 1.14 1.62 2.55 2.21 2.24 1.60 1.33 1.44 1.13 1.10 0.91 0.54 0.77 1.28 1.21 1.11 0.78 0.74 1.18 1.25 0.93 0.72 0.62 0.72 0.97 0.91 0.54 0.14 0.08 0.04 0.01 0.01 0.00 0.00 0.01 0.02 0.02 0.01 0.00 0.01 0.00 0.01
0.50 0.39 0.32 0.35 0.38 0.50 0.55 0.56 0.60 0.71 0.92 1.16 1.76 2.45 2.61 1.79 1.58 1.75 2.31 2.19 1.86 1.09 0.72 0.50 0.43 0.94 1.37 1.29 1.07 0.77 0.72 0.76 0.77 0.64 0.70 0.91 0.77 0.37 0.14 0.15 0.12 0.09 0.08 0.05 0.02 0.02 0.02 0.02 0.02 0.01 0.02 0.03 0.04 0.08
0.33 0.29 0.31 0.36 0.38 0.44 0.42 0.45 0.55 0.73 0.89 1.18 1.42 1.90 1.59 1.66 1.82 1.94 1.72 1.30 1.13 0.63 0.28 0.40 0.48 0.83 1.01 1.30 0.94 0.86 0.94 0.48 0.37 0.49 0.56 0.78 0.45 0.20 0.04 0.04 0.06 0.11 0.10 0.12 0.16 0.17 0.18 0.17 0.13 0.09 0.11 0.14 0.14 0.13
0.37 0.30 0.26 0.27 0.31 0.37 0.42 0.41 0.40 0.48 0.68 0.73 1.12 1.22 1.71 1.82 1.44 1.04 0.78 0.65 0.48 0.28 0.22 0.35 0.60 1.09 0.93 1.23 0.95 0.90 0.89 0.62 0.40 0.29 0.33 0.47 0.34 0.16 0.12 0.11 0.09 0.14 0.19 0.22 0.20 0.20 0.24 0.24 0.24 0.21 0.19 0.18 0.18 0.22
0.26 0.24 0.20 0.18 0.20 0.25 0.37 0.44 0.48 0.68 0.94 0.88 0.62 0.88 0.95 0.80 0.65 0.51 0.42 0.45 0.40 0.25 0.26 0.31 0.69 1.34 1.00 1.23 0.98 0.65 0.99 0.79 0.45 0.46 0.44 0.34 0.15 0.12 0.15 0.18 0.22 0.24 0.23 0.25 0.28 0.30 0.27 0.27 0.26 0.24 0.25 0.34 0.36 0.48
0.16 0.17 0.25 0.35 0.40 0.46 0.62 0.74 1.07 1.22 0.92 0.59 0.57 0.52 0.68 0.55 0.49 0.44 0.46 0.43 0.25 0.16 0.21 0.47 0.83 1.07 1.15 1.36 1.02 0.60 0.86 0.84 0.66 0.53 0.38 0.34 0.31 0.29 0.27 0.29 0.26 0.34 0.37 0.37 0.44 0.46 0.52 0.56 0.68 0.79 0.86 0.97 0.81 0.91
0.17 0.23 0.27 0.35 0.42 0.55 0.73 0.86 1.05 0.68 0.39 0.47 0.59 0.70 0.56 0.68 0.60 0.61 0.52 0.38 0.29 0.29 0.34 0.58 0.90 0.80 0.81 1.39 0.78 0.56 0.55 0.50 0.36 0.35 0.43 0.56 0.54 0.50 0.52 0.58 0.61 0.70 0.76 0.84 0.92 0.87 0.95 0.91 0.74 0.89 0.99 0.92 0.75 0.75
0.16 0.20 0.25 0.31 0.42 0.52 0.72 0.74 0.66 0.45 0.46 0.57 0.76 0.69 0.55 0.56 0.55 0.53 0.44 0.40 0.39 0.45 0.53 0.86 0.91 0.65 0.58 0.44 0.39 0.40 0.37 0.40 0.49 0.50 0.59 0.61 0.68 0.81 0.87 0.91 0.99 0.99 0.94 0.92 0.91 0.79 0.74 0.69 0.59 0.62 0.62 0.55 0.55 0.44
0.08 0.14 0.28 0.32 0.43 0.49 0.52 0.44 0.34 0.39 0.60 0.63 0.89 0.97 0.83 0.69 0.75 0.76 0.66 0.53 0.49 0.48 0.65 0.56 0.54 0.55 0.44 0.23 0.22 0.31 0.56 0.78 0.83 0.85 0.82 0.83 0.90 1.00 1.00 0.92 0.89 0.74 0.64 0.61 0.55 0.48 0.46 0.44 0.29 0.18 0.22 0.29 0.20 0.17
0.20 0.18 0.24 0.27 0.25 0.29 0.21 0.11 0.16 0.25 0.39 0.68 0.70 0.97 0.75 0.85 0.83 0.77 0.78 0.69 0.61 0.56 0.57 0.53 0.42 0.40 0.48 0.45 0.52 0.74 0.84 0.97 0.95 0.87 0.88 0.98 0.90 0.87 0.84 0.73 0.73 0.58 0.45 0.42 0.34 0.32 0.28 0.21 0.15 0.19 0.17 0.15 0.09 0.09
0.46 0.42 0.47 0.36 0.29 0.16 0.12 0.10 0.03 0.18 0.58 0.63 0.63 0.51 0.44 0.58 0.58 0.57 0.47 0.42 0.29 0.18 0.15 0.17 0.24 0.41 0.62 0.73 0.78 0.86 0.85 0.65 0.61 0.62 0.64 0.76 0.76 0.72 0.71 0.63 0.55 0.47 0.33 0.28 0.19 0.18 0.20 0.18 0.20 0.18 0.15 0.10 0.12 0.14
0.62 0.53 0.48 0.33 0.19 0.15 0.18 0.12 0.02 0.11 0.45 0.54 0.50 0.28 0.24 0.35 0.26 0.14 0.07 0.03 0.02 0.03 0.10 0.28 0.65 0.82 0.78 0.87 0.70 0.66 0.64 0.54 0.41 0.33 0.42 0.53 0.59 0.49 0.53 0.43 0.39 0.34 0.24 0.22 0.21 0.19 0.16 0.17 0.17 0.13 0.11 0.09 0.09 0.08
0.33 0.19 0.11 0.06 0.05 0.04 0.09 0.08 0.12 0.13 0.25 0.33 0.28 0.12 0.20 0.08 0.06 0.05 0.03 0.01 0.04 0.17 0.53 0.79 0.77 0.85 0.64 0.63 0.57 0.48 0.53 0.47 0.49 0.31 0.30 0.34 0.42 0.29 0.32 0.34 0.29 0.23 0.20 0.23 0.20 0.21 0.18 0.16 0.15 0.11 0.08 0.07 0.07 0.06
0.04 0.01 0.00 0.00 0.00 0.00 0.02 0.02 0.09 0.08 0.04 0.09 0.06 0.03 0.05 0.05 0.04 0.02 0.01 0.05 0.34 0.62 0.65 0.55 0.51 0.38 0.28 0.33 0.35 0.27 0.34 0.27 0.31 0.35 0.36 0.31 0.31 0.31 0.35 0.38 0.27 0.27 0.27 0.25 0.21 0.17 0.13 0.09 0.06 0.04 0.02 0.03 0.01 0.01
0.00 0.00 0.00 0.00 0.00 0.00 0.05 0.03 0.03 0.06 0.03 0.03 0.01 0.02 0.03 0.03 0.02 0.01 0.06 0.19 0.54 0.71 0.47 0.24 0.23 0.18 0.22 0.32 0.20 0.20 0.22 0.19 0.25 0.33 0.35 0.33 0.32 0.32 0.26 0.24 0.20 0.15 0.12 0.11 0.07 0.04 0.03 0.01 0.01 0.00 0.01 0.00 0.01 0.01
0.00 0.00 0.00 0.00 0.00 0.01 0.01 0.00 0.00 0.01 0.01 0.00 0.01 0.03 0.05 0.03 0.00 0.02 0.10 0.25 0.50 0.38 0.24 0.27 0.18 0.13 0.14 0.16 0.20 0.27 0.32 0.25 0.22 0.22 0.22 0.16 0.13 0.13 0.08 0.07 0.04 0.03 0.03 0.01 0.00 0.00 0.00 0.01 0.00 0.01 0.01 0.01 0.01 0.01
0.00 0.00 0.00 0.00 0.00 0.00 0.00 0.01 0.01 0.00 0.01 0.01 0.02 0.05 0.03 0.01 0.02 0.04 0.09 0.26 0.24 0.24 0.28 0.27 0.20 0.19 0.21 0.25 0.25 0.22 0.17 0.10 0.08 0.08 0.10 0.06 0.05 0.03 0.01 0.01 0.00 0.01 0.00 0.01 0.01 0.01 0.00 0.00 0.01 0.00 0.01 0.01 0.01 0.01
0.02 0.03 0.01 0.02 0.01 0.01 0.01 0.01 0.01 0.02 0.02 0.03 0.05 0.05 0.03 0.04 0.04 0.10 0.16 0.23 0.19 0.24 0.29 0.31 0.28 0.20 0.18 0.15 0.11 0.09 0.07 0.03 0.01 0.00 0.02 0.01 0.01 0.00 0.00 0.00 0.00 0.01 0.01 0.01 0.02 0.01 0.01 0.00 0.00 0.00 0.01 0.01 0.01 0.03
0.02 0.03 0.02 0.03 0.02 0.01 0.01 0.02 0.01 0.02 0.05 0.07 0.07 0.04 0.07 0.10 0.10 0.19 0.25 0.21 0.20 0.25 0.24 0.22 0.15 0.11 0.10 0.08 0.06 0.04 0.01 0.00 0.00 0.00 0.00 0.00 0.00 0.00 0.00 0.00 0.01 0.02 0.01 0.01 0.01 0.01 0.02 0.02 0.02 0.02 0.02 0.02 0.03 0.03
0.02 0.01 0.01 0.01 0.01 0.01 0.02 0.03 0.04 0.08 0.11 0.08 0.07 0.05 0.05 0.09 0.20 0.29 0.27 0.30 0.18 0.14 0.10 0.09 0.06 0.04 0.04 0.05 0.07 0.05 0.02 0.02 0.00 0.00 0.01 0.02 0.01 0.00 0.01 0.01 0.01 0.01 0.01 0.01 0.01 0.02 0.03 0.03 0.04 0.03 0.03 0.02 0.02 0.02
0.02 0.01 0.01 0.00 0.01 0.02 0.07 0.09 0.10 0.10 0.09 0.05 0.05 0.08 0.09 0.17 0.26 0.26 0.28 0.23 0.18 0.12 0.09 0.07 0.10 0.06 0.03 0.01 0.00 0.00 0.00 0.01 0.00 0.00 0.00 0.02 0.04 0.03 0.02 0.02 0.02 0.01 0.02 0.02 0.01 0.02 0.04 0.05 0.04 0.02 0.01 0.02 0.03 0.06
0.01 0.01 0.01 0.01 0.03 0.08 0.15 0.10 0.12 0.09 0.03 0.03 0.04 0.08 0.11 0.28 0.41 0.28 0.20 0.16 0.13 0.12 0.11 0.09 0.10 0.07 0.06 0.04 0.01 0.01 0.01 0.00 0.00 0.00 0.01 0.01 0.02 0.02 0.03 0.03 0.02 0.02 0.03 0.02 0.01 0.01 0.01 0.01 0.01 0.01 0.02 0.02 0.03 0.02
0.00 0.01 0.01 0.01 0.08 0.12 0.11 0.07 0.07 0.08 0.06 0.05 0.04 0.06 0.11 0.20 0.21 0.16 0.14 0.13 0.08 0.07 0.06 0.05 0.03 0.02 0.01 0.01 0.01 0.01 0.02 0.01 0.01 0.01 0.01 0.01 0.02 0.03 0.02 0.02 0.02 0.03 0.03 0.02 0.02 0.02 0.01 0.00 0.01 0.01 0.01 0.01 0.01 0.01
0.01 0.01 0.01 0.02 0.11 0.11 0.13 0.13 0.08 0.13 0.11 0.07 0.08 0.06 0.09 0.08 0.08 0.10 0.10 0.10 0.08 0.06 0.05 0.05 0.05 0.03 0.01 0.00 0.00 0.01 0.00 0.00 0.00 0.01 0.01 0.01 0.02 0.02 0.02 0.02 0.02 0.03 0.03 0.02 0.01 0.01 0.01 0.01 0.02 0.01 0.02 0.02 0.01 0.00
0.01 0.00 0.00 0.01 0.06 0.08 0.08 0.07 0.06 0.05 0.05 0.06 0.08 0.08 0.09 0.06 0.07 0.12 0.09 0.07 0.10 0.06 0.03 0.03 0.03 0.02 0.02 0.00 0.00 0.00 0.00 0.00 0.00 0.01 0.02 0.02 0.01 0.01 0.01 0.02 0.02 0.01 0.01 0.01 0.01 0.01 0.01 0.02 0.02 0.01 0.01 0.00 0.00 0.01

GFSWCAN_prec_precacc_063.txt.gz
Total_Precipitation_Accumulation
0.70 0.81 0.91 0.70 0.75 0.73 0.77 0.77 0.82 0.89 0.84 0.66 0.64 0.57 0.74 0.67 0.75 1.13 1.14 1.25 1.96 1.93 0.66 0.47 0.29 0.20 0.17 0.29 0.48 0.41 0.71 0.62 0.53 0.39 0.22 0.15 0.14 0.11 0.10 0.21 0.27 0.21 0.23 0.24 0.26 0.24 0.07 0.02 0.06 0.12 0.14 0.03 0.00 0.00
0.79 0.82 0.72 0.62 0.61 0.63 0.64 0.67 0.76 0.70 0.82 0.65 0.67 0.64 0.69 0.79 0.93 1.10 1.26 1.04 1.48 2.05 1.12 0.47 0.25 0.15 0.07 0.06 0.19 0.42 0.50 0.37 0.27 0.26 0.15 0.19 0.16 0.13 0.09 0.14 0.19 0.25 0.16 0.16 0.10 0.07 0.04 0.05 0.09 0.08 0.03 0.02 0.01 0.01
0.69 0.70 0.64 0.56 0.50 0.51 0.56 0.65 0.64 0.62 0.70 0.57 0.53 0.60 0.78 0.96 0.97 1.12 1.21 1.00 2.29 2.36 1.56 0.68 0.32 0.10 0.04 0.04 0.09 0.39 0.16 0.27 0.33 0.38 0.45 0.32 0.25 0.13 0.06 0.05 0.13 0.15 0.07 0.11 0.15 0.11 0.11 0.19 0.15 0.02 0.01 0.02 0.01 0.00
0.77 0.69 0.58 0.47 0.46 0.48 0.51 0.47 0.43 0.50 0.54 0.58 0.59 0.61 0.84 1.02 0.89 1.25 1.34 1.33 2.60 1.68 1.67 1.03 0.50 0.18 0.13 0.08 0.15 0.18 0.14 0.24 0.46 0.54 0.61 0.50 0.27 0.11 0.11 0.04 0.06 0.16 0.42 0.20 0.18 0.21 0.18 0.30 0.48 0.19 0.06 0.02 0.02 0.02
0.68 0.47 0.38 0.35 0.36 0.40 0.39 0.35 0.38 0.39 0.38 0.49 0.53 0.70 0.97 0.99 1.02 1.57 1.43 1.64 1.73 1.38 1.25 1.21 0.33 0.29 0.21 0.18 0.15 0.31 0.34 0.37 0.64 0.62 0.50 0.27 0.22 0.17 0.10 0.08 0.05 0.11 0.58 0.37 0.26 0.47 0.33 0.48 0.24 0.17 0.14 0.10 0.04 0.04
0.49 0.36 0.27 0.28 0.29 0.30 0.31 0.35 0.40 0.39 0.34 0.43 0.64 0.90 0.97 0.97 1.52 2.58 3.83 2.47 1.40 1.26 1.42 1.42 0.64 0.29 0.39 0.34 0.35 0.25 0.47 0.69 0.81 0.94 0.46 0.15 0.10 0.22 0.17 0.16 0.17 0.11 0.10 0.12 0.15 0.22 0.16 0.10 0.09 0.06 0.03 0.05 0.06 0.05
0.50 0.41 0.36 0.28 0.26 0.29 0.28 0.30 0.35 0.38 0.42 0.58 0.76 0.90 0.89 1.17 1.48 2.20 1.99 1.39 1.04 1.33 1.64 1.32 0.99 0.49 0.45 0.61 0.67 0.78 0.58 1.02 1.43 1.22 0.66 0.30 0.22 0.36 0.22 0.18 0.21 0.09 0.08 0.05 0.03 0.03 0.05 0.03 0.03 0.03 0.03 0.02 0.01 0.01
0.45 0.42 0.40 0.37 0.33 0.40 0.30 0.32 0.38 0.45 0.50 0.62 0.82 0.95 1.20 1.38 1.75 1.62 1.08 1.14 0.89 1.26 1.28 1.17 1.16 1.04 0.77 1.03 0.94 0.92 1.08 1.15 1.27 1.28 0.80 0.49 0.54 0.60 0.52 0.17 0.04 0.00 0.01 0.05 0.06 0.07 0.08 0.06 0.03 0.02 0.01 0.01 0.01 0.00
0.51 0.45 0.41 0.46 0.43 0.40 0.32 0.36 0.41 0.58 0.69 0.93 1.15 1.69 2.75 2.41 2.34 1.63 1.34 1.48 1.15 1.11 0.93 0.55 0.81 1.48 1.25 1.14 0.88 0.80 1.23 1.33 0.98 0.75 0.63 0.72 0.98 0.94 0.57 0.14 0.08 0.04 0.01 0.01 0.00 0.00 0.01 0.02 0.02 0.01 0.00 0.01 0.00 0.01
0.55 0.42 0.34 0.36 0.38 0.50 0.56 0.57 0.63 0.76 0.94 1.21 1.84 2.69 2.81 1.86 1.61 1.80 2.51 2.49 1.98 1.11 0.74 0.51 0.44 0.98 1.43 1.33 1.10 0.85 0.77 0.79 0.79 0.65 0.72 0.92 0.78 0.38 0.14 0.15 0.12 0.09 0.08 0.05 0.02 0.02 0.02 0.02 0.02 0.01 0.02 0.03 0.04 0.08
0.34 0.31 0.32 0.37 0.39 0.44 0.43 0.46 0.66 0.88 1.01 1.22 1.54 2.03 1.65 1.71 1.88 2.03 1.85 1.39 1.17 0.65 0.29 0.41 0.49 0.87 1.05 1.34 0.98 0.88 0.96 0.50 0.38 0.50 0.56 0.81 0.46 0.21 0.04 0.04 0.06 0.11 0.10 0.12 0.16 0.18 0.18 0.17 0.13 0.09 0.12 0.14 0.14 0.13
0.38 0.32 0.30 0.31 0.34 0.38 0.43 0.49 0.59 0.59 0.73 0.76 1.17 1.28 1.81 1.91 1.53 1.09 0.81 0.68 0.50 0.30 0.23 0.37 0.63 1.13 0.97 1.28 0.99 0.95 0.91 0.63 0.42 0.30 0.35 0.51 0.36 0.16 0.12 0.11 0.09 0.14 0.19 0.22 0.21 0.20 0.24 0.24 0.24 0.21 0.19 0.18 0.19 0.22
0.30 0.30 0.29 0.24 0.22 0.26 0.43 0.59 0.55 0.69 0.95 0.89 0.63 0.91 1.00 0.83 0.73 0.62 0.46 0.46 0.42 0.25 0.27 0.33 0.71 1.37 1.01 1.24 0.98 0.67 1.02 0.80 0.47 0.48 0.47 0.36 0.16 0.12 0.15 0.18 0.22 0.24 0.23 0.26 0.28 0.30 0.27 0.28 0.26 0.24 0.25 0.34 0.36 0.49
0.22 0.25 0.33 0.43 0.52 0.60 0.82 0.92 1.18 1.25 0.92 0.60 0.58 0.54 0.74 0.57 0.54 0.47 0.47 0.44 0.25 0.16 0.21 0.47 0.83 1.07 1.15 1.36 1.02 0.60 0.86 0.84 0.68 0.55 0.40 0.37 0.32 0.30 0.27 0.29 0.26 0.34 0.37 0.38 0.45 0.46 0.52 0.56 0.68 0.79 0.86 0.97 0.81 0.91
0.25 0.32 0.41 0.51 0.53 0.65 0.83 0.94 1.07 0.68 0.39 0.47 0.59 0.70 0.56 0.68 0.60 0.62 0.52 0.39 0.30 0.29 0.34 0.59 0.90 0.80 0.81 1.39 0.78 0.56 0.55 0.52 0.38 0.37 0.45 0.58 0.54 0.50 0.53 0.58 0.62 0.70 0.76 0.84 0.92 0.87 0.95 0.91 0.74 0.89 0.99 0.92 0.75 0.75
0.17 0.22 0.33 0.38 0.48 0.55 0.73 0.74 0.66 0.45 0.46 0.57 0.76 0.70 0.57 0.57 0.57 0.55 0.46 0.40 0.39 0.46 0.53 0.86 0.91 0.65 0.58 0.44 0.40 0.41 0.38 0.42 0.51 0.51 0.61 0.61 0.69 0.82 0.87 0.92 0.99 1.00 0.95 0.93 0.91 0.80 0.74 0.69 0.60 0.63 0.62 0.55 0.55 0.44
0.09 0.15 0.29 0.33 0.43 0.49 0.52 0.44 0.34 0.39 0.60 0.63 0.89 0.98 0.85 0.71 0.75 0.77 0.67 0.55 0.51 0.50 0.67 0.57 0.54 0.56 0.46 0.24 0.23 0.32 0.58 0.80 0.85 0.87 0.83 0.83 0.91 1.01 1.01 0.93 0.90 0.76 0.65 0.62 0.56 0.49 0.47 0.45 0.29 0.18 0.22 0.29 0.20 0.17
0.20 0.18 0.25 0.27 0.26 0.30 0.21 0.11 0.16 0.25 0.39 0.69 0.72 0.98 0.75 0.87 0.85 0.78 0.79 0.70 0.62 0.56 0.57 0.54 0.43 0.41 0.50 0.47 0.53 0.76 0.86 0.99 0.97 0.88 0.90 1.00 0.92 0.89 0.85 0.74 0.75 0.59 0.46 0.43 0.35 0.33 0.29 0.21 0.15 0.19 0.17 0.15 0.09 0.09
0.46 0.42 0.47 0.36 0.29 0.16 0.12 0.10 0.03 0.18 0.59 0.64 0.64 0.52 0.45 0.59 0.59 0.59 0.48 0.42 0.29 0.18 0.15 0.17 0.24 0.42 0.63 0.74 0.79 0.87 0.86 0.66 0.62 0.63 0.66 0.77 0.77 0.74 0.72 0.64 0.57 0.48 0.35 0.29 0.19 0.18 0.20 0.18 0.20 0.18 0.15 0.10 0.12 0.14
0.62 0.53 0.48 0.33 0.19 0.15 0.18 0.12 0.02 0.11 0.46 0.54 0.51 0.28 0.25 0.37 0.27 0.14 0.07 0.03 0.02 0.03 0.10 0.29 0.67 0.84 0.79 0.89 0.70 0.66 0.64 0.55 0.41 0.34 0.44 0.56 0.61 0.51 0.55 0.44 0.39 0.34 0.24 0.22 0.21 0.19 0.16 0.17 0.17 0.13 0.11 0.09 0.09 0.09
0.33 0.19 0.11 0.06 0.05 0.04 0.09 0.08 0.13 0.13 0.25 0.33 0.29 0.12 0.20 0.08 0.07 0.05 0.03 0.01 0.04 0.18 0.54 0.81 0.78 0.87 0.65 0.65 0.58 0.49 0.55 0.49 0.51 0.32 0.31 0.35 0.42 0.29 0.32 0.34 0.29 0.23 0.20 0.23 0.20 0.21 0.18 0.16 0.15 0.11 0.08 0.07 0.07 0.06
0.04 0.01 0.00 0.00 0.00 0.00 0.03 0.02 0.09 0.08 0.04 0.09 0.06 0.03 0.05 0.05 0.04 0.02 0.01 0.05 0.35 0.65 0.68 0.57 0.53 0.40 0.29 0.34 0.36 0.27 0.35 0.27 0.31 0.35 0.36 0.32 0.31 0.31 0.35 0.38 0.27 0.27 0.27 0.25 0.21 0.17 0.13 0.09 0.06 0.04 0.02 0.03 0.02 0.01
0.00 0.00 0.00 0.00 0.00 0.01 0.06 0.05 0.05 0.08 0.03 0.03 0.02 0.02 0.03 0.03 0.02 0.01 0.06 0.20 0.57 0.74 0.49 0.24 0.24 0.18 0.23 0.32 0.20 0.20 0.22 0.19 0.25 0.33 0.35 0.33 0.32 0.32 0.26 0.24 0.20 0.15 0.12 0.11 0.07 0.04 0.03 0.01 0.01 0.00 0.01 0.00 0.01 0.01
0.00 0.00 0.00 0.00 0.00 0.01 0.02 0.02 0.01 0.01 0.01 0.01 0.01 0.04 0.05 0.03 0.00 0.02 0.10 0.26 0.51 0.39 0.24 0.27 0.18 0.14 0.14 0.16 0.20 0.27 0.32 0.25 0.22 0.22 0.22 0.16 0.13 0.13 0.08 0.07 0.04 0.03 0.03 0.01 0.00 0.00 0.00 0.01 0.00 0.01 0.01 0.01 0.01 0.01
0.00 0.00 0.00 0.00 0.00 0.00 0.00 0.01 0.01 0.01 0.02 0.01 0.02 0.05 0.03 0.01 0.02 0.04 0.09 0.27 0.25 0.25 0.29 0.28 0.22 0.19 0.21 0.25 0.25 0.22 0.17 0.10 0.08 0.08 0.10 0.06 0.05 0.03 0.01 0.01 0.00 0.01 0.00 0.01 0.01 0.01 0.00 0.00 0.01 0.00 0.01 0.01 0.01 0.01
0.02 0.03 0.01 0.03 0.01 0.01 0.01 0.01 0.01 0.02 0.02 0.03 0.05 0.05 0.03 0.04 0.05 0.11 0.16 0.24 0.20 0.25 0.30 0.31 0.28 0.20 0.18 0.15 0.11 0.09 0.07 0.03 0.01 0.00 0.02 0.01 0.01 0.01 0.00 0.00 0.01 0.01 0.01 0.01 0.02 0.02 0.01 0.00 0.00 0.00 0.01 0.01 0.01 0.03
0.02 0.03 0.02 0.03 0.02 0.01 0.02 0.02 0.01 0.02 0.05 0.07 0.07 0.04 0.07 0.10 0.10 0.21 0.29 0.22 0.21 0.27 0.24 0.22 0.15 0.11 0.10 0.08 0.06 0.04 0.01 0.00 0.00 0.00 0.00 0.00 0.00 0.00 0.00 0.00 0.01 0.02 0.01 0.01 0.01 0.01 0.02 0.02 0.02 0.02 0.02 0.02 0.04 0.04
0.02 0.01 0.02 0.01 0.01 0.01 0.02 0.03 0.04 0.09 0.11 0.08 0.07 0.05 0.05 0.09 0.22 0.31 0.30 0.31 0.18 0.14 0.10 0.09 0.06 0.04 0.04 0.05 0.07 0.05 0.02 0.02 0.00 0.00 0.01 0.02 0.01 0.00 0.01 0.01 0.01 0.01 0.01 0.01 0.01 0.02 0.03 0.03 0.04 0.03 0.03 0.02 0.02 0.02
0.02 0.01 0.01 0.00 0.01 0.02 0.07 0.09 0.10 0.10 0.09 0.06 0.05 0.08 0.10 0.19 0.28 0.27 0.28 0.23 0.18 0.12 0.09 0.07 0.10 0.06 0.03 0.01 0.00 0.00 0.00 0.01 0.00 0.00 0.00 0.03 0.04 0.03 0.02 0.02 0.02 0.01 0.02 0.02 0.01 0.02 0.04 0.05 0.04 0.02 0.01 0.02 0.03 0.06
0.01 0.01 0.01 0.01 0.03 0.09 0.16 0.11 0.13 0.09 0.03 0.03 0.04 0.09 0.12 0.31 0.46 0.30 0.22 0.18 0.14 0.13 0.11 0.10 0.11 0.07 0.06 0.04 0.01 0.01 0.01 0.00 0.00 0.00 0.01 0.01 0.02 0.03 0.03 0.03 0.02 0.02 0.03 0.02 0.01 0.01 0.01 0.01 0.01 0.01 0.02 0.02 0.03 0.03
0.00 0.01 0.01 0.01 0.08 0.14 0.13 0.08 0.08 0.09 0.06 0.05 0.04 0.06 0.11 0.22 0.22 0.17 0.15 0.14 0.08 0.07 0.07 0.06 0.03 0.02 0.01 0.01 0.01 0.01 0.03 0.01 0.01 0.01 0.01 0.01 0.02 0.03 0.02 0.02 0.02 0.03 0.03 0.02 0.02 0.02 0.01 0.00 0.01 0.01 0.01 0.01 0.01 0.01
0.01 0.01 0.01 0.02 0.12 0.13 0.16 0.14 0.09 0.14 0.12 0.08 0.08 0.06 0.09 0.08 0.08 0.10 0.10 0.12 0.10 0.07 0.06 0.05 0.05 0.03 0.01 0.00 0.00 0.01 0.00 0.00 0.00 0.01 0.01 0.01 0.02 0.02 0.02 0.02 0.02 0.03 0.03 0.02 0.01 0.01 0.01 0.01 0.02 0.01 0.02 0.02 0.01 0.00
0.01 0.00 0.00 0.01 0.06 0.08 0.08 0.07 0.06 0.06 0.06 0.06 0.09 0.09 0.09 0.06 0.08 0.12 0.10 0.08 0.12 0.07 0.03 0.03 0.03 0.02 0.02 0.00 0.00 0.00 0.00 0.00 0.00 0.01 0.02 0.02 0.01 0.01 0.01 0.02 0.02 0.01 0.01 0.01 0.01 0.01 0.01 0.02 0.02 0.01 0.01 0.00 0.00 0.01